     2.10           OBSERVATION DATA    G (GPS)             RINEX VERSION / TYPE
teqc 2002Mar14 student visiting Jef20020914 19:56:28UTC     PGM / RUN BY / DATE
Solaris 2.7|Ultra 2|cc SC5.0|=+-|*Sparc                     COMMENT
BIT 2 OF LLI FLAGS DATA COLLECTED UNDER A/S CONDITION       COMMENT
HPGN 0217 1991                                              MARKER NAME
0217                                                        MARKER NUMBER
TBW Humboldt_State_Univ                                     OBSERVER / AGENCY
7910 TRIMBLE 4000SSE NP 7.19 / SP 3.04                      REC # / TYPE / VERS
54980 TRM22020.00+GP                                        ANT # / TYPE
 -2635314.0000 -4067050.0000  4133499.0000                  APPROX POSITION XYZ
        1.9218        0.0000        0.0000                  ANTENNA: DELTA H/E/N
     1     1                                                WAVELENGTH FACT L1/2
     5    L1    L2    C1    P2    P1                        # / TYPES OF OBSERV
    30.0000                                                 INTERVAL
Converted from slant height with r = 0.2334 and d = -0.0591 COMMENT
Original slant height = 1.8773                              COMMENT
SNR is mapped to RINEX snr flag value [1-9]                 COMMENT
L1: 3 -> 1; 8 -> 5; 40 -> 9                                 COMMENT
L2: 1 -> 1; 5 -> 5; 60 -> 9                                 COMMENT
  2002     9    12     0    43   30.0000000     GPS         TIME OF FIRST OBS
                                                            END OF HEADER
 02  9 12  0 43 30.0000000  0  7G31G 8G10G13G 3G27G28
     90315.80956     39642.16856  21822959.2734   21822962.5204
    -49365.50457    -29240.46257  20322398.1094   20322400.5474
    118876.42255     83732.21455  23326952.1564   23326957.4654
    314504.02456    225980.42955  22423750.4534   22423753.7464
    220949.56551                  24466913.1564
     70919.46257     55265.51057  20727555.4614   20727557.2664
   -145139.43357   -111744.03656  21586630.3444   21586632.7934
 02  9 12  0 44  0.0000000  0  8G29G31G 8G10G13G 3G27G28
    -48793.16852                  24645137.0784
    128976.95446     69767.76146  21830316.2114   21830319.7734
    -63046.23847    -39900.72047  20319794.8054   20319797.2194
    163023.55945    118132.52445  23335351.7664   23335358.1054
    424912.31846    312012.74245  22444760.0234   22444763.3874
    317145.59542     62552.04652  24485219.5474   24485227.3914
     98221.43147     76539.78647  20732751.4064   20732753.1994
   -191343.60447   -147747.16846  21577837.9614   21577840.2584
 02  9 12  0 44 30.0000000  0  8G29G31G 8G10G13G 3G27G28
   -133930.01343                  24628935.8984
    169428.09546    101288.14746  21838014.3284   21838017.4804
    -75283.05947    -49435.85447  20317465.6414   20317468.3244
    208849.97745    153841.36145  23344073.5554   23344079.5084
    536780.37746    399182.54545  22466049.5704   22466052.4654
    414868.29542    138699.65042  24503815.9384   24503823.2774
    126954.59347     98929.28247  20738218.7424   20738220.5354
   -236039.11247   -182574.72546  21569332.6804   21569335.0354
 02  9 12  0 45  0.0000000  0  8G29G31G 8G10G13G 3G27G28
   -217911.16043     -2165.29852  24612954.6174   24612962.0164
    211547.89246    134108.79246  21846029.5084   21846032.3794
    -86195.76247    -57939.21247  20315389.3364   20315391.7974
    256233.37245    190763.45345  23353091.1484   23353097.3134
    649985.47146    487394.19045  22487591.0474   22487594.3164
    513994.28542    215940.61041  24522677.6954   24522685.2704
    156998.85947    122340.41647  20743936.0704   20743938.0744
   -279346.35847   -216320.51246  21561091.1254   21561093.4924
 02  9 12  0 45 30.0000000  0  8G29G31G 8G10G13G 3G27G28
   -300805.02743    -66757.79742  24597180.7974   24597184.3244
    255264.67846    168173.83446  21854349.0554   21854352.0784
    -95854.80447    -65465.68447  20313551.4774   20313553.6334
    305101.16845    228842.20345  23362389.0314   23362394.9844
    764454.85546    576590.99245  22509373.6804   22509377.1604
    614450.11142    294217.96441  24541797.3364   24541807.2074
    188283.98047    146718.45247  20749889.2274   20749891.3014
   -321335.70247   -249039.35846  21553100.9304   21553103.0394
 02  9 12  0 46  0.0000000  0  8G29G31G 8G10G13G 3G27G28
   -382667.63844   -130546.78142  24581602.2114   24581608.5984
    300519.42846    203437.29446  21862959.2734   21862962.6954
   -104317.62647    -72060.04247  20311941.0474   20311943.2504
    355393.41845    268030.92345  23371959.0944   23371965.5164
    880127.97646    666725.77545  22531385.0234   22531388.1054
    716175.50541    373484.49441  24561154.0394   24561166.2304
    220752.28547    172018.45247  20756067.5474   20756069.6804
   -362064.33947   -280775.84446  21545350.6484   21545352.9804
 02  9 12  0 46 30.0000000  0  8G29G31G 8G10G13G 3G27G28
   -463557.83744   -193577.93943  24566209.2034   24566213.3284
    347250.12446    239850.85746  21871851.8754   21871855.7304
   -111644.43647    -77769.19447  20310546.7664   20310549.0744
    407047.08945    308280.46145  23381790.0634   23381796.2974
    996941.96746    757749.54645  22553614.9774   22553618.4694
    819106.68542                  24580741.1254
    254343.26447    198193.25747  20762459.4384   20762461.9804
   -401593.26447   -311577.48846  21537828.7894   21537830.7704
 02  9 12  0 47  0.0000000  0  8G29G31G 8G10G13G 3G27G28
   -543529.17244   -255893.17643  24550989.7114   24550995.2544
    395400.05346    277370.29546  21881014.8524   21881019.1054
   -117890.42047    -82636.14747  20309358.2424   20309360.2814
    460004.47945    349545.89545  23391866.7814   23391872.4534
   1114838.95746    849617.21245  22576049.8444   22576053.1134
    923185.22141                  24600544.6484
    289001.73347    225199.86647  20769055.0474   20769057.3324
   -439977.95447   -341487.51646  21530523.6094   21530525.9414
 02  9 12  0 47 30.0000000  0  8G29G31G 8G10G13G 3G27G28
   -622628.14045   -317528.65343  24535937.6094   24535943.7854
    444919.32346    315956.76846  21890437.9064   21890441.3524
   -123103.88547    -86698.53447  20308365.9224   20308368.0434
    514214.79245    391787.67545  23402183.5314   23402189.0984
   1233767.82646    942288.91945  22598680.5474   22598684.4264
   1028360.08043                  24620562.1024
    324679.10647    253000.42647  20775844.0554   20775846.4574
   -477266.81547   -370543.66846  21523427.9304   21523429.9574
 02  9 12  0 48  0.0000000  0  8G29G31G 8G10G13G 3G27G28
   -700897.91345   -378517.96043  24521044.5474   24521050.1024
    495761.89446    355574.36246  21900113.0314   21900116.5474
   -127329.23147    -89990.96347  20307561.8834   20307564.4494
    569631.15945    434969.19445  23412729.0394   23412735.0514
   1353681.35346   1035727.91245  22621500.1024   22621503.5234
   1134583.00941                  24640773.4774
    361330.93147    281560.29747  20782819.0634   20782821.4774
   -513504.77047   -398780.91846  21516532.4534   21516534.5634
 02  9 12  0 48 30.0000000  0  8G29G31G 8G10G13G 3G27G28
   -778372.83345   -438887.92043  24506301.3444   24506306.6644
    547889.82946    396193.54646  21910033.1724   21910036.7704
   -130602.46447    -92541.47647  20306939.0784   20306941.2114
    626214.67945    479060.20045  23423495.7344   23423501.2544
   1474540.55746   1129903.77845  22644498.1414   22644501.5984
   1241814.85242                  24661179.1644
    398920.88047    310851.17547  20789971.9924   20789974.1724
   -548728.27047   -426227.69046  21509829.5864   21509831.6254
 02  9 12  0 49  0.0000000  0  8G29G31G 8G10G13G 3G27G28
   -855086.13345   -498664.35743  24491702.9384   24491708.6214
    601266.86546    437786.06946  21920190.1414   21920193.4694
   -132958.05847    -94376.96047  20306490.6334   20306492.6724
    683928.25945    524031.77445  23434478.6954   23434484.6374
   1596308.25046   1224787.55345  22667670.7814   22667675.0594
   1350018.10841                  24681771.0084
    437414.07947    340845.87947  20797296.7734   20797299.2584
   -582972.31947   -452911.24646  21503312.6414   21503314.8914
 02  9 12  0 49 30.0000000  0  8G29G31G 8G10G13G 3G27G28
   -931067.86245   -557870.87142  24477243.8524   24477247.7304
    655859.58746    480325.87046  21930578.6484   21930582.1884
   -134427.92547    -95522.26147  20306211.1414   20306213.1334
    742737.31745    569856.96845  23445669.5164   23445675.6684
   1718949.67446   1320352.16145  22691008.6254   22691012.3164
   1459157.75241                  24702539.7114
    476778.75347    371519.65947  20804787.8754   20804789.8444
   -616268.78547   -478856.43146  21496977.3524   21496979.2504
 02  9 12  0 50  0.0000000  0  8G29G31G 8G10G13G 3G27G28
  -1006344.81145   -616528.14743  24462918.3524   24462923.2974
    711637.71046    523789.35646  21941193.6024   21941196.9534
   -135040.73047    -95999.72147  20306094.3204   20306096.6054
    802610.67845    616511.46545  23457064.0944   23457069.2154
   1842433.68346   1416573.35145  22714506.1174   22714509.6804
   1569201.55641                  24723478.0864
    516986.34147    402850.25747  20812439.0394   20812441.1724
   -648646.36347   -504085.59846  21490815.6174   21490817.2584
 02  9 12  0 50 30.0000000  0  8G29G31G 8G10G13G 3G27G28
  -1080933.57145   -674649.13943  24448725.7504   24448731.6804
    768581.17546    568160.90346  21952029.3984   21952032.3054
   -134814.24847    -95823.20047  20306137.5084   20306139.5474
    863527.73245    663979.24745  23468654.8754   23468661.5204
   1966738.96546   1513434.45445  22738161.2584   22738164.8554
   1680128.51941                  24744589.0004
    558018.51847    434823.38847  20820247.6094   20820249.8014
   -680123.72047   -528613.29746  21484825.0164   21484826.4224
 02  9 12  0 51  0.0000000  0  8G29G31G 8G10G13G 3G27G28
  -1154859.43345   -732253.58542  24434658.3054   24434663.2854
    826661.50946    613418.31946  21963081.0944   21963084.7734
   -133775.37447    -95013.63747  20306335.2034   20306337.4774
    925458.93245    712237.30245  23480440.8134   23480447.2344
   2091836.34746   1610912.80445  22761967.0704   22761971.2304
   1791908.23441                  24765855.8204
    599848.15247    467417.91847  20828207.5634   20828209.7074
   -710728.02847   -552460.69746  21479001.2274   21479003.1604
 02  9 12  0 51 30.0000000  0  8G29G31G 8G10G13G 3G27G28
  -1228139.69644   -789354.93143  24420712.7894   24420718.7194
    885857.79146    659545.31846  21974346.1094   21974350.0704
   -131943.12547    -93585.87347  20306683.1564   20306685.2544
    988382.50345    761268.54844  23492414.0004   23492420.1884
   2217703.80346   1708991.19045  22785919.2894   22785922.9804
   1904518.75141                  24787282.2344
    642456.20247    500619.00847  20836315.2034   20836317.3244
   -740478.73647   -575642.97046  21473340.1954   21473342.0004
 02  9 12  0 52  0.0000000  0  7G29G31G 8G10G13G27G28
  -1300793.16144   -845967.94042  24406887.0004   24406893.4224
    946147.84146    706524.57946  21985818.7194   21985822.5394
   -129337.69547    -91555.63347  20307179.7814   20307181.7734
   1052275.48045    811055.26945  23504573.2734   23504580.0594
   2344318.27346   1807651.68645  22810013.0704   22810016.9264
    685822.18347    534410.69347  20844567.6724   20844569.8524
   -769396.49947   -598176.18146  21467836.6094   21467838.5904
 02  9 12  0 52 30.0000000  0  7G29G31G 8G10G13G27G28
  -1372837.20845   -902106.01343  24393178.5634   24393183.3794
   1007510.72946    754339.83846  21997495.6254   21997498.9064
   -125978.28947    -88937.87647  20307819.0004   20307821.1094
   1117116.03745    861580.29845  23516911.9534   23516918.8594
   2471657.98146   1906877.28645  22834245.2894   22834249.4844
    729927.01347    568778.10247  20852960.5234   20852962.5864
   -797500.40647   -620075.21546  21462489.0474   21462490.6764
 02  9 12  0 53  0.0000000  0  7G29G31G 8G10G13G27G28
  -1444289.28244   -957782.80842  24379580.7584   24379584.6254
   1069925.28646    802974.55146  22009373.7664   22009377.1884
   -121883.71447    -85747.25747  20308598.3524   20308600.4614
   1182881.78645    912826.28345  23529427.3444   23529433.1564
   2599700.61346   2006650.60445  22858611.1334   22858615.2704
    774751.10147    603705.97947  20861489.9454   20861492.0084
   -824810.12247   -641355.41346  21457292.2814   21457294.1914
 02  9 12  0 53 30.0000000  0  7G29G31G 8G10G13G27G28
  -1515165.64943  -1013010.97842  24366092.3754   24366098.3634
   1133371.92646    852413.51146  22021445.9924   22021449.6604
   -117072.23447    -81998.01247  20309513.7664   20309515.6524
   1249552.41745    964777.38545  23542114.0944   23542119.8364
   2728425.61346   2106955.65345  22883106.8524   22883111.0004
    820276.56747    639180.36847  20870153.9614   20870156.1414
   -851344.00647   -662031.06646  21452242.2504   21452244.0314
 02  9 12  0 54  0.0000000  0  7G29G31G 8G10G13G27G28
  -1585482.48945  -1067803.20642  24352712.7114   24352716.3444
   1197830.63746    902641.09446  22033711.8674   22033715.7704
   -111561.39647    -77703.81847  20310561.9454   20310564.0204
   1317107.15645   1017417.37045  23554968.1334   23554974.4264
   2857812.28846   2207776.31045  22907727.8914   22907731.5824
    866485.57247    675187.39747  20878946.5634   20878948.6374
   -877120.51747   -682116.54846  21447337.8524   21447339.8914
 02  9 12  0 54 30.0000000  0  7G29G31G 8G10G13G27G28
  -1655254.35445  -1122170.81343  24339434.3594   24339438.7894
   1263283.24346    953643.12046  22046167.2114   22046170.8444
   -105367.08347    -72877.04547  20311740.9614   20311743.3984
   1385527.17746   1070731.59745  23567989.6414   23567995.5944
   2987841.50446   2309097.61445  22932472.2424   22932476.2974
    913361.34847    711713.98447  20887867.1174   20887869.2504
   -902156.10047   -701624.70646  21442574.1484   21442575.7304
 02  9 12  0 55  0.0000000  0  7G29G31G 8G10G13G27G28
  -1724493.32445  -1176123.10343  24326258.6564   24326264.2464
   1329714.13746   1005407.46446  22058809.0394   22058813.0944
    -98503.40947    -67528.69747  20313047.5234   20313049.4104
   1454796.00146   1124707.20245  23581171.3754   23581177.6804
   3118496.68546   2410906.68945  22957333.4224   22957337.6764
    960890.44047    748749.64947  20896911.5864   20896913.8834
   -926464.86147   -720566.49146  21437948.0944   21437949.9694
 02  9 12  0 55 30.0000000  0  7G29G31G 8G10G13G27G28
  -1793211.72245  -1229669.67843  24313182.3444   24313186.9384
   1397107.14046   1057921.48146  22071634.7114   22071637.9344
    -90984.21947    -61669.55847  20314477.8834   20314479.7344
   1524896.42745   1179330.89645  23594509.9064   23594515.7664
   3249761.02946   2513190.45045  22982313.2734   22982318.1844
   1009058.41747    786283.14147  20906078.1724   20906080.5394
   -950061.35347   -738953.26646  21433457.1094   21433458.7274
 02  9 12  0 56  0.0000000  0  7G29G31G 8G10G13G27G28
  -1861418.65845  -1282817.83243  24300202.6414   24300207.0824
   1465449.55746   1111175.32545  22084638.3754   22084641.4694
    -82820.52047    -55308.21847  20316031.1564   20316033.2774
   1595814.95345   1234591.97145  23608005.9534   23608013.3634
   3381620.84446   2615938.21445  23007405.6414   23007410.2114
   1057854.49647    824306.06647  20915363.0634   20915365.1134
   -972956.77947   -756793.76246  21429100.4774   21429102.1884
 02  9 12  0 56 30.0000000  0  7G29G31G 8G10G13G27G28
  -1929129.07245  -1335579.06244  24287317.7814   24287322.7734
   1534722.71846   1165154.40046  22097820.6564   22097824.4304
    -74028.15247    -48456.98647  20317704.6724   20317706.9344
   1667532.19145   1290475.49545  23621652.8674   23621658.4224
   3514057.10746   2719135.13345  23032607.7584   23032612.4694
   1107262.08947    862805.49347  20924764.8444   20924767.2464
   -995168.00547   -774101.12646  21424873.4844   21424874.9024
 02  9 12  0 57  0.0000000  0  7G29G31G 8G10G13G27G28
  -1996350.40645  -1387959.16244  24274525.2194   24274530.8204
   1604915.18746   1219849.84046  22111178.4534   22111182.6724
    -64616.76247    -41123.41347  20319495.6174   20319497.5274
   1740035.82545   1346971.78445  23635451.0164   23635457.6374
   3647057.00846   2822771.27445  23057916.6564   23057921.2624
   1157271.42547    901773.81547  20934281.7894   20934283.8284
  -1016704.69247   -790882.86646  21420774.9304   21420776.4064
 02  9 12  0 57 30.0000000  0  7G29G31G 8G10G13G27G28
  -2063094.95445  -1439967.77243  24261824.4304   24261830.2544
   1676011.10046   1275249.25446  22124707.1884   22124711.2544
    -54600.10447    -33318.20547  20321401.6174   20321403.4804
   1813309.09445   1404067.75444  23649393.9064   23649400.2704
   3780604.10046   2926833.79245  23083330.8914   23083334.5354
   1207868.74347    941200.30847  20943910.3444   20943912.2774
  -1037581.20647   -807150.20346  21416802.3364   21416803.6484
 02  9 12  0 58  0.0000000  0  7G29G31G 8G10G13G27G28
  -2129363.98545  -1491605.81643  24249213.6724   24249219.5204
   1748005.10546   1331348.48645  22138406.9774   22138410.5984
    -43981.20147    -25043.70947  20323422.4774   20323424.4694
   1887345.95845   1461758.72944  23663483.6334   23663489.0474
   3914692.52646   3031318.10745  23108847.2344   23108851.7704
   1259050.65747    981082.32047  20953649.5864   20953651.4024
  -1057801.23347   -822905.98146  21412954.6644   21412956.3524
 02  9 12  0 58 30.0000000  0  7G29G31G 8G10G13G27G28
  -2195167.04845  -1542880.78944  24236691.6254   24236697.2734
   1820883.80146   1388137.06646  22152276.2114   22152279.7854
    -32771.31647    -16308.71547  20325555.3674   20325557.4184
   1962132.14345   1520033.60144  23677714.4534   23677720.3594
   4049308.16846   3136213.25145  23134464.0634   23134468.6334
   1310805.95147   1021411.12147  20963498.5084   20963500.3364
  -1077376.61047   -838159.44146  21409229.8754   21409231.2344
 02  9 12  0 59  0.0000000  0  7G29G31G 8G10G13G27G28
  -2260512.05145  -1593798.86743  24224256.4694   24224262.1294
   1894635.46446   1445605.89146  22166310.9774   22166313.9654
    -20979.80147     -7120.50247  20327799.3914   20327801.3714
   2037655.29945   1578882.73144  23692087.2734   23692094.4264
   4184438.30746   3241509.31045  23160177.6094   23160181.6174
   1363124.73547   1062178.99747  20973454.1564   20973456.3834
  -1096317.36947   -852918.39046  21405625.2344   21405626.8524
 02  9 12  0 59 30.0000000  0  7G29G31G 8G10G13G27G28
  -2325405.24144  -1644364.82843  24211906.8834   24211912.7774
   1969249.85946   1503746.97645  22180508.1804   22180510.9454
     -8614.66447      2514.70447  20330151.8204   20330153.7774
   2113904.60245   1638297.68544  23706594.5784   23706600.8484
   4320072.14546   3347197.83145  23185988.9304   23185992.7384
   1415998.97247   1103379.71047  20983516.0784   20983517.8134
  -1114631.94347   -867189.40646  21402140.1564   21402141.5394
 02  9 12  1  0  0.0000000  0  7G29G31G 8G10G13G27G28
  -2389852.37544  -1694583.25143  24199643.0784   24199648.9614
   2044717.36446   1562552.81145  22194870.1254   22194873.1844
      4316.81047     12591.19947  20332613.2584   20332615.0394
   2190869.54145   1698270.31844  23721241.6484   23721247.6604
   4456199.30146   3453270.79245  23211892.4454   23211897.3554
   1469420.89547   1145007.18847  20993681.8984   20993683.7624
  -1132328.15747   -880978.58947  21398772.8914   21398774.1334
 02  9 12  1  0 30.0000000  0  8G29G31G 8G10G13G27G28G23
  -2453857.46545  -1744457.23944  24187463.6954   24187469.3204
   2121029.93246   1622017.16345  22209392.3364   22209396.1454
     17808.86047     23104.50547  20335180.6564   20335182.5554
   2268541.20845   1758793.59244  23736020.7344   23736027.2274
   4592811.18246   3559721.43445  23237889.1254   23237894.4344
   1523384.82747   1187057.00047  21003951.1884   21003953.0634
  -1149412.19247   -894290.73947  21395521.0784   21395522.5904
                                  25104431.0234
 02  9 12  1  1  0.0000000  0  8G29G31G 8G10G13G27G28G23
  -2517425.86944  -1793990.92443  24175366.1804   24175371.2424
   2198178.15446   1682132.65945  22224072.1254   22224075.3954
     31854.65047     34049.30747  20337852.9064   20337854.9454
   2346909.39045   1819859.60044  23750934.5394   23750941.3014
   4729897.96746   3666542.12845  23263976.0944   23263981.1334
   1577883.26247   1229523.31247  21014321.2814   21014323.2734
  -1165891.80647   -907131.92047  21392385.7814   21392387.0704
     -2878.28541                  25103866.5944
 02  9 12  1  1 30.0000000  0  8G29G31G 8G10G13G27G28G23
  -2580556.12045  -1843183.19643  24163354.1564   24163360.0634
   2276159.48346   1742897.32445  22238911.6484   22238915.5634
     46453.68247     45425.20347  20340631.2034   20340633.3014
   2425970.80445   1881465.83645  23765980.8364   23765987.3164
   4867456.30246   3773730.27745  23290152.7814   23290158.1254
   1632915.86047   1272405.85747  21024794.1564   21024796.2304
  -1181767.90247   -919502.82247  21389364.3524   21389365.8284
     -5145.68941                  25103428.6804
 02  9 12  1  2  0.0000000  0  7G29G31G 8G10G13G27G28
  -2643254.31645  -1892038.81544  24151423.3834   24151427.3794
   2354963.81146   1804303.29145  22253908.4614   22253911.8954
     61598.42747     57226.34047  20343513.3984   20343515.1564
   2505714.45745   1943603.66845  23781154.8054   23781161.5314
   5005475.87946   3881277.83945  23316416.5944   23316421.4574
   1688474.72647   1315698.47347  21035366.3364   21035368.3874
  -1197048.81147   -931409.93947  21386456.3984   21386457.9454
 02  9 12  1  2 30.0000000  0  8G29G31G 8G10G13G27G28G23
  -2705521.56445  -1940558.64744  24139573.7894   24139578.3134
   2434585.86246   1866346.43545  22269059.9144   22269062.8914
     77285.84947     69450.32547  20346498.6414   20346500.4224
   2586134.51245   2006268.59544  23796458.6414   23796464.7234
   5143949.97845   3989179.57345  23342767.6094   23342771.8754
   1744556.65047   1359398.66847  21046038.2504   21046040.3594
  -1211738.02347   -942855.99547  21383661.0554   21383662.5784
      -390.86851                  25102974.4454
 02  9 12  1  3  0.0000000  0  7G29G31G 8G10G13G27G28
  -2767366.54145  -1988749.44644  24127805.8594   24127810.6054
   2515012.84446   1929016.81345  22284363.6334   22284367.5354
     93505.75047     82089.23647  20349584.7034   20349587.0354
   2667217.38845   2069449.96544  23811888.3914   23811893.5944
   5282865.59746   4097425.31045  23369203.0314   23369208.1994
   1801151.18747   1403498.29647  21056807.7194   21056809.7704
  -1225846.41747   -953849.46847  21380976.6414   21380978.0474
 02  9 12  1  3 30.0000000  0  7G29G31G 8G10G13G27G28
  -2828791.05745  -2036612.62344  24116117.4144   24116122.1254
   2596238.73046   1992309.71645  22299820.1254   22299823.6884
    110254.60847     95140.31547  20352772.5004   20352774.4104
   2748956.29845   2133142.54444  23827442.2344   23827448.5744
   5422216.29245   4206010.10145  23395720.4224   23395724.2894
   1858254.42747   1447994.32447  21067674.2504   21067676.4414
  -1239378.28847   -964393.70847  21378401.0474   21378402.3594
 02  9 12  1  4  0.0000000  0  7G29G31G 8G10G13G27G28
  -2889794.22145  -2084147.45444  24104509.6094   24104514.2274
   2678260.23846   2056222.58745  22315428.7734   22315433.0984
    127531.65247    108602.97547  20356060.2664   20356061.9534
   2831347.66445   2197343.54044  23843120.3364   23843128.1914
   5561998.38045   4314931.04045  23422319.8284   23422324.8554
   1915865.42647   1492886.00347  21078637.0784   21078639.2464
  -1252335.04447   -974489.79446  21375935.1954   21375936.6604
 02  9 12  1  4 30.0000000  0  7G29G31G 8G10G13G27G28
  -2950379.91145  -2131357.00443  24092979.0474   24092981.9654
   2761069.39746   2120749.18745  22331186.5474   22331190.4144
    145331.28847    122472.84147  20359446.9144   20359448.6844
   2914382.55545   2262045.96144  23858922.1884   23858928.8914
   5702203.12545   4424181.32545  23448998.8364   23449003.1954
   1973978.32547   1538168.78447  21089695.7664   21089697.6884
  -1264722.84947   -984142.55146  21373578.2894   21373579.9774
 02  9 12  1  5  0.0000000  0  7G29G31G 8G10G13G27G28
  -3010547.89745  -2178241.05344  24081528.7504   24081532.6524
   2844662.25246   2185886.48645  22347093.9064   22347097.0474
    163651.89647    136748.66947  20362933.4924   20362935.5904
   2998056.24245   2327246.17544  23874844.2894   23874856.3524
   5842826.37545   4533757.70945  23475760.4774   23475765.0594
   2032591.53447   1583841.40647  21100850.0084   21100851.7774
  -1276543.85147   -993353.64147  21371328.5864   21371329.9454
 02  9 12  1  5 30.0000000  0  7G29G31G 8G10G13G27G28
  -3070299.80145  -2224800.81544  24070159.1564   24070162.1214
   2929032.82646   2251629.78745  22363150.4924   22363153.3984
    182490.45247    151428.08947  20366518.5634   20366520.6954
     47847.08355                  23890888.2194
   5983861.41246   4643654.95845  23502599.2034   23502603.7624
   2091701.32547   1629900.98447  21112098.1024   21112100.3404
  -1287802.08747  -1002126.21047  21369186.5004   21369187.7194
 02  9 12  1  6  0.0000000  0  7G29G31G 8G10G13G27G28
  -3129636.17445  -2271036.87144  24058866.7584   24058870.7424
   3014176.35946   2317975.39345  22379351.8594   22379355.2934
    201844.52347    166509.20547  20370201.2344   20370202.8754
    132779.60045                  23907049.7274
   6125303.19445   4753869.18545  23529513.4614   23529518.9454
   2151305.35847   1676345.67347  21123439.8364   21123442.0394
  -1298500.37647  -1010462.45046  21367149.9774   21367151.5594
 02  9 12  1  6 30.0000000  0  8G29G31G 8G10G13G27G28G23
  -3188560.24645  -2316951.60044  24047653.4064   24047658.4104
   3100085.21646   2384917.36645  22395699.3834   22395702.7584
    221709.21747    181988.21647  20373981.3134   20373982.9304
    218330.41445     46711.94654  23923330.6024   23923336.6604
   6267143.47045   4864393.87544  23556503.9144   23556509.3164
   2211398.22047   1723171.26547  21134875.4454   21134877.6374
  -1308644.59547  -1018366.96246  21365219.6094   21365220.9804
                                  25106450.0004
 02  9 12  1  7  0.0000000  0  8G29G31G 8G10G13G27G28G23
  -3247069.59045  -2362543.19144  24036519.0234   24036522.8554
   3186757.57146   2452454.23945  22412192.0314   22412196.2274
    242085.25747    197865.67547  20377858.7584   20377860.4454
    304496.99545    113854.69144  23939726.8754   23939733.8634
   6409379.97546   4975227.33445  23583572.0474   23583576.8164
   2271980.41647   1770378.16247  21146404.0234   21146406.1914
  -1318234.75347  -1025839.74246  21363394.6564   21363395.8634
      5195.94041                  25107471.6884
 02  9 12  1  7 30.0000000  0  8G29G31G 8G10G13G27G28G23
  -3305167.05145  -2407813.86645  24025464.0394   24025469.5004
   3274186.19446   2520580.42445  22428829.7814   22428833.0864
    262967.98447    214137.94747  20381832.7664   20381834.4884
    391271.46645    181471.08045  23956238.9694   23956246.1914
   6552005.30245   5086363.81045  23610712.9304   23610717.7584
   2333047.09047   1817962.56847  21158024.7034   21158026.5554
  -1327275.97047  -1032884.77247  21361674.2504   21361675.6804
     11236.31641                  25108621.9694
 02  9 12  1  8  0.0010000  0  8G29G31G 8G10G13G26G27G28
  -3362855.50745  -2452765.76544  24014486.5914   24014492.4854
   3362368.81146   2589294.12945  22445610.6144   22445613.9424
    284355.60747    230803.65247  20385902.8494   20385904.9464
    478650.91645    249558.86645  23972867.2314   23972873.2904
   6695018.94445   5197802.82245  23637927.9504   23637932.4854
                                  24530465.0914
   2394597.52047   1865923.93647  21169737.1774   21169739.3214
  -1335771.78347  -1039504.81247  21360057.6144   21360058.9624
 02  9 12  1  8 30.0010000  0  8G29G31G 8G10G13G26G27G28
  -3420130.21645  -2497395.27044  24003587.9354   24003591.5794
   3451295.98746   2658588.00845  22462532.9744   22462535.9624
    306245.96847    247861.09747  20390068.1614   20390070.1774
    566625.21845    318110.18345  23989608.4354   23989615.1144
   6838406.54445   5309533.26845  23665213.4814   23665218.2864
    -60819.70741                  24518490.0364
   2456626.50347   1914258.20247  21181541.1534   21181543.3334
  -1343723.44047  -1045700.83346  21358544.3104   21358545.5054
 02  9 12  1  9  0.0010000  0  8G29G31G 8G10G13G26G27G28
  -3476993.38345  -2541704.12345  23992767.1924   23992771.6344
   3540966.07646   2728460.76145  22479597.1144   22479600.2204
    328637.65347    265309.18647  20394329.1924   20394330.7514
    655192.37145    387123.49545  24006462.2164   24006469.8374
   6982168.37345   5421555.30345  23692570.9114   23692576.4664
   -123359.07643                  24506591.2164
   2519133.86247   1962965.21647  21193435.4424   21193437.6814
  -1351133.85047  -1051475.10947  21357134.2864   21357135.4814
 02  9 12  1  9 30.0010000  0  8G29G31G 8G10G13G26G27G28
  -3533444.67945  -2585692.01845  23982024.9894   23982028.5994
   3631374.83646   2798909.12845  22496800.4504   22496803.7674
    351529.08447    283146.69047  20398685.1064   20398686.6064
    744347.13545    456594.66245  24023428.4974   24023435.9894
   7126299.85045   5533865.34645  23719999.2004   23720003.9584
   -185512.92643                  24494762.2394
   2582117.71447   2012043.53147  21205421.3334   21205423.2784
  -1358005.28947  -1056829.41547  21355826.7944   21355827.6384
 02  9 12  1 10  0.0010000  0  8G29G31G 8G10G13G26G27G28
  -3589483.09445  -2629358.19245  23971360.8174   23971365.4814
   3722518.87346   2869930.42945  22514145.4894   22514149.2394
    374919.85347    301373.28847  20403135.9194   20403137.7824
    834085.52445    526520.58544  24040504.2394   24040510.9194
   7270797.19745   5646460.50544  23747495.8724   23747502.8254
   -247280.28445                  24483009.2714
   2645577.23247   2061492.49347  21217497.3494   21217499.3994
  -1364339.25647  -1061764.90547  21354620.3804   21354621.5404
 02  9 12  1 10 30.0010000  0  8G29G31G 8G10G13G26G27G28
  -3645109.71845  -2672703.53444  23960774.8104   23960779.3334
   3814392.54646   2941520.28045  22531628.5364   22531631.9934
    398806.89447    319986.58747  20407681.5524   20407683.7434
    924401.26545    596896.38145  24057690.7714   24057697.9814
   7415654.69945   5759336.29244  23775061.4424   23775067.5834
   -308662.18944    -25471.15052  24471327.8494   24471333.0754
   2709509.14147   2111309.55447  21229663.3884   21229665.4504
  -1370139.30547  -1066284.36747  21353517.3334   21353518.4704
 02  9 12  1 11  0.0010000  0  8G29G31G 8G10G13G26G27G28
  -3700326.75645  -2715729.66145  23950267.7864   23950272.1574
   3906989.13146   3013673.42145  22549247.8334   22549251.9704
    423186.21247    338983.47947  20412321.3564   20412323.2904
   1015287.22745    667716.52444  24074985.4814   24074992.1384
   7560865.03645   5872487.03144  23802694.3644   23802699.5324
   -369660.93245    -73002.49442  24459719.1384   24459725.9974
   2773909.42147   2161491.57647  21241917.6854   21241919.8884
  -1375410.18647  -1070391.48447  21352514.5914   21352515.6104
 02  9 12  1 11 30.0010000  0  9G29G31G 8G10G13G26G27G28G23
  -3755133.35245  -2758435.98245  23939839.3564   23939844.2904
   4000305.05846   3086387.10545  22567006.1534   22567010.4074
    448057.19747    358363.49047  20417053.9974   20417055.6034
   1106739.14645    738977.68845  24092388.5364   24092395.4784
   7706424.35945   5985909.66944  23830392.5214   23830397.4314
   -430275.50745   -120234.50843  24448185.0524   24448190.9464
   2838776.74747   2212037.52947  21254261.4814   21254263.6734
  -1380153.47347  -1074087.50547  21351611.7394   21351612.6534
      4244.73251                  25122395.9744
 02  9 12  1 12  0.0010000  0  8G29G31G 8G10G13G26G27G28
  -3809524.98745  -2800818.96445  23929488.1694   23929493.3964
   4094340.38746   3159661.34045  22584900.4354   22584904.0324
    473422.46647    378128.65447  20421880.9584   20421882.5874
   1198756.23945    810679.21045  24109898.5914   24109905.2474
   7852332.53745   6099604.20944  23858157.8884   23858163.8064
   -490501.39945   -167163.70943  24436723.1304   24436730.1304
   2904113.65847   2262949.38847  21266694.7164   21266696.8964
  -1384367.22047  -1077370.89046  21350809.9354   21350810.8024
 02  9 12  1 12 30.0010000  0  9G29G31G 8G10G13G26G27G28G23
  -3863499.10845  -2842876.61645  23919216.7084   23919221.7244
   4189093.07146   3233494.56945  22602931.2944   22602934.6574
    499282.98247    398279.73047  20426801.5364   20426803.6344
   1291335.99045    882819.14745  24127517.3494   24127523.0914
   7998587.33045   6213568.77044  23885988.8644   23885994.4664
   -550335.85645   -213787.83743  24425337.6534   24425342.0134
   2969920.57347   2314227.49347  21279217.5754   21279219.6614
  -1388051.47747  -1080241.67547  21350108.8644   21350109.9314
      1729.20951                  25127099.3884
 02  9 12  1 13  0.0010000  0  8G29G31G 8G10G13G26G27G28
  -3917056.22045  -2884609.32245  23909024.9354   23909027.6424
   4284557.85046   3307882.68645  22621097.8964   22621101.2594
    525636.43347    418814.90447  20431816.3644   20431818.3564
   1384472.48545    955392.95744  24145240.5284   24145247.3604
   8145183.15945   6327799.08844  23913886.0054   23913891.1614
   -609779.69745   -260107.63443  24414025.0444   24414029.9194
   3036194.98447   2365869.87147  21291828.9034   21291831.0604
  -1391209.48147  -1082702.40947  21349507.9814   21349508.9784
 02  9 12  1 13 30.0010000  0  8G29G31G 8G10G13G26G27G28
  -3970193.40945  -2926014.81045  23898913.7244   23898917.3334
   4380733.21846   3382824.50845  22639399.9504   22639402.7044
    552484.06847    439735.15347  20436925.8564   20436927.6614
   1478164.01145   1028399.24144  24163068.8494   24163076.3064
   8292118.57845   6442294.02544  23941847.6224   23941853.0134
   -668829.83445   -306120.63243  24402789.5524   24402794.7204
   3102937.91047   2417877.33147  21304530.4584   21304532.6964
  -1393840.52647  -1084752.52147  21349006.8024   21349008.0794
 02  9 12  1 14  0.0010000  0  8G29G31G 8G10G13G26G27G28
  -4022907.50145  -2967090.59445  23888882.0284   23888885.7554
   4477617.49646   3458318.70945  22657836.0994   22657839.7084
    579826.87447    461041.25647  20442128.4354   20442130.0634
   1572407.97245   1101835.99743  24181002.9664   24181010.3764
   8439391.46945   6557051.97844  23969872.8644   23969877.8564
   -727483.13145   -351824.45443  24391626.7634   24391632.6344
   3170150.16447   2470250.50247  21317319.7394   21317321.9664
  -1395944.57247  -1086391.98847  21348606.5674   21348607.7744
 02  9 12  1 14 30.0010000  0  8G29G31G 8G10G13G26G27G28
  -4075203.74945  -3007840.81545  23878929.3724   23878933.4744
   4575200.92946   3534357.72345  22676405.5674   22676409.2474
    607658.16447    482727.98447  20447424.3024   20447426.0244
   1667194.10945   1175695.21344  24199041.1144   24199049.2864
   8586992.04545   6672065.21644  23997960.2554   23997964.9894
   -785744.78745   -397223.03943  24380539.8254   24380544.8414
   3237824.74647   2522983.93047  21330197.9814   21330200.1734
  -1397529.10247  -1087626.63747  21348305.1854   21348306.3214
 02  9 12  1 15  0.0010000  0  8G29G31G 8G10G13G26G27G28
  -4127088.10145  -3048270.05045  23869057.2244   23869061.6184
   4673473.13246   3610933.43645  22695105.6064   22695109.6034
    635970.31947    504789.43047  20452812.4894   20452814.4584
   1762511.21545   1249968.16343  24217177.9664   24217186.1964
   8734909.36045   6787325.29744  24026108.1534   24026113.8024
   -843620.52545   -442321.00243  24369526.9114   24369530.9424
   3305953.74347   2576071.44547  21343163.1534   21343165.0754
  -1398602.50647  -1088463.00047  21348100.4894   21348101.3564
 02  9 12  1 15 30.0010000  0  8G29G31G 8G10G13G26G27G28
  -4178549.70945  -3088369.89145  23859264.0834   23859268.8534
   4772439.93146   3688050.38945  22713938.5604   22713942.5444
    664772.25647    527232.51647  20458293.0364   20458295.1104
   1858364.66945   1324659.07343  24235420.7314   24235426.7084
   8883149.58245   6902836.97044  24054318.1924   24054322.2244
   -901099.72544   -487109.89042  24358588.4424   24358595.3374
   3374545.54347   2629519.58647  21356215.5134   21356217.5284
  -1399156.74247  -1088894.82347  21347995.0444   21347996.2984
 02  9 12  1 16  0.0010000  0  9G29G31G 8G10G13G26G27G28G 7
  -4229582.04345  -3128135.23245  23849552.9424   23849557.2204
   4872103.40446   3765710.20145  22732903.7784   22732908.0564
    694069.15747    550061.28147  20463868.3564   20463870.3254
   1954756.02845   1399769.11843  24253761.8724   24253769.0134
   9031714.44045   7018601.61444  24082589.0674   24082595.3494
   -958175.69444   -531584.60742  24347727.0524   24347730.2634
   3443604.86847   2683332.03047  21369356.7474   21369358.8564
  -1399187.79047  -1088918.96647  21347989.2784   21347990.4504
                                  24450031.4034
 02  9 12  1 16 30.0010000  0  9G29G31G 8G10G13G26G27G28G 7
  -4280187.98245  -3167568.31145  23839922.4274   23839927.6534
   4972455.88846   3843906.90145  22752000.2244   22752004.5014
    723856.09147    573271.89847  20469536.4034   20469538.2904
   2051677.09344   1475292.00542  24272204.7084   24272211.4114
   9180595.88545   7134612.93944  24110920.7084   24110926.2634
  -1014851.20744   -575747.23842  24336942.9034   24336947.1924
   3513126.78947   2737504.93847  21382586.4194   21382588.6344
  -1398701.17547  -1088539.74447  21348081.7004   21348082.6734
    -63810.58045                  24437468.3414
 02  9 12  1 17  0.0010000  0  9G29G31G 8G10G13G26G27G28G 7
  -4330364.69645  -3206666.94045  23830374.6464   23830379.1224
   5073495.40046   3922638.94745  22771228.2554   22771231.3494
    754133.96747    596865.06947  20475298.0284   20475299.8104
   2149125.42445   1551225.66642  24290748.5054   24290755.4584
   9329792.31345   7250869.73744  24139311.4814   24139317.0834
  -1071123.68444   -619595.86642  24326233.6614   24326239.5214
   3583111.72047   2792038.63647  21395903.8104   21395905.8134
  -1397696.89047  -1087757.13847  21348273.1384   21348274.2634
   -129603.56644     -1705.36353  24424948.8104   24424961.1774
 02  9 12  1 17 30.0010000  0  9G29G31G 8G10G13G26G27G28G 7
  -4380113.45545  -3245432.11045  23820908.3174   23820911.4934
   5175216.05646   4001901.76345  22790584.7944   22790588.9894
    784900.02047    620838.63047  20481152.6774   20481154.2124
   2247094.52843   1627565.11642  24309392.6224   24309399.8684
   9479297.26745   7367366.89444  24167760.8964   24167766.4274
  -1126994.10544   -663131.19542  24315602.3724   24315607.1184
   3653556.54947   2846930.69547  21409309.1464   21409311.3604
  -1396178.84047  -1086574.19647  21348561.3174   21348562.3964
   -195174.37543    -52798.99742  24412470.2634   24412479.2554
 02  9 12  1 18  0.0010000  0  9G29G31G 8G10G13G26G27G28G 7
  -4429429.37445  -3283860.00645  23811523.3494   23811527.0994
   5277617.74046   4081695.23845  22810070.7554   22810074.2004
    816157.10847    645194.80747  20487100.6144   20487102.5134
   2345583.74944   1704309.84743  24328133.9814   24328142.5054
   9629110.86945   7484104.56743  24196269.2864   24196274.4664
  -1182457.71244   -706349.52643  24305048.8024   24305053.8534
   3724464.19847   2902183.38946  21422802.4354   21422804.6614
  -1394144.74447  -1084989.13747  21348948.7714   21348949.9424
   -260518.15843   -103715.81842  24400035.0284   24400048.4624
 02  9 12  1 18 30.0010000  0  9G29G31G 8G10G13G26G27G28G 7
  -4478310.98145  -3321949.46645  23802220.9974   23802223.5754
   5380697.49546   4162017.08445  22829686.1144   22829689.9114
    847905.36747    669933.72547  20493141.8414   20493144.0094
   2444589.34844   1781456.92043  24346975.2944   24346983.3724
   9779229.85545   7601080.22444  24224835.6854   24224842.6734
  -1237512.90145   -749249.55143  24294572.7864   24294575.9384
   3795833.89847   2957796.12146  21436383.2084   21436385.3884
  -1391595.63847  -1083002.76547  21349434.1064   21349435.3134
   -325633.45642   -154454.48642  24387642.6774   24387655.8644
 02  9 12  1 19  0.0010000  0  9G29G31G 8G10G13G26G27G28G 7
  -4526760.02145  -3359701.85745  23793000.9114   23793004.5564
   5484448.41446   4242861.89745  22849429.4274   22849433.4464
    880140.60147    695052.10747  20499276.5754   20499278.6614
   2544104.23043   1859000.84543  24365909.3334   24365915.2394
   9929647.31345   7718288.43044  24253459.7784   24253466.1064
  -1292161.52845   -791832.79643  24284172.4274   24284176.9154
   3867661.54847   3013765.70747  21450052.4664   21450054.7284
  -1388536.34447  -1080618.86047  21350016.1144   21350017.4034
   -390522.38643   -205016.81942  24375296.3494   24375308.3294
 02  9 12  1 19 30.0010000  0  9G29G31G 8G10G13G26G27G28G 7
  -4574776.61245  -3397117.28245  23783864.3334   23783868.2824
   5588865.78446   4324226.05445  22869299.6304   22869303.9314
    912861.52347    720548.93447  20505503.1614   20505504.8494
   2644123.01145   1936937.43644  24384945.9814   24384953.8134
  10080358.87445   7835725.78743  24282139.5674   24282145.7904
  -1346403.41545   -834099.16043  24273850.9664   24273855.3494
   3939945.46047   3070090.80946  21463807.3494   21463809.4114
  -1384969.41847  -1077839.39347  21350694.6534   21350695.7084
   -455185.00843   -255402.73443  24362990.2314   24362998.2864
 02  9 12  1 20  0.0010000  0  9G29G31G 8G10G13G26G27G28G 7
  -4622355.82145  -3434191.87845  23774809.9034   23774813.6184
   5693949.77346   4406109.63145  22889296.1384   22889300.1924
    946071.39947    746426.77147  20511822.7394   20511824.1464
   2744645.44345   2015266.46044  24404073.8494   24404081.1774
  10231364.24245   7953392.05843  24310875.6774   24310881.2204
  -1400233.56845   -876044.61143  24263607.2084   24263612.6344
   4012688.31747   3126773.54246  21477649.6924   21477651.9074
  -1380892.52847  -1074662.53947  21351470.5674   21351471.6104
   -519616.34545   -305608.51644  24350729.5524   24350740.7004
 02  9 12  1 20 30.0010000  0  9G29G31G 8G10G13G26G27G28G 7
  -4669495.50045  -3470924.04545  23765839.3644   23765843.3024
   5799697.52746   4488510.43245  22909419.4354   22909423.1734
    979770.04147    772685.46247  20518235.0674   20518236.9424
   2845668.15645   2093985.37045  24423298.0364   24423304.9544
  10382660.61945   8071285.16143  24339667.0914   24339673.3374
  -1453649.98145   -917667.67443  24253441.5674   24253445.8924
   4085889.76047   3183813.60146  21491579.4354   21491582.1304
  -1376306.55747  -1071089.01447  21352343.3024   21352344.2394
   -583814.60345   -355632.63245  24338512.8254   24338522.9544
 02  9 12  1 21  0.0010000  0  9G29G31G 8G10G13G26G27G28G 7
  -4716195.36746  -3507313.45445  23756953.4194   23756957.9314
   5906104.49346   4571424.91845  22929667.6384   22929672.2204
   1013956.32747    799324.14147  20524740.6924   20524742.7784
   2947185.74945   2173089.89645  24442616.3414   24442624.1034
  10534243.27545   8189401.32143  24368511.8564   24368517.4464
  -1506652.24745   -958968.05843  24243356.6224   24243361.1344
   4159548.09947   3241209.69246  21505596.7784   21505599.1344
  -1371213.71047  -1067120.51247  21353311.9354   21353312.8844
   -647779.60945   -405475.01245  24326340.3964   24326350.2784
 02  9 12  1 21 30.0010000  0  9G29G31G 8G10G13G26G27G28G 7
  -4762452.58846  -3543357.94745  23748150.8024   23748154.3644
   6013168.74146   4654851.55545  22950042.1774   22950046.0324
   1048631.04947    826343.42047  20531339.2634   20531341.5604
   3049196.04245   2252578.27344  24462027.6694   24462033.7744
  10686110.56245   8307739.26143  24397410.9194   24397417.1884
  -1559237.60445   -999943.59243  24233348.5284   24233354.6574
   4233664.21647   3298962.48646  21519699.9034   21519702.3294
  -1365613.98547  -1062757.04747  21354377.4354   21354378.3604
   -711508.54645   -455133.46344  24314212.7554   24314223.3644
 02  9 12  1 22  0.0010000  0  9G29G31G 8G10G13G26G27G28G 7
  -4808264.58346  -3579055.52145  23739431.7714   23739435.7314
   6120887.74746   4738788.39545  22970540.1854   22970543.5714
   1083795.30147    853744.14747  20538031.0834   20538032.9584
   3151696.02445   2332448.24744  24481533.2944   24481539.8684
  10838260.00745   8426297.06243  24426365.0914   24426371.3374
  -1611403.40545  -1040592.09244  24223421.5834   24223426.2474
   4308238.43647   3357072.24846  21533891.2084   21533893.5874
  -1359507.58947  -1057998.76947  21355540.0134   21355541.0324
   -774999.07245   -504606.11545  24302129.6774   24302139.5954
 02  9 12  1 22 30.0010000  0  9G29G31G 8G10G13G26G27G28G 7
  -4853636.82846  -3614410.42145  23730798.6304   23730803.0134
   6229251.47046   4823227.61445  22991160.8964   22991165.1384
   1119441.71647    881520.59147  20544814.0524   20544815.6464
   3254675.11145   2412691.59145  24501129.1774   24501135.8214
  10990681.41245   8545066.78643  24455369.8644   24455376.3104
  -1663154.92044  -1080917.84943  24213572.7554   24213578.6734
   4383263.32547   3415533.17746  21548167.8644   21548170.3374
  -1352902.46847  -1052851.88347  21356797.0284   21356797.8024
   -838256.59645   -553897.21544  24290092.0364   24290100.9354
 02  9 12  1 23  0.0010000  0  9G29G31G 8G10G13G26G27G28G 7
  -4898564.48645  -3649418.89445  23722248.2784   23722252.2634
   6338259.42246   4908168.81445  23011904.9744   23011908.1384
   1155573.37547    909675.14147  20551689.5444   20551691.0094
   3358132.32845   2493307.49245  24520816.4274   24520824.4114
  11143374.47845   8664048.18743  24484426.4034   24484432.3804
  -1714487.61744  -1120917.26943  24203804.3644   24203809.8494
   4458741.33147   3474347.19146  21562530.7164   21562533.3884
  -1345796.89847  -1047315.02947  21358149.2474   21358150.2784
   -901276.62145   -603003.25243  24278100.4354   24278110.0364
 02  9 12  1 23 30.0010000  0  9G29G31G 8G10G13G26G27G28G 7
  -4943043.25546  -3684077.58845  23713784.4504   23713788.0484
   6447911.18746   4993611.70945  23032770.3024   23032774.8024
   1192192.50947    938209.54847  20558657.8174   20558659.8564
   3462066.86745   2574295.27745  24540594.7634   24540602.4544
  11296338.85445   8783241.04643  24513534.9114   24513540.3604
  -1765396.90045  -1160586.72343  24194117.1304   24194121.5604
   4534674.64447   3533515.97946  21576980.6534   21576982.9504
  -1338189.11747  -1041386.84747  21359596.2314   21359597.2044
   -964054.96144   -651920.96144  24266152.1694   24266161.4194
 02  9 12  1 24  0.0010000  0  9G29G31G 8G10G13G26G27G28G 7
  -4987072.66046  -3718386.12845  23705406.1064   23705409.3644
   6558202.39346   5079552.84945  23053759.3724   23053763.1464
   1229298.21447    967123.09747  20565718.7084   20565720.6774
   3566473.87145   2655651.29444  24560463.8494   24560470.6924
  11449570.09944   8902641.80743  24542692.4114   24542699.6104
  -1815882.22345  -1199925.82144  24184510.9584   24184515.5174
   4611061.71647   3593038.34646  21591516.6464   21591519.1184
  -1330081.37547  -1035069.08247  21361139.3024   21361140.1574
  -1026591.07344   -700649.99543  24254252.4584   24254262.5994
 02  9 12  1 24 30.0010000  0  9G29G31G 8G10G13G26G27G28G 7
  -5030653.30445  -3752344.95945  23697112.1924   23697116.1064
   6669127.39646   5165987.88445  23074867.4114   23074871.9354
   1266888.02447    996413.87147  20572871.6384   20572873.8174
   3671347.24145   2737370.64644  24580420.5284   24580429.2514
  11603062.53344   9022246.05142  24571902.1384   24571907.1064
  -1865944.23545  -1238935.06143  24174984.4504   24174987.9894
   4687899.79147   3652912.14946  21606138.4114   21606140.8374
  -1321477.03647  -1028364.36947  21362776.5994   21362777.1264
  -1088885.78545   -749190.84544  24242398.4584   24242408.6344
 02  9 12  1 25  0.0010000  0  9G29G31G 8G10G13G26G27G28G 7
  -5073778.46946  -3785948.91045  23688906.5134   23688909.4424
   6780687.89046   5252918.10745  23096096.0674   23096100.2514
   1304966.64347   1026085.53247  20580118.0834   20580120.0874
   3776687.95145   2819454.15544  24600465.7554   24600472.8844
  11756818.39643   9142055.64541  24601161.5994   24601171.7514
  -1915576.18844  -1277609.18343  24165537.8964   24165541.9504
   4765193.26247   3713140.80646  21620846.9664   21620848.9814
  -1312372.37647  -1021269.78947  21364509.5364   21364510.5324
  -1150932.30444   -797538.37243  24230589.4974   24230600.0954
 02  9 12  1 25 30.0010000  0  9G29G31G 8G10G13G26G27G28G 7
  -5116454.07946  -3819202.52745  23680786.0524   23680788.7824
   6892872.86246   5340334.92545  23117444.2164   23117448.5754
   1343526.41847   1056132.12447  20587455.8884   20587457.7394
   3882485.01845   2901893.32744  24620598.7084   24620607.2084
  11910826.57242   9262061.79241  24630467.8884   24630471.6964
  -1964783.93745  -1315952.77144  24156175.2394   24156179.4464
   4842934.10547   3773718.05746  21635640.4814   21635642.3804
  -1302776.13947  -1013792.16147  21366335.3724   21366336.2514
  -1212736.97545   -845697.43944  24218828.8564   24218838.8334
 02  9 12  1 26  0.0010000  0  9G29G31G 8G10G13G26G27G28G 7
  -5158669.87545  -3852097.85245  23672750.7004   23672754.6614
   7005687.80946   5428242.64145  23138912.0674   23138916.2864
   1382575.86247   1086560.28147  20594886.3564   20594888.3374
   3988743.14845   2984691.70044  24640818.4114   24640826.9464
  12065092.64041   9382268.96141  24659825.6384   24659836.7984
  -2013557.21845  -1353957.80944  24146893.6614   24146897.0014
   4921130.46747   3834650.26446  21650521.0604   21650523.1814
  -1292680.57047  -1005925.44146  21368256.5284   21368257.2674
  -1274289.42245   -893659.95544  24207116.0054   24207125.9704
 02  9 12  1 26 30.0010000  0  9G29G31G 8G10G13G26G27G28G 7
  -5200432.02846  -3884639.68645  23664805.6464   23664809.2554
   7119121.59446   5516632.53845  23160499.1224   23160503.0834
   1422107.21247   1117363.94347  20602409.3644   20602411.1224
   4095450.68144   3067840.31043  24661123.6854   24661131.1534
  12219605.77841                  24689229.6304
  -2061902.00045  -1391628.98044  24137694.6304   24137698.6614
   4999774.02247   3895930.93046  21665486.5284   21665488.6964
  -1282094.65647   -997676.63946  21370271.1534   21370271.5754
  -1335595.94745   -941430.84844  24195449.4274   24195458.8644
 02  9 12  1 27  0.0010000  0  8G29G31G 8G10G26G27G28G 7
  -5241734.49846  -3916823.34145  23656946.3964   23656950.3214
   7233175.01846   5605505.29945  23182202.4274   23182205.7204
   1462124.36947   1148546.14947  20610023.8964   20610025.7944
   4202608.20244   3151339.53643  24681515.5524   24681523.4664
  -2109812.43045  -1428961.68343  24128577.1694   24128580.9074
   5078868.63747   3957563.07646  21680537.5674   21680539.9354
  -1271015.41547   -989043.43146  21372379.1534   21372379.7394
  -1396650.76745   -989005.67344  24183831.0674   24183839.1104
 02  9 12  1 27 30.0010000  0  8G29G31G 8G10G26G27G28G 7
  -5282574.38046  -3948646.55145  23649174.0754   23649177.4034
   7347846.14246   5694859.39045  23204023.2714   23204027.6184
   1502628.76447   1180108.03047  20617731.9424   20617733.8994
   4310213.07344   3235187.33343  24701991.4114   24701999.8064
  -2157285.37345  -1465953.55243  24119542.3804   24119547.3844
   5158414.95847   4019547.19746  21695674.4354   21695677.2824
  -1259442.47747   -980025.50546  21374581.5134   21374582.1464
  -1457450.93345  -1036382.02944  24172261.9354   24172269.6264
 02  9 12  1 28  0.0020000  0  8G29G31G 8G10G26G27G28G 7
  -5322953.00445  -3980110.31045  23641488.4324   23641492.0644
   7463133.86346   5784693.91145  23225961.4714   23225966.1234
   1543619.90247   1212049.18547  20625532.5644   20625534.5334
   4418263.56644   3319382.34842  24722554.3144   24722561.0884
  -2204322.12645  -1502605.44444  24110591.5804   24110597.0764
   5238413.68147   4081883.83946  21710898.1744   21710900.7644
  -1247378.37847   -970624.87246  21376877.1504   21376877.6544
  -1517998.48945  -1083561.62144  24160738.8694   24160746.1624
 02  9 12  1 28 30.0020000  0  8G29G31G 8G10G26G27G28G 7
  -5362866.85945  -4011211.91445  23633893.8224   23633898.5684
   7579026.12046   5874999.52045  23248016.1114   23248019.4044
   1585094.08547   1244366.74447  20633424.0184   20633426.2794
   4526747.86144   3403915.42942  24743198.8544   24743205.9824
  -2250918.83445  -1538914.50044  24101724.7524   24101730.3074
   5318857.90547   4144567.62646  21726205.7914   21726208.2404
  -1234825.80747   -960843.61846  21379265.4164   21379266.2484
  -1578288.70845  -1130540.65044  24149265.4164   24149273.2714
 02  9 12  1 29  0.0020000  0  8G29G31G 8G10G26G27G28G 7
  -5402314.26046  -4041950.08545  23626387.5804   23626391.1544
   7695524.60346   5965777.52945  23270183.9394   23270188.4754
   1627053.62847   1277062.50547  20641409.1974   20641411.2714
   4635667.00244   3488787.36842  24763924.5254   24763931.9474
  -2297074.37245  -1574879.76744  24092942.2294   24092946.6004
   5399751.02947   4207601.21246  21741599.4474   21741601.6504
  -1221784.42947   -950681.47546  21381747.6044   21381748.1434
  -1638320.77345  -1177318.57445  24137842.7134   24137850.3814
 02  9 12  1 29 30.0020000  0  8G29G31G 8G10G26G27G28G 7
  -5441294.02145  -4072323.84845  23618969.0024   23618972.4824
   7812625.76946   6057025.14345  23292467.3774   23292472.2054
   1669498.41547   1310136.38447  20649485.6354   20649487.6974
   4745017.02044   3573995.05543  24784732.8304   24784742.3734
  -2342786.90645  -1610499.86544  24084243.0254   24084247.6434
   5481092.45147   4270984.12046  21757079.1504   21757081.3424
  -1208255.51647   -940139.43346  21384322.1274   21384322.7714
  -1698093.52245  -1223894.37245  24126467.5184   24126475.4794
 02  9 12  1 30  0.0020000  0  8G29G31G 8G10G26G27G28G 7
  -5479806.76146  -4102333.70445  23611640.5644   23611644.9594
   7930323.79746   6148737.84645  23314865.2054   23314869.3424
   1712426.00147   1343586.45847  20657654.6194   20657656.4824
   4854791.69743   3659533.63842  24805621.4864   24805624.8964
  -2388057.12645  -1645775.24244  24075628.5964   24075632.7684
   5562879.13847   4334713.98246  21772641.9554   21772643.9244
  -1194242.64847   -929220.28046  21386988.2834   21386989.0334
  -1757607.52645  -1270268.60045  24115141.3224   24115149.8344
 02  9 12  1 30 30.0020000  0  8G29G31G 8G10G26G27G28G 7
  -5517851.87946  -4131979.16545  23604401.9004   23604405.0414
   8048614.31046   6240912.23345  23337374.9324   23337379.0804
   1755834.96447   1377411.64247  20665915.5414   20665917.1114
   4964986.18844   3745399.34742  24826592.6434   24826600.6044
  -2432884.49145  -1680705.56544  24067098.0574   24067104.2324
   5645109.61547   4398789.66546  21788289.9004   21788292.0334
  -1179748.11547   -917925.80446  21389746.3384   21389746.9244
  -1816862.42445  -1316440.88145  24103864.6664   24103872.9674
 02  9 12  1 31  0.0020000  0  8G29G31G 8G10G26G27G28G 7
  -5555423.85946  -4161255.95145  23597251.7914   23597255.4124
   8167497.45746   6333548.41745  23359997.1894   23360001.2684
   1799728.83147   1411614.66347  20674268.1114   20674269.9284
   5075599.99243   3831591.77541  24847641.6044   24847649.4714
  -2477263.52445  -1715286.57944  24058652.9394   24058658.2834
   5727786.86647   4463213.47546  21804022.6664   21804025.1274
  -1164769.41047   -906254.05146  21392596.8694   21392597.5144
  -1875853.00145  -1362407.21145  24092640.1114   24092648.5644
 02  9 12  1 31 30.0020000  0  8G29G31G 8G10G26G27G28G 7
  -5592518.65946  -4190160.92745  23590192.1744   23590195.7014
   8286972.47046   6426645.79645  23382732.8774   23382736.2994
   1844110.37047   1446197.68447  20682713.8384   20682715.8184
   5186632.11644   3918110.12842  24868772.5254   24868779.9124
  -2521189.92145  -1749514.81244  24050293.4084   24050298.5884
   5810913.07947   4527987.11846  21819841.3304   21819843.8034
  -1149305.08847   -894203.90446  21395540.1114   21395540.5214
  -1934574.98445  -1408164.24545  24081466.2914   24081473.6664
 02  9 12  1 32  0.0020000  0  8G29G31G 8G10G26G27G28G 7
  -5629136.23746  -4218694.04245  23583223.8774   23583227.8144
   8407034.11246   6520200.29545  23405580.1274   23405584.3464
   1888977.28847   1481158.92847  20691251.6194   20691253.7174
   5298077.04544   4004950.18542  24889977.8304   24889985.9204
  -2564663.63145  -1783390.34644  24042021.2604   24042024.4594
   5894485.86547   4593108.75146  21835744.5254   21835746.9514
  -1133358.12647   -881777.67746  21398574.2364   21398574.9984
  -1993028.67745  -1453712.23645  24070341.1194   24070349.2324
 02  9 12  1 32 30.0020000  0  8G29G31G 8G10G26G27G28G 7
  -5665276.58546  -4246855.30545  23576347.1194   23576350.6354
   8527677.21746   6614207.84645  23428538.3304   23428543.5214
   1934327.92847   1516497.09747  20699881.7834   20699883.8114
   5409929.14943   4092107.48843  24911262.0964   24911269.6464
  -2607684.73245  -1816913.12844  24033833.8304   24033837.8614
   5978502.94547   4658576.57746  21851733.2134   21851735.2754
  -1116931.49647   -868977.67246  21401700.1354   21401701.1074
  -2051213.99145  -1499051.10545  24059269.6974   24059277.1664
 02  9 12  1 33  0.0020000  0  8G29G31G 8G10G26G27G28G 7
  -5700939.82546  -4274644.78345  23569560.9864   23569563.8694
   8648896.87145   6708664.67545  23451604.3074   23451608.3144
   1980160.47847   1552210.77847  20708603.2444   20708604.9434
   5522183.00144   4179577.86842  24932625.2524   24932632.9674
  -2650253.05645  -1850083.13845  24025734.3384   24025737.7954
   6062962.29847   4724389.04046  21867804.9714   21867807.0924
  -1100027.81647   -855805.95046  21404916.2994   21404917.0254
  -2109131.07645  -1544180.99145  24048247.6044   24048255.6114
 02  9 12  1 33 30.0020000  0  8G29G31G 8G10G26G27G28G 7
  -5736121.86746  -4302059.30445  23562865.5494   23562869.6044
   8770691.91945   6803569.85945  23474781.8934   23474785.7364
   2026477.54647   1588302.01447  20717417.2364   20717418.9474
   5634837.20843   4267360.20242  24954061.3544   24954069.1154
  -2692364.49945  -1882897.12044  24017719.7914   24017725.0414
   6147865.78647   4790547.57646  21883961.3934   21883963.7254
  -1082645.89047   -842261.56746  21408224.1894   21408224.7294
  -2166775.97345  -1589098.77645  24037277.1824   24037283.9794
 02  9 12  1 34  0.0020000  0  8G29G31G 8G10G26G27G28G 7
  -5770821.89346  -4329098.24945  23556262.7134   23556267.0494
   8893057.89346   6898919.89345  23498067.6504   23498071.9864
   2073277.66347   1624769.63647  20726322.6894   20726324.1894
   5747886.84943   4355450.67242  24975573.2834   24975582.4284
  -2734018.18145  -1915354.45445  24009793.1824   24009797.5764
   6233211.84747   4857050.97546  21900201.3144   21900203.6114
  -1064788.20047   -828346.45846  21411622.5494   21411623.2524
  -2224148.01145  -1633803.94145  24026360.4794   24026367.8774
 02  9 12  1 34 30.0020000  0  8G29G31G 8G10G26G27G28G 7
  -5805043.12546  -4355764.07645  23549749.3464   23549753.6584
   9015986.66246   6994708.48345  23521460.7134   23521464.5804
   2120556.10047   1661609.97947  20735319.5184   20735320.8774
   5861323.53444   4443842.75142  24997161.8074   24997170.5764
  -2775217.23245  -1947457.48844  24001953.3074   24001957.9244
   6318995.10047   4923895.04146  21916526.1824   21916528.6894
  -1046460.40847   -814065.03946  21415110.6504   21415111.4364
  -2281250.38245  -1678298.98645  24015492.8304   24015500.9434
 02  9 12  1 35  0.0020000  0  8G29G31G 8G10G26G27G28G 7
  -5838778.23246  -4382051.12645  23543330.6744   23543334.0844
   9139480.48546   7090937.41745  23544960.0104   23544963.6194
   2168318.46547   1698827.40647  20744408.4004   20744410.1464
   5975149.12543   4532537.79242  25018819.5804   25018828.5374
  -2815954.22245  -1979200.46844  23994201.2364   23994205.1394
   6405220.76147   4991083.84046  21932934.3304   21932936.5214
  -1027657.98447   -799413.77246  21418688.3384   21418689.1704
  -2338075.81045  -1722578.20945  24004678.7604   24004686.1824
 02  9 12  1 35 30.0020000  0  9G29G31G 8G10G23G26G27G28G 7
  -5872023.59246  -4407956.55745  23537004.7364   23537007.8654
   9263537.40845   7187605.08345  23568566.9944   23568571.4124
   2216566.02647   1736422.91347  20753589.6824   20753591.5454
   6089361.22344   4621534.10443  25040555.7294   25040564.1114
     32323.74651                  25371141.7294
  -2856225.74145  -2010580.79244  23986537.7524   23986542.2054
   6491889.99647   5058618.27846  21949427.0024   21949429.5574
  -1008380.46847   -784392.29846  21422356.7754   21422357.3614
  -2394620.99845  -1766639.10245  23993919.2444   23993926.6194
 02  9 12  1 36  0.0020000  0  9G29G31G 8G10G23G26G27G28G 7
  -5904782.75946  -4433483.15145  23530770.1894   23530773.7054
   9388149.10446   7284705.02945  23592280.7604   23592284.9904
   2265294.14147   1774392.86547  20762862.5964   20762864.6354
   6203951.11044   4710824.69142  25062361.6584   25062371.3774
     75026.97041                  25379268.7914
  -2896035.00445  -2041600.87545  23978963.1824   23978968.5844
   6578997.12747   5126493.93446  21966003.1354   21966005.5614
   -988634.32947   -769005.67546  21426113.7444   21426114.6234
  -2450889.28045  -1810484.20845  23983210.7134   23983217.7834
 02  9 12  1 36 30.0020000  0  8G29G31G 8G10G26G27G28G 7
  -5937054.29146  -4458629.75545  23524628.7524   23524632.2794
   9513311.79145   7382234.35045  23616097.7994   23616102.6624
   2314502.07347   1812736.71347  20772226.7294   20772228.6974
   6318914.73744   4800406.60543  25084238.8544   25084248.6784
  -2935380.45845  -2072259.58745  23971476.2754   23971479.6274
   6666541.40047   5194710.20846  21982662.2914   21982665.0804
   -968420.91247   -753254.93447  21429960.6504   21429961.4004
  -2506879.48845  -1854112.64345  23972555.9084   23972563.4004
 02  9 12  1 37  0.0020000  0  8G29G31G 8G10G26G27G28G 7
  -5968827.29546  -4483387.86945  23518583.1114   23518586.2404
   9639031.36446   7480197.58645  23640022.7444   23640027.0454
   2364199.13647   1851461.68847  20781683.3074   20781685.0184
     19245.54353                  25106185.4084
  -2974251.10045  -2102548.32045  23964078.8614   23964082.4474
   6754531.58147   5263273.93846  21999406.2994   21999409.0764
   -947732.14147   -737133.78746  21433897.5024   21433898.2754
  -2562580.45545  -1897515.70445  23961957.0334   23961963.8424
 02  9 12  1 37 30.0020000  0  8G29G31G 8G10G26G27G28G 7
  -6000105.74046  -4507760.63345  23512631.8544   23512635.2644
   9765298.46946   7578587.49445  23664050.1894   23664054.4084
   2414379.44147   1890563.21447  20791232.3774   20791234.1464
    134958.01444                  25128208.2994
  -3012651.14245  -2132470.34445  23956770.2604   23956774.2564
   6842961.23347   5332180.12446  22016233.7294   22016236.0964
   -926575.00747   -720647.68246  21437923.4324   21437924.0644
  -2617996.59945  -1940696.80945  23951410.5104   23951418.7404
 02  9 12  1 38  0.0020000  0  8G29G31G 8G10G26G27G28G 7
  -6030893.32946  -4531750.89945  23506772.7444   23506775.9904
   9892104.28245   7677397.16945  23688179.8144   23688184.2324
   2465037.54347   1930037.06147  20800871.7994   20800873.3934
    251030.98144        -3.48352  25150294.1504   25150303.1894
  -3050583.94645  -2162028.29545  23949552.8464   23949556.7604
   6931824.48847   5401424.18146  22033143.6504   22033145.5374
   -904956.08247   -703801.73446  21442037.4864   21442038.1894
  -2673131.63745  -1983658.89545  23940919.0804   23940926.3854
 02  9 12  1 38 30.0020000  0  7G29G31G 8G26G27G28G 7
  -6061187.05946  -4555356.35345  23501007.6274   23501011.0144
  10019446.70245   7776624.98545  23712411.5184   23712416.8854
   2516174.63247   1969884.13247  20810603.4794   20810605.1664
  -3088046.49445  -2191219.78845  23942423.8074   23942427.9794
   7021122.28947   5471006.84946  22050136.8934   22050139.1544
   -882875.01447   -686595.68547  21446239.2684   21446239.7014
  -2727982.49845  -2026399.50345  23930480.7684   23930488.8574
 02  9 12  1 39  0.0020000  0  8G29G31G 8G10G26G27G28G 7
  -6090981.11446  -4578572.44145  23495337.0644   23495340.2174
  10147326.32745   7876271.39745  23736747.0724   23736752.1004
   2567794.70347   2010107.56647  20820425.9164   20820427.5334
     19485.26754                  25194676.7444
  -3125032.87345  -2220040.28645  23935385.3614   23935389.4754
   7110858.19947   5540930.89246  22067213.4244   22067216.2484
   -860329.12047   -669027.43246  21450529.9794   21450530.6354
  -2782543.44845  -2068914.26445  23920097.6744   23920105.5414
 02  9 12  1 39 30.0020000  0  8G29G31G 8G10G26G27G28G 7
  -6120276.59246  -4601400.01245  23489763.5254   23489766.8424
  10275737.09045   7976331.65945  23761183.8224   23761188.8734
   2619895.09947   2050705.27847  20830340.5414   20830342.2874
    136626.36743                  25216966.0964
  -3161543.96545  -2248490.41645  23928438.2754   23928441.5684
   7201028.80447   5611193.65746  22084371.5334   22084374.4284
   -837322.14047   -651099.89046  21454907.8384   21454908.5184
  -2836815.62045  -2111203.99945  23909770.1584   23909776.7094
 02  9 12  1 40  0.0020000  0  8G29G31G 8G10G26G27G28G 7
  -6149072.04846  -4623837.96745  23484283.6194   23484286.8184
  10404675.18845   8076802.87345  23785719.1664   23785723.8544
   2672475.18047   2091676.76447  20840345.8854   20840347.8774
    254115.08943      6108.25652  25239322.6274   25239331.4204
  -3197578.26545  -2276569.05945  23921579.8304   23921585.1274
   7291633.27747   5681794.50646  22101613.4714   22101615.8614
   -813855.59847   -632814.24647  21459373.2364   21459373.5414
  -2890797.64345  -2153267.59145  23899496.6824   23899503.6234
 02  9 12  1 40 30.0020000  0  8G29G31G 8G10G26G27G28G 7
  -6177372.47746  -4645890.17845  23478898.1044   23478901.6194
  10534130.22345   8177676.89345  23810353.8074   23810359.0804
   2725528.18347   2133016.76947  20850442.1744   20850444.0724
    371940.73844     97920.24142  25261747.0024   25261752.7794
  -3233141.04245  -2304280.25445  23914812.5964   23914816.8264
   7382664.23747   5752727.68646  22118936.7914   22118938.8304
   -789937.56847   -614176.80047  21463924.4794   21463924.9004
  -2944494.59845  -2195109.12245  23889278.1194   23889284.9044
 02  9 12  1 41  0.0020000  0  8G29G31G 8G10G26G27G28G 7
  -6205172.20946  -4667552.23345  23473607.0804   23473610.1974
  10664103.09345   8278954.38745  23835086.8074   23835091.3774
   2779058.21747   2174728.48047  20860627.9714   20860629.7644
    490103.96843    189995.35642  25284230.8694   25284239.7094
  -3268226.21945  -2331619.27045  23908135.9394   23908140.5924
   7474125.37247   5823996.06546  22136341.2294   22136343.5844
   -765565.07447   -595185.22347  21468562.4794   21468563.1234
  -2997900.76945  -2236724.07145  23879116.3304   23879122.8114
 02  9 12  1 41 30.0020000  0  8G29G31G 8G10G26G27G28G 7
  -6232474.12946  -4688826.39545  23468412.1354   23468415.2994
  10794585.43145   8380628.91245  23859917.4554   23859921.4864
   2833060.32147   2216808.05047  20870904.7444   20870906.3734
    608595.99844    282326.54942  25306781.6354   25306789.2444
  -3302836.57745  -2358588.32645  23901550.7134   23901555.0844
   7566011.54347   5895595.63346  22153825.8304   22153828.1744
   -740744.09047   -575844.17446  21473286.1354   21473286.8384
  -3051019.11945  -2278114.75845  23869007.9324   23869013.8264
 02  9 12  1 42  0.0020000  0  8G29G31G 8G10G26G27G28G 7
  -6259268.26146  -4709704.86645  23463313.6274   23463316.5214
  10925582.16145   8482704.24245  23884844.8854   23884849.2094
   2887543.09747   2259262.16347  20881272.2834   20881274.1004
    727421.35843    374917.46842  25329391.5574   25329398.7564
  -3336962.04746  -2385179.54245  23895057.4794   23895060.7604
   7658330.24047   5967532.24546  22171393.5884   22171396.6004
   -715467.10947   -556147.80546  21478096.1044   21478096.5724
  -3103839.68746  -2319273.40945  23858957.1504   23858963.9944
 02  9 12  1 42 30.0020000  0  8G29G31G 8G10G26G27G28G 7
  -6285555.47746  -4730188.34745  23458311.1354   23458314.0294
  11057087.41145   8585175.81745  23909870.3614   23909875.3424
   2942503.86347   2302088.73647  20891731.0184   20891732.9634
    846574.03843    467763.55442  25352066.8774   25352074.6504
  -3370603.37145  -2411393.50345  23888654.5724   23888659.1194
   7751078.69347   6039803.73046  22189042.9634   22189045.6584
   -689738.12747   -536099.23146  21482991.8694   21482992.2914
  -3156363.23345  -2360200.61045  23848961.0574   23848966.8344
 02  9 12  1 43  0.0020000  0  8G29G31G 8G10G26G27G28G 7
  -6311339.84746  -4750279.99245  23453404.6354   23453407.2254
  11189091.77645   8688036.31045  23934989.4324   23934993.5574
   2997936.40147   2345282.92047  20902279.5644   20902281.2294
    966044.21744    560857.00942  25374801.2054   25374810.2684
  -3403764.69745  -2437233.42945  23882343.8144   23882348.6664
   7844250.34747   6112404.98246  22206772.8774   22206775.5844
   -663564.10247   -515703.86746  21487972.4084   21487972.8894
  -3208594.03545  -2400899.70345  23839022.5724   23839028.9474
 02  9 12  1 43 30.0020000  0  8G29G31G 8G10G26G27G28G 7
  -6336623.12046  -4769981.17345  23448593.3384   23448595.8344
  11321588.45945   8791280.42845  23960202.9944   23960207.7054
   3053837.57447   2388842.27947  20912917.0414   20912918.9984
                     19980.76654  25397595.3774
  -3436447.51446  -2462700.48345  23876126.0804   23876129.8074
   7937841.45547   6185333.07946  22224582.6664   22224585.0214
   -636949.70247   -494965.36146  21493037.1894   21493037.7404
  -3260533.82345  -2441372.04545  23829137.9944   23829144.2524
 02  9 12  1 44  0.0020000  0  8G29G31G 8G10G26G27G28G 7
  -6361398.42146  -4789286.53445  23443878.5334   23443881.2754
  11454579.04345   8894909.43245  23985510.2214   23985514.0414
   3110212.29747   2432770.63147  20923645.0334   20923646.8734
                    140073.05143  25420449.1274
  -3468644.93345  -2487789.30645  23869997.2604   23870001.1624
   8031856.35447   6258591.41246  22242473.0414   22242475.7364
   -609890.97747   -473880.61946  21498185.9794   21498186.4244
  -3312175.80146  -2481612.36045  23819311.7214   23819317.4864
 02  9 12  1 44 30.0020000  0  8G29G31G 8G10G26G27G28G 7
  -6385666.14646  -4808196.37845  23439260.7444   23439263.9674
  11588058.13045   8998919.06045  24010910.4864   24010914.5534
   3167058.49947   2477066.37147  20934462.3774   20934464.1464
    260471.44643     53188.26952  25443357.8384   25443365.8934
  -3500357.26846  -2512500.14845  23863963.1044   23863966.5724
   8126292.67447   6332178.12346  22260443.6664   22260446.4904
   -582391.14447   -452452.16446  21503418.9394   21503419.4674
  -3363520.22746  -2521620.78245  23809540.5334   23809546.4164
 02  9 12  1 45  0.0020000  0  8G29G31G 8G10G26G27G28G 7
  -6409424.15146  -4826709.04745  23434739.5184   23434742.8814
  11722022.47045   9103306.82145  24036403.9474   24036407.9084
   3224376.28647   2521729.58747  20945369.3384   20945371.0254
    381172.61243    147240.95442  25466326.9634   25466337.1274
  -3531582.16346  -2536831.17145  23858021.3384   23858025.1934
   8221150.10747   6406092.97046  22278495.0884   22278497.6194
   -554451.00347   -430680.60946  21508736.1974   21508736.4674
  -3414565.14646  -2561395.86145  23799827.1114   23799832.9594
 02  9 12  1 45 30.0030000  0  8G29G31G 8G10G26G27G28G 7
  -6432675.43646  -4844826.87345  23430314.8514   23430318.2024
  11856469.36245   9208070.60145  24061986.5384   24061990.9794
   3282163.90547   2566758.89847  20956365.8974   20956367.6324
     72632.80154    241526.62542  25489352.8664   25489362.0584
  -3562322.82446  -2560784.86845  23852171.2494   23852175.4684
   8316427.46947   6480335.04946  22296626.2104   22296628.9294
   -526074.44947   -408568.99646  21514136.0774   21514136.4994
  -3465314.44245  -2600940.59145  23790169.2654   23790175.6874
 02  9 12  1 46  0.0030000  0  8G29G31G 8G10G26G27G28G 7
  -6455417.12646  -4862547.60445  23425987.3194   23425990.9524
  11991386.01045   9313200.40445  24087660.1634   24087664.5584
   3340416.97247   2612150.90047  20967451.1084   20967452.9724
    193919.87543    336035.73442  25512434.0464   25512442.6284
  -3592575.75646  -2584358.49045  23846414.6244   23846418.3624
   8412117.51246   6554898.67946  22314834.0304   22314837.1014
   -497265.26847   -386120.26846  21519618.0624   21519618.7764
  -3515763.26145  -2640251.15145  23780569.0304   23780575.0304
 02  9 12  1 46 30.0030000  0  8G29G31G 8G10G26G27G28G 7
  -6477642.70646  -4879866.15645  23421756.9444   23421760.3784
  12126779.16245   9418701.49745  24113425.1634   24113429.8154
   3399143.13547   2657911.55047  20978626.7264   20978628.3434
    315499.89142    430773.27041  25535568.1794   25535575.0384
  -3622334.46346  -2607547.01945  23840751.5304   23840755.5974
   8508228.52246   6629790.34246  22333123.7414   22333126.4834
   -468017.67847   -363329.92446  21525183.9374   21525184.3584
  -3565905.97546  -2679323.18345  23771026.7804   23771032.9794
 02  9 12  1 47  0.0030000  0  8G29G31G 8G10G26G27G28G 7
  -6499360.31146  -4896788.90545  23417624.5304   23417627.4954
  12262635.39345   9524563.45145  24139277.5304   24139282.7224
   3458332.21947   2704032.90847  20989889.7654   20989891.3704
    437359.05443    525728.18642  25558759.1014   25558770.2374
  -3651607.17546  -2630356.85045  23835180.7104   23835183.8974
   8604750.01247   6705001.85946  22351492.1634   22351494.4484
   -438343.11247   -340206.87046  21530831.0224   21530831.4214
  -3615750.79946  -2718163.10145  23761541.4054   23761547.3584
 02  9 12  1 47 30.0030000  0  8G29G31G 8G10G26G27G28G 7
  -6520561.11546  -4913308.95146  23413590.6164   23413593.4874
  12398958.29345   9630789.04044  24165218.8124   24165223.0304
   3517991.25547   2750520.47447  21001242.8354   21001244.2764
    559500.88543    620903.42442  25582002.2184   25582010.8004
  -3680384.94346  -2652781.00945  23829704.4524   23829708.2264
   8701688.50847   6780538.31846  22369938.6244   22369941.1794
   -408235.39047   -316746.29846  21536559.8354   21536560.4334
  -3665289.11046  -2756764.17645  23752114.9524   23752120.9874
 02  9 12  1 48  0.0030000  0  8G29G31G 8G10G26G27G28G 7
  -6541249.21946  -4929429.50445  23409653.9524   23409656.5194
  12535738.85645   9737371.26944  24191248.2884   24191252.5424
   3578114.76747   2797369.96347  21012683.7724   21012685.3904
    681915.82942    716291.50842  25605299.3044   25605308.8824
  -3708671.59146  -2674822.47645  23824322.0544   23824325.7334
   8799037.97547   6856395.00546  22388463.3904   22388466.0974
   -377701.28647   -292953.47646  21542370.3124   21542371.1204
  -3714524.60945  -2795129.30245  23742744.5774   23742751.0934
 02  9 12  1 48 30.0030000  0  8G29G31G 8G10G26G27G28G 7
  -6561418.98046  -4945146.14246  23405815.4994   23405818.6284
  12672977.55945   9844310.46744  24217362.8584   24217367.7334
   3638706.76247   2844584.49947  21024213.9444   21024215.5034
    804604.11842    811892.56541  25628644.4054   25628651.1904
  -3736461.50146  -2696476.89145  23819032.9914   23819036.6594
   8896801.51146   6932574.34446  22407066.7724   22407069.5854
   -346738.10647   -268826.30346  21548262.3824   21548262.5694
  -3763451.76745  -2833254.18145  23733434.4374   23733440.0384
 02  9 12  1 49  0.0030000  0  8G29G31G 8G10G26G27G28G 7
  -6581073.91946  -4960461.63045  23402074.2104   23402077.5624
  12810665.68845   9951599.87545  24243563.7884   24243570.7534
   3699761.33247   2892159.49047  21035832.4444   21035834.1084
    927556.69542    907699.51341  25652038.5224   25652046.4834
  -3763758.13146  -2717746.90245  23813838.5074   23813842.4094
   8994973.45047   7009071.92746  22425749.2574   22425751.4834
   -315352.56447   -244370.03046  21554234.7024   21554234.9604
  -3812074.29546  -2871141.67645  23724182.0694   23724188.1164
 02  9 12  1 49 30.0030000  0  8G29G31G 8G10G26G27G28G 7
  -6600214.44446  -4975376.27346  23398432.5384   23398436.0894
  12948797.64845  10059235.11244  24269849.4374   24269854.8744
   3761276.86947   2940093.66947  21047538.3744   21047540.3544
   1050768.14343   1003708.22941  25675487.5544   25675496.7454
  -3790561.66446  -2738632.66645  23808738.2024   23808741.2964
   9093551.15247   7085885.69946  22444507.9524   22444510.4014
   -283547.59547   -219586.92146  21560287.4684   21560287.9374
  -3860392.22046  -2908791.79945  23714988.4294   23714994.3354
 02  9 12  1 50  0.0030000  0  8G29G31G 8G10G26G27G28G 7
  -6618839.03346  -4989888.88646  23394889.3124   23394892.3124
  13087369.92245  10167213.49445  24296220.1014   24296224.4834
   3823252.96847   2988386.73847  21059332.1164   21059333.9444
   1174234.42444   1099915.53842  25698982.2414   25698991.7614
  -3816870.50245  -2759132.96945  23803731.0774   23803734.8044
   9192533.87746   7163015.05546  22463343.3124   22463346.2294
   -251324.52947   -194478.02546  21566419.0934   21566419.6674
  -3908404.32046  -2946203.64645  23705851.3044   23705857.5504
 02  9 12  1 50 30.0030000  0  8G29G31G 8G11G26G27G28G 7
  -6636944.31546  -5003996.84846  23391443.6794   23391446.6674
  13226380.87045  10275533.66743  24322672.4214   24322675.4914
   3885691.29547   3037039.98147  21071213.3824   21071215.3274
     -7835.60153                  25517226.6324
  -3842681.07546  -2779245.03945  23798820.2884   23798824.8584
   9291922.76146   7240460.90846  22482256.3274   22482259.7264
   -218682.78447   -169042.88546  21572630.5694   21572631.0154
  -3956107.04746  -2983374.39945  23696773.5544   23696778.9914
 02  9 12  1 51  0.0030000  0  8G29G31G 8G11G26G27G28G 7
  -6654530.75646  -5017700.53146  23388096.3194   23388099.2264
  13365824.90745  10384191.32444  24349209.6164   24349214.0584
   3948589.80047   3086051.80947  21083182.8664   21083184.6834
    -17754.02143                  25515336.5464
  -3867993.71346  -2798969.08245  23794003.1164   23794006.5384
   9391715.25646   7318221.26246  22501246.2724   22501248.9794
   -185625.77847   -143284.16546  21578920.8434   21578921.1364
  -4003500.62646  -3020304.28345  23687753.8194   23687759.7264
 02  9 12  1 51 30.0030000  0  8G29G31G 8G11G26G27G28G 7
  -6671596.34446  -5030998.35146  23384849.7334   23384852.4874
  13505698.78945  10493183.89443  24375825.3584   24375830.7144
   4011948.28147   3135422.05747  21095239.6714   21095241.6754
    -27328.07044     -6198.00852  25513516.6014   25513522.2264
  -3892806.51346  -2818303.62445  23789280.9214   23789284.3084
   9491910.85346   7396295.72046  22520312.9834   22520315.4564
   -152154.54947   -117202.66546  21585290.2964   21585290.8124
  -4050583.38546  -3056991.95545  23678794.1554   23678800.1554
 02  9 12  1 52  0.0030000  0  8G29G31G 8G11G26G27G28G 7
  -6688144.78746  -5043893.18446  23381700.3514   23381703.4564
  13645993.99845  10602504.77243  24402522.1164   24402527.7654
   4075761.78147   3185146.86147  21107382.4994   21107384.5264
    -36560.48644    -13392.05842  25511759.0544   25511763.0624
  -3917122.85646  -2837251.33645  23784653.3744   23784657.5224
   9592504.03746   7474679.98146  22539455.1794   22539457.4174
   -118275.31547    -90803.23646  21591737.6634   21591738.0854
  -4097358.62246  -3093440.02245  23669892.9914   23669898.8864
 02  9 12  1 52 30.0030000  0  8G29G31G 8G11G26G27G28G 7
  -6704172.10746  -5056381.96546  23378650.9214   23378653.6404
  13786709.27345  10712152.97943  24429298.9444   24429302.8354
   4140032.62647   3235228.04647  21119613.2184   21119615.1984
    -45447.03443    -20316.42742  25510067.0544   25510074.1944
  -3940938.60446  -2855808.98145  23780122.5224   23780126.0854
   9693496.25246   7553375.16946  22558673.6554   22558676.3514
    -83986.89947    -64084.97046  21598262.2654   21598262.7574
  -4143822.37346  -3129645.36845  23661051.1474   23661056.9604
 02  9 12  1 53  0.0030000  0  8G29G31G 8G11G26G27G28G 7
  -6719673.66246  -5068461.05346  23375701.5854   23375704.0114
  13927844.09745  10822128.13044  24456157.4134   24456162.1714
   4204763.38047   3285667.59347  21131930.9764   21131932.9914
    -53982.69345    -26967.53542  25508445.8274   25508452.4724
  -3964249.18046  -2873972.98045  23775685.7104   23775688.8044
   9794889.89146   7632383.16146  22577968.4134   22577971.2374
    -49287.62647    -37046.54846  21604865.2104   21604865.5854
  -4189970.11246  -3165604.46045  23652269.7104   23652275.2294
 02  9 12  1 53 30.0030000  0  8G29G31G 8G11G26G27G28G 7
  -6734650.39546  -5080131.20446  23372850.0854   23372852.7924
  14069392.57445  10932425.60244  24483093.7184   24483099.4724
   4269951.74047   3336463.72047  21144335.6324   21144337.4134
    -62167.80543    -33345.37442  25506885.4524   25506892.8154
  -3987055.21146  -2891743.82745  23771346.2184   23771350.6714
   9896681.96146   7711701.61946  22597338.3044   22597340.7654
    -14181.12847     -9690.81446  21611545.8744   21611546.1444
  -4235802.52546  -3201317.84145  23643547.5694   23643553.1944
 02  9 12  1 54  0.0030000  0  8G29G31G 8G11G26G27G28G 7
  -6749108.29046  -5091397.04946  23370098.9834   23370101.5504
  14211343.83145  11043036.90444  24510105.8274   24510111.7924
   4335589.78847   3387610.25047  21156826.4524   21156828.3044
    -70007.87344    -39454.43642  25505395.5304   25505399.3744
  -4009362.60146  -2909126.08445  23767101.5624   23767105.6754
   9998864.21946   7791324.12746  22616782.8194   22616785.6904
     21323.82347     17975.41246  21618302.3354   21618302.7454
  -4281325.55146  -3236790.14845  23634883.8514   23634889.6754
 02  9 12  1 54 30.0030000  0  8G29G31G 8G11G26G27G28G 7
  -6763040.09346  -5102252.96246  23367447.5464   23367450.3124
  14353699.90945  11153963.66744  24537194.2964   24537199.1944
   4401683.39747   3439111.76047  21169403.6554   21169405.7184
    -77495.30544    -45288.69542  25503969.6014   25503973.5154
  -4031164.01846  -2926114.13645  23762953.2574   23762957.1944
  10101441.76146   7871254.64046  22636302.5304   22636305.0264
     57231.57947     45955.51546  21625134.8044   21625135.2494
  -4326531.92146  -3272015.68945  23626282.2184   23626287.9834
 02  9 12  1 55  0.0030000  0  8G29G31G 8G11G26G27G28G 7
  -6776445.35346  -5112698.56746  23364897.0304   23364899.7024
  14496456.50645  11265202.54644  24564360.4214   24564364.9214
   4468231.04447   3490967.07047  21182067.4994   21182069.2224
    -84628.78944    -50847.12042  25502612.1714   25502617.7964
  -4052458.66846  -2942707.28345  23758900.4684   23758903.1634
  10204412.80846   7951491.77446  22655897.5934   22655900.8864
     93539.97347     74247.79046  21632044.6874   21632045.0034
  -4371420.92146  -3306993.96245  23617740.0304   23617744.9764
 02  9 12  1 55 30.0030000  0  8G29G31G 8G11G26G27G28G 7
  -6789325.98046  -5122735.38246  23362446.1794   23362449.1674
  14639606.17145  11376747.67044  24591601.1714   24591606.1284
   4535228.95847   3543173.23847  21194816.5464   21194818.2924
    -91410.50244    -56131.45642  25501321.9134   25501327.2104
  -4073248.73146  -2958907.25345  23754943.7264   23754947.5694
  10307772.95246   8032032.11546  22675566.8744   22675569.7694
    130244.07047    102848.40646  21639028.8354   21639029.0464
  -4415994.75546  -3341726.65145  23609257.7184   23609262.9214
 02  9 12  1 56  0.0030000  0  8G29G31G 8G11G26G27G28G 7
  -6801679.88846  -5132361.75246  23360095.1084   23360098.0854
  14783146.34245  11488597.16343  24618916.3194   24618920.7724
   4602677.92947   3595730.87647  21207651.4914   21207653.3314
    -97837.17043    -61139.16242  25500095.1084   25500103.5034
  -4093531.63546  -2974711.99345  23751084.8274   23751088.1554
  10411522.57046   8112875.93746  22695309.6794   22695312.4914
    167343.50647    131757.08846  21646089.0304   21646089.6874
  -4460250.83546  -3376211.72645  23600835.2414   23600841.2184
 02  9 12  1 56 30.0030000  0  8G29G31G 8G11G26G27G28G 7
  -6813508.55446  -5141578.85546  23357844.0774   23357846.4794
  14927070.48545  11600745.83343  24646304.5934   24646309.2224
   4670574.64047   3648637.40747  21220571.6244   21220573.5114
   -103910.36245    -65871.38243  25498944.3824   25498947.9564
  -4113308.77346  -2990122.69145  23747320.7724   23747324.3584
  10515657.61646   8194020.08546  22715125.5544   22715128.0854
    204833.84647    160970.36946  21653222.8124   21653223.2694
  -4504190.63846  -3410450.35545  23592474.8354   23592480.5194
 02  9 12  1 57  0.0030000  0  8G29G31G 8G11G26G27G28G 7
  -6824805.76246  -5150381.81746  23355694.4374   23355697.1204
  15071379.76645  11713194.56344  24673766.1794   24673770.3744
   4738923.54647   3701896.29847  21233578.4134   21233580.3704
   -109623.12045    -70322.78742  25497855.7884   25497859.8664
  -4132573.94846  -3005134.41445  23743654.8194   23743658.1834
  10620182.15046   8275467.74946  22735016.1944   22735018.6674
    242718.46647    190490.87546  21660431.9134   21660432.1944
  -4547808.09746  -3444437.80945  23584173.9914   23584179.7224
 02  9 12  1 57 30.0030000  0  8G29G31G 8G11G26G27G28G 7
  -6835573.89546  -5158772.51546  23353644.8904   23353647.8544
  15216066.92945  11825937.77744  24701298.2654   24701302.2614
   4807720.79547   3755504.53947  21246669.8824   21246671.7454
   -114977.30143    -74494.74642  25496833.4604   25496837.1164
  -4151329.39146  -3019748.96445  23740085.4444   23740089.4994
  10725091.76846   8357215.47146  22754979.6554   22754982.6674
    280992.38547    220314.73846  21667715.4134   21667715.5304
  -4591105.16246  -3478175.59445  23575934.9294   23575940.6474
 02  9 12  1 58  0.0030000  0  8G29G31G 8G11G26G27G28G 7
  -6845811.50246  -5166749.82046  23351696.8824   23351699.6594
  15361128.48645  11938972.72044  24728902.5074   24728906.3514
   4876966.28747   3809462.05847  21259846.7104   21259848.5154
   -119970.64445    -78385.55642  25495886.7104   25495887.9404
  -4169573.23746  -3033964.85545  23736613.1794   23736616.9874
  10830385.67346   8439262.64146  22775015.7654   22775018.5774
    319654.55247    250441.13446  21675072.4684   21675072.7964
  -4634080.31646  -3511662.55145  23567757.2264   23567762.6404
 02  9 12  1 58 30.0030000  0  8G29G31G 8G11G26G27G28G 7
  -6855515.51746  -5174311.33646  23349850.3274   23349852.9874
  15506562.34945  12052297.78343  24756578.1164   24756580.5304
   4946661.07647   3863769.68547  21273109.5224   21273111.3974
   -124599.98144    -81992.67942  25495004.7184   25495013.2184
  -4187302.56246  -3047779.82345  23733239.9834   23733243.4054
  10936064.59946   8521609.81746  22795127.0304   22795129.7494
    358704.76947    280869.89646  21682503.6014   21682503.8474
  -4676730.51846  -3544896.30345  23559640.3274   23559645.4484
 02  9 12  1 59  0.0030000  0  8G29G31G 8G11G26G27G28G 7
  -6864689.46746  -5181459.81346  23348104.5384   23348107.3744
  15652360.30745  12165906.60343  24784321.3194   24784325.6904
   5016800.27847   3918423.60847  21286456.5224   21286458.3744
   -128868.01545    -85318.32442  25494194.4294   25494201.7224
  -4204520.58846  -3061196.39445  23729964.0384   23729966.9214
  11042123.09146   8604252.77246  22815309.1474   22815311.8194
    398137.19947    311596.49846  21690007.1794   21690007.6594
  -4719058.87346  -3577879.25945  23551585.3124   23551590.2224
 02  9 12  1 59 30.0030000  0  8G29G31G 8G11G26G27G28G 7
  -6873332.28646  -5188194.41346  23346459.2024   23346461.8744
  15798518.28745  12279795.91943  24812135.0624   24812141.3084
   5087383.00447   3973423.12547  21299887.8354   21299889.5464
   -132773.53645    -88361.52342  25493450.5384   25493453.6204
  -4221226.23646  -3074213.71645  23726784.4444   23726788.1594
  11148559.79846   8687190.42846  22835563.3274   22835566.1754
    437949.95847    342619.44446  21697582.6554   21697582.8904
  -4761064.47846  -3610610.73745  23543591.6244   23543597.1674
 02  9 12  2  0  0.0030000  0  8G29G31G 8G11G26G27G28G 7
  -6881445.95646  -5194516.69446  23344915.4834   23344918.6594
  15945029.62545  12393960.56543  24840015.8354   24840019.1754
   5158405.97547   4028765.69847  21313403.2184   21313405.1044
   -136317.99044    -91123.30042  25492775.6244   25492782.0344
  -4237421.06046  -3086832.99545  23723702.3124   23723705.0194
  11255370.73846   8770419.69546  22855888.3514   22855891.1164
    478138.49947    373935.21346  21705230.9294   21705231.1284
  -4802748.96646  -3643091.97545  23535660.2724   23535665.5584
 02  9 12  2  0 30.0030000  0  8G29G31G 8G11G26G27G28G 7
  -6889023.07646  -5200420.88146  23343473.6714   23343476.7184
  16091896.63045  12508402.29943  24867963.0694   24867969.1044
   5229874.92047   4084455.78247  21327002.8354   21327004.8974
   -139493.28845    -93597.42143  25492171.8904   25492174.1874
  -4253097.75846  -3099048.52145  23720719.1944   23720722.4404
  11362560.94346   8853944.51146  22876286.8044   22876289.0544
    518707.47147    405547.42546  21712951.0544   21712951.6164
  -4844104.85546  -3675317.17745  23527789.8044   23527794.6324
 02  9 12  2  1  0.0030000  0  8G29G31G 8G11G26G27G28G 7
  -6896071.50246  -5205913.10246  23342132.4214   23342134.8584
  16239106.59945  12623111.38243  24895975.8744   24895980.8084
   5301780.00047   4140485.71147  21340686.3664   21340688.1944
   -142306.82245    -95789.71143  25491635.6164   25491639.0854
  -4268263.98146  -3110866.28745  23717832.7724   23717836.2294
  11470120.58646   8937757.18346  22896753.9054   22896756.7414
    559646.43047    437447.94046  21720741.0694   21720741.5154
  -4885139.72546  -3707292.22745  23519981.1404   23519986.1324
 02  9 12  2  1 30.0030000  0  8G29G31G 8G11G26G27G28G 7
  -6902583.34246  -5210987.20346  23340892.4764   23340895.3944
  16386662.43944  12738089.92542  24924054.2804   24924059.6014
   5374127.79047   4196860.61347  21354453.4134   21354455.1594
   -144750.20545    -97693.51543  25491170.9604   25491175.0854
  -4282911.76546  -3122280.05945  23715046.3904   23715050.0934
  11578055.02546   9021861.90846  22917293.1014   22917296.1944
    600960.46647    469640.71446  21728603.4684   21728603.7024
  -4925845.88246  -3739011.12946  23512234.7884   23512239.6044
 02  9 12  2  2  0.0040000  0  8G29G31G 8G11G26G27G28G 7
  -6908561.24246  -5215645.22846  23339755.6684   23339758.7854
  16534562.13844  12853336.43142  24952198.5274   24952203.2854
   5446916.57247   4253579.14347  21368305.2854   21368307.2304
   -146825.27444    -99310.35242  25490774.6914   25490777.0234
  -4297043.56646  -3133291.77945  23712355.6684   23712359.5354
  11686363.84846   9106258.35246  22937904.4494   22937907.1334
    642645.97247    502122.94146  21736535.6444   21736535.9494
  -4966226.48346  -3770476.36846  23504550.6444   23504555.7664
 02  9 12  2  2 30.0040000  0  8G29G31G 8G11G26G27G28G 7
  -6914003.34546  -5219885.77146  23338720.0744   23338723.1334
  16682792.17743  12968840.37042  24980405.7624   24980411.9494
   5520141.39647   4310637.44447  21382239.1294   21382241.1684
   -148530.12345   -100638.67543  25490450.2234   25490454.1254
  -4310657.10646  -3143899.68745  23709765.7544   23709769.4224
  11795038.79846   9190940.10046  22958584.2934   22958587.1524
    684699.03647    534891.58946  21744538.3164   21744539.1604
  -5006277.44046  -3801684.74946  23496929.6684   23496934.4494
 02  9 12  2  3  0.0040000  0  8G29G31G 8G11G26G27G28G 7
  -6918906.47946  -5223706.34246  23337786.7624   23337789.6564
  16831356.12143  13084604.45542  25008676.0744   25008680.8674
   5593806.48147   4368038.81147  21396257.0984   21396259.2194
   -149860.58345   -101675.27843  25490198.6054   25490203.8794
  -4323749.21046  -3154101.26245  23707274.0274   23707278.0234
  11904084.73246   9275910.92446  22979334.7934   22979337.6994
    727121.73047    567948.25646  21752610.9184   21752611.3754
  -5045996.48346  -3832634.48346  23489370.2234   23489375.2154
 02  9 12  2  3 30.0040000  0  8G29G31G 8G11G26G27G28G 7
  -6923279.34846  -5227113.69946  23336954.7624   23336957.5514
  16980240.42144  13200618.19743  25037008.2694   25037013.4494
   5667901.70447   4425775.34847  21410356.8794   21410358.8484
   -150824.87545   -102426.56543  25490013.6914   25490017.0084
  -4336328.51546  -3163903.24845  23704881.1294   23704885.0314
  12013490.86046   9361162.41946  23000154.5354   23000157.4064
    769902.77547    601284.14746  21760751.9024   21760752.1484
  -5085392.09146  -3863332.18945  23481873.8484   23481878.7694
 02  9 12  2  4  0.0040000  0  8G29G31G 8G11G26G27G28G 7
  -6927110.80546  -5230099.19046  23336225.3404   23336228.4104
  17129451.43943  13316886.50943  25065400.5824   25065405.4224
   5742436.24947   4483854.22147  21424540.5354   21424542.5044
   -151411.64145   -102883.61343  25489901.9264   25489906.3794
  -4348383.60546  -3173296.75245  23702586.4884   23702590.1804
  12123266.16646   9446701.58946  23021044.0744   23021047.0984
    813050.49147    634905.76646  21768962.4264   21768962.8714
  -5124453.01846  -3893769.09746  23474440.3094   23474445.2424
 02  9 12  2  4 30.0040000  0  8G29G31G 8G11G26G27G28G 7
  -6930407.48246  -5232667.97446  23335597.8944   23335600.5434
  17278977.73943  13433400.52642  25093855.5514   25093860.1804
   5817402.16947   4542269.22547  21438805.8554   21438807.9884
   -151626.38745   -103050.87343  25489861.9264   25489864.8794
  -4359920.87846  -3182286.77845  23700390.4494   23700393.7664
  12233401.88646   9532521.59446  23042001.6764   23042004.7694
    856555.83947    668806.06046  21777241.6764   21777242.3554
  -5163185.57146  -3923950.13946  23467070.4264   23467075.4184
 02  9 12  2  5  0.0040000  0  8G29G31G 8G11G26G27G28G 7
  -6933165.58646  -5234817.08746  23335073.7934   23335076.3014
  17428818.21244  13550159.32842  25122369.8484   25122375.5664
   5892801.36347   4601021.84047  21453153.7464   21453155.7274
   -151465.34945   -102925.30343  25489891.7544   25489896.0664
  -4370936.75246  -3190870.51845  23698294.9344   23698298.4144
  12343899.55446   9618623.64446  23063029.0514   23063031.4184
    900419.86447    702985.83746  21785587.9654   21785588.3284
  -5201585.84946  -3953872.26246  23459761.5194   23459766.8874
 02  9 12  2  5 30.0040000  0  8G29G31G 8G11G26G27G28G 7
  -6935383.93846  -5236545.61646  23334650.5274   23334653.5624
  17578969.43744  13667160.27242  25150942.7464   25150947.7854
   5968633.74447   4660112.01447  21467584.4574   21467586.5664
   -150926.57045   -102505.27442  25489995.4414   25489999.2274
  -4381429.44346  -3199046.57945  23696298.6524   23696301.7814
  12454758.52646   9705007.24246  23084124.1294   23084127.3284
    944641.29347    737444.11146  21794002.8164   21794003.0984
  -5239652.35946  -3983534.30146  23452518.6214   23452523.1804
 02  9 12  2  6  0.0040000  0  8G29G31G 8G11G26G27G28G 7
  -6937061.50646  -5237852.76246  23334331.5904   23334334.3794
  17729427.71144  13784400.52442  25179575.0824   25179579.7584
   6044898.71647   4719539.26647  21482097.0984   21482099.0084
   -150008.23345   -101789.56342  25490170.2624   25490172.6294
  -4391398.03946  -3206814.25545  23694401.3244   23694404.4184
  12565977.41046   9791671.26446  23105288.8244   23105291.6604
    989218.62247    772179.71146  21802485.8484   21802486.2694
  -5277383.82746  -4012935.26146  23445338.5514   23445343.4734
 02  9 12  2  6 30.0040000  0  8G29G31G 8G11G26G27G28G 7
  -6938197.99346  -5238738.27446  23334115.6214   23334118.6334
  17880188.66343  13901876.56241  25208262.1444   25208267.5234
   6121595.07247   4779302.66447  21496692.1374   21496694.0354
   -148709.59044   -100777.51843  25490414.8404   25490419.5864
  -4400841.85846  -3214173.01845  23692603.7854   23692607.0314
  12677554.71646   9878614.58346  23126521.5044   23126524.1874
   1034149.65847    807190.92247  21811036.3324   21811036.8834
  -5314779.69746  -4042074.73846  23438221.7934   23438226.7974
 02  9 12  2  7  0.0040000  0  8G29G31G 8G11G26G27G28G 7
  -6938794.13246  -5239202.73746  23334002.0904   23334004.6914
  18031246.70343  14019584.20542  25237009.0904   25237013.0744
   6198720.21247   4839400.18047  21511368.3404   21511370.4844
   -147030.97845    -99469.37943  25490736.2234   25490739.9844
  -4409761.69146  -3221123.48945  23690906.0744   23690909.2154
  12789487.20346   9965834.68746  23147821.5984   23147824.6914
   1079430.78247    842474.93046  21819652.7774   21819653.4804
  -5351840.74046  -4070953.30746  23431169.0434   23431173.7664
 02  9 12  2  7 30.0040000  0  8G29G31G 8G11G26G27G28G 7
  -6938845.84146  -5239242.98646  23333991.4654   23333994.1254
  18182601.37943  14137522.97842  25265809.7934   25265813.2384
   6276277.13047   4899834.14647  21526126.9264   21526128.7664
   -144967.43545    -97861.32743  25491128.8404   25491130.7274
  -4418153.10346  -3227662.17845  23689310.0514   23689312.7694
  12901777.29946  10053333.43646  23169190.1844   23169193.6764
   1125063.73747    878033.09346  21828336.7304   21828337.2584
  -5388562.26846  -4099567.31846  23424181.8404   23424186.7624
 02  9 12  2  8  0.0040000  0  8G29G31G 8G11G26G27G28G 7
  -6938355.16546  -5238860.59746  23334085.5124   23334087.8324
  18334245.83243  14255687.50241  25294667.8014   25294673.9774
   6354261.72247   4960601.36447  21540966.8554   21540968.6954
   -142520.58243    -95954.49842  25491592.1134   25491596.7664
  -4426018.13446  -3233790.70846  23687813.0594   23687816.2234
  13014420.47746  10141107.31246  23190625.2154   23190628.2974
   1171043.82847    913861.75246  21837086.4104   21837086.6914
  -5424946.39946  -4127918.42646  23417257.7624   23417262.2624
 02  9 12  2  8 30.0040000  0  8G29G31G 8G11G26G27G28G 7
  -6937321.86346  -5238055.36246  23334281.4884   23334284.5474
  18486175.95742  14374074.59641  25323577.0274   25323583.9694
   6432673.23947   5021701.25847  21555888.1294   21555889.9454
   -139689.50444    -93748.34342  25492131.9574   25492138.5314
  -4433356.02446  -3239508.47346  23686416.5354   23686419.2304
  13127415.26246  10229155.17746  23212126.6764   23212129.5594
   1217369.22947    949959.48747  21845901.6684   21845902.3014
  -5460992.24346  -4156005.93746  23410397.9344   23410402.1764
 02  9 12  2  9  0.0040000  0  8G29G31G 8G11G26G27G28G 7
  -6935745.97546  -5236827.34246  23334581.3244   23334583.7854
  18638386.89043  14492680.56241  25352542.6054   25352545.2894
   6511509.69147   5083132.26647  21570890.4024   21570892.1724
   -136473.82645    -91242.49142  25492743.6844   25492749.7664
  -4440166.94546  -3244815.61646  23685120.5594   23685123.3484
  13240759.28646  10317475.16546  23233695.6604   23233698.7194
   1264037.13347    986324.11346  21854782.1994   21854782.8794
  -5496699.77146  -4183829.82646  23403603.5664   23403607.9024
 02  9 12  2  9 30.0040000  0  8G29G31G 8G11G26G27G28G 7
  -6933622.71646  -5235172.80846  23334986.0744   23334989.1214
  18790878.76343  14611505.44442  25381561.0274   25381563.5474
   6590774.94647   5144897.40647  21585973.9344   21585975.7504
   -132868.02645    -88432.66443  25493429.4104   25493433.3124
  -4446445.77446  -3249708.13646  23683925.4104   23683928.5044
  13354455.31646  10406069.46946  23255331.5044   23255334.5274
   1311049.90047   1022957.45846  21863728.8484   21863729.0944
  -5532063.86946  -4211386.11446  23396873.4344   23396877.3834
 02  9 12  2 10  0.0040000  0  8G29G31G 8G11G26G27G28G 7
  -6930951.01446  -5233090.90546  23335493.8794   23335496.6334
  18943648.32644  14730546.76842  25410635.0044   25410635.1444
   6670468.16647   5206996.02247  21601139.1684   21601140.8324
   -128870.08145    -85317.24643  25494190.9964   25494193.5514
  -4452191.22246  -3254185.03546  23682832.0824   23682835.2234
  13468502.52946  10494937.40946  23277034.4414   23277037.4304
   1358406.18347   1059858.46946  21872739.8094   21872740.1134
  -5567083.04246  -4238673.62346  23390209.5984   23390214.0274
 02  9 12  2 10 30.0040000  0  8G29G31G 8G11G26G27G28G 7
  -6927733.70046  -5230583.86646  23336106.2234   23336108.6484
  19096687.79843  14849798.31542  25439755.7464   25439759.3794
   6750584.96447   5269424.69947  21616384.3944   21616386.2584
   -124482.55844    -81898.26942  25495026.3244   25495032.6054
  -4457406.05746  -3258248.47746  23681838.9414   23681841.9654
  13582895.87246  10584075.04646  23298802.2074   23298805.1254
   1406100.57547   1097022.96046  21881815.9654   21881816.6914
  -5601760.05246  -4265694.51846  23383610.3874   23383614.6054
 02  9 12  2 11  0.0040000  0  8G29G31G 8G11G26G27G28G 7
  -6923971.54946  -5227652.26846  23336822.2154   23336825.2154
  19249992.17442  14969256.33942  25468927.6994   25468935.3324
   6831123.34647   5332181.88847  21631710.4024   21631712.1374
   -119705.32745    -78175.61642  25495934.8014   25495939.3014
  -4462090.77246  -3261898.82346  23680948.2154   23680951.1444
  13697632.56146  10673480.25146  23320636.5044   23320638.9774
   1454130.06247   1134448.56447  21890955.6524   21890956.1334
  -5636095.11946  -4292448.95646  23377076.8014   23377081.3124
 02  9 12  2 11 30.0040000  0  8G29G31G 8G11G26G27G28G 7
  -6919665.78846  -5224297.08246  23337642.0594   23337644.2854
  19403555.65643  15088916.34842  25498151.0354   25498156.6134
   6912080.38747   5395265.28947  21647115.9264   21647117.6484
   -114539.32645    -74150.04742  25496917.9574   25496919.6094
  -4466246.44046  -3265136.91346  23680156.5044   23680160.3364
  13812709.33346  10763150.42146  23342533.7694   23342537.4024
   1502490.78147   1172132.25446  21900158.2854   21900158.5314
  -5670089.32946  -4318937.79846  23370607.4804   23370611.9454
 02  9 12  2 12  0.0040000  0  8G29G31G 8G11G26G27G28G 7
  -6914811.29046  -5220514.31446  23338565.6294   23338568.2774
  19557378.73343  15208778.61042  25527424.1134   25527428.6954
   6993460.03447   5458678.00747  21662602.2854   21662604.0554
   -108978.84744    -69817.08142  25497974.4184   25497979.0354
  -4469867.89146  -3267958.73346  23679468.2774   23679471.7234
  13928129.33746  10853088.06546  23364497.9574   23364500.8284
   1551185.60147   1210076.29547  21909424.5354   21909424.8984
  -5703737.23146  -4345156.79546  23364204.1294   23364208.5944
 02  9 12  2 12 30.0040000  0  8G29G31G 8G11G26G27G28G 7
  -6909405.60146  -5216302.03346  23339593.7304   23339596.2034
  19711459.41943  15328841.50342  25556743.1524   25556749.3874
   7075262.89247   5522420.49747  21678168.9804   21678170.7504
   -103020.58245    -65174.11643  25499109.2624   25499112.2734
  -4472952.27346  -3270362.06345  23678880.8324   23678884.5234
  14043892.91446  10943293.43146  23386527.0354   23386529.9774
   1600214.60147   1248280.73347  21918754.4654   21918754.7934
  -5737036.03446  -4371103.76146  23357867.6524   23357871.8244
 02  9 12  2 13  0.0040000  0  8G29G31G 8G11G26G27G28G 7
  -6903450.19646  -5211661.42746  23340727.4414   23340729.9024
  19865791.84542  15449100.65942  25586114.2854   25586118.6444
   7157486.48447   5586490.83947  21693815.3874   21693817.3094
    -96665.27245    -60221.80543  25500319.1294   25500323.0784
  -4475500.93246  -3272347.93246  23678396.0274   23678399.2854
  14159996.69746  11033763.87546  23408621.1134   23408624.7694
   1649573.91547   1286742.55547  21928147.3714   21928147.6524
  -5769986.82046  -4396779.54546  23351596.6294   23351601.0234
 02  9 12  2 13 30.0040000  0  8G29G31G 8G11G26G27G28G 7
  -6896949.31946  -5206595.75346  23341964.4494   23341967.1214
  20020367.21242  15569549.08141  25615525.7854   25615528.1524
   7240124.41447   5650884.04147  21709541.0514   21709542.9024
    -89916.54245    -54962.91943  25501603.8404   25501607.1684
  -4477517.96346  -3273919.56846  23678012.4184   23678014.8444
  14276434.16846  11124494.34746  23430778.6994   23430781.4414
   1699256.74247   1325456.47646  21937602.0274   21937602.3794
  -5802593.56946  -4422187.24246  23345392.3944   23345397.2234
 02  9 12  2 14  0.0040000  0  8G29G31G 8G11G26G27G28G 7
  -6889898.03646  -5201101.20946  23343306.1214   23343308.5124
  20175186.09642  15690187.32141  25644988.6374   25644990.1484
   7323181.09147   5715603.52347  21725346.1294   21725347.8754
    -82768.83845    -49393.10744  25502962.1444   25502963.6444
  -4478998.22446  -3275072.92946  23677730.0594   23677732.9064
  14393208.58546  11215487.35945  23452999.2234   23453002.5624
   1749265.95747   1364424.71646  21947117.9184   21947118.0354
  -5834850.85146  -4447322.62646  23339253.4654   23339257.8594
 02  9 12  2 14 30.0040000  0  8G29G31G 8G11G26G27G28G 7
  -6882294.25046  -5195176.14346  23344752.5354   23344755.2194
  20330246.20241  15811013.54141  25674492.8484   25674502.1914
   7406656.56447   5780649.36247  21741231.0984   21741233.0314
    -75219.42545                  25504399.7234
  -4479939.23846  -3275806.08546  23677551.3244   23677554.2424
  14510319.98346  11306742.94846  23475285.6214   23475288.4924
   1799601.57547   1403647.30047  21956696.5984   21956696.9144
  -5866756.17346  -4472183.77946  23333182.6374   23333186.7854
 02  9 12  2 15  0.0040000  0  8G29G31G 8G11G26G27G28G 7
  -6874134.63146  -5188817.96646  23346305.5744   23346308.2694
  20485546.38641                  25704044.3164
   7490552.76247   5846023.02847  21757196.0434   21757197.9064
    -67264.49445                  25505912.8874
  -4480337.86546  -3276116.61446  23677475.0904   23677478.3124
  14627769.43746  11398261.96446  23497636.3714   23497639.0664
   1850264.02647   1443124.56946  21966336.9574   21966337.3914
  -5898306.11346  -4496767.99546  23327178.4964   23327182.4924
 02  9 12  2 15 30.0040000  0  8G29G31G 8G11G26G27G28G 7
  -6865424.31246  -5182030.66946  23347962.8164   23347965.3594
  20641077.24741                  25733641.1524
   7574863.57247   5911719.77547  21773240.2934   21773242.0864
    -58908.24945      4589.90053  25507503.8874   25507507.4374
  -4480198.56946  -3276007.97246  23677501.3944   23677504.9224
  14745550.27746  11490039.19646  23520047.4344   23520051.1134
   1901246.26847   1482851.01347  21976039.2464   21976039.3284
  -5929505.15846  -4521078.79046  23321241.3324   23321245.6564
 02  9 12  2 16  0.0040000  0  8G29G31G 8G11G26G27G28G 7
  -6856162.59646  -5174813.71146  23349725.2934   23349727.7304
  20796834.99741        -4.51951  25763281.0984   25763284.0394
   7659587.83647   5977738.69047  21789362.2154   21789364.0904
    -50149.49145     11415.03843  25509169.5354   25509173.5904
  -4479520.97446  -3275479.88846  23677630.8164   23677633.6414
  14863660.81746  11582073.33846  23542524.6604   23542527.5084
   1952546.42547   1522825.17747  21985801.3944   21985801.2894
  -5960352.43746  -4545115.48246  23315371.7384   23315376.1684
 02  9 12  2 16 30.0040000  0  8G29G31G 8G11G26G27G28G 7
  -6846347.02946  -5167165.17846  23351593.8014   23351596.0164
  20952818.15142    121541.01641  25792964.9104   25792969.4454
   7744726.89547   6044080.82547  21805563.2464   21805565.3674
    -40984.76345     18556.50143  25510912.6844   25510916.8794
  -4478301.80546  -3274529.80646  23677862.2544   23677865.1604
  14982101.96146  11674365.11246  23565062.7774   23565066.0354
   2004165.17147   1563047.60947  21995623.6524   21995624.1214
  -5990844.66546  -4568875.50846  23309569.1444   23309573.0944
 02  9 12  2 17  0.0040000  0  8G29G31G 8G11G26G27G28G 7
  -6835975.09146  -5159083.12546  23353566.6054   23353568.9494
  21109024.75741                  25822688.6604
   7830281.85247   6110747.02847  21821844.2384   21821846.0904
    -31410.83445     26016.86243  25512734.7774   25512737.6724
  -4476538.82646  -3273155.97946  23678197.6914   23678200.2694
  15100874.16746  11766914.81546  23587664.6764   23587668.5084
   2056102.49247   1603518.27846  22005507.0124   22005507.4574
  -6020979.18246  -4592356.81646  23303834.0194   23303837.8284
 02  9 12  2 17 30.0040000  0  8G29G31G 8G11G26G27G28G 7
  -6825046.69746  -5150567.46446  23355646.5514   23355649.0354
  21265450.55842                  25852457.5124
   7916251.46847   6177736.34647  21838203.7384   21838205.2624
    -21427.21745     33796.35743  25514635.2774   25514638.8164
  -4474231.63346  -3271358.08646  23678637.1684   23678639.7584
  15219975.26346  11859720.83846  23610329.1444   23610331.3834
   2108356.30647   1644235.55247  22015450.8484   22015450.6254
  -6050755.57946  -4615559.06746  23298167.4964   23298171.4104
 02  9 12  2 18  0.0050000  0  8G29G31G 8G11G26G27G28G 7
  -6813565.78946  -5141621.26246  23357831.2514   23357833.6424
  21422092.30141                  25882264.2594
   8002632.89147   6245046.55447  21854641.6734   21854643.1614
    -11037.28745     41892.55644  25516611.9854   25516615.9814
  -4471384.16046  -3269139.21546  23679178.6344   23679180.6734
  15339403.33246  11952781.63146  23633054.3064   23633057.9854
   2160921.83447   1685195.72046  22025453.5404   22025453.4584
  -6080178.68846  -4638486.01746  23292567.7434   23292571.5174
 02  9 12  2 18 30.0050000  0  8G29G31G 8G11G26G27G28G 7
  -6801526.58946  -5132240.04546  23360122.5714   23360124.7864
  21578941.83341                  25912113.9154
   8089425.43047   6312677.10447  21871157.4854   21871159.0094
      -234.33045     50310.54443  25518668.7044   25518672.6184
  -4467989.91846  -3266494.28546  23679824.2514   23679826.8764
  15459154.78946  12046094.39746  23655843.8924   23655847.0204
   2213799.80547   1726399.35347  22035515.9934   22035516.4274
  -6109239.56246  -4661130.72246  23287038.6574   23287042.6064
 02  9 12  2 19  0.0050000  0  8G29G31G 8G11G26G27G28G 7
  -6788932.07446  -5122426.10446  23362519.4384   23362521.6654
  21735996.86941                  25941995.4854
   8176627.47747   6380626.76647  21887751.2904   21887753.0134
     10979.51645     59048.72343  25520802.0014   25520806.4544
  -4464051.98646  -3263425.70046  23680573.5714   23680576.3024
  15579228.54746  12139658.34045  23678691.7984   23678694.1884
   2266986.70147   1767843.71247  22045636.8844   22045637.1304
  -6137941.99346  -4683496.09746  23281576.4854   23281580.6694
 02  9 12  2 19 30.0050000  0  8G29G31G 8G11G26G27G28G 7
  -6775786.46346  -5112182.74246  23365020.2514   23365022.5014
  21893249.04841                  25971921.6574
   8264233.39347   6448891.12647  21904422.3684   21904424.1034
     22600.55745     68104.20143  25523012.5714   25523014.3174
  -4459574.27946  -3259936.51646  23681426.1884   23681428.8604
  15699618.51246  12233468.66145  23701602.2514   23701605.8494
   2320476.02947   1809523.72846  22055815.5634   22055815.7284
  -6166289.86646  -4705585.21146  23276181.4154   23276185.4934
 02  9 12  2 20  0.0050000  0  8G29G31G 8G11G26G27G28G 7
  -6762087.73046  -5101508.36846  23367627.4704   23367630.4934
  22050696.09541                  26001882.2204
   8352243.76647   6517470.65347  21921169.9624   21921171.6734
     34631.62645     77479.16543  25525301.8994   25525305.3804
  -4454554.59046  -3256025.02646  23682381.2744   23682383.9814
  15820324.84146  12327525.51245  23724571.6034   23724574.6854
   2374267.89947   1851439.49746  22066051.5794   22066051.8134
  -6194280.51846  -4727395.96446  23270855.2204   23270859.5094
 02  9 12  2 20 30.0050000  0  8G29G31G 8G11G26G27G28G 7
  -6747831.72946  -5090399.76746  23370339.9464   23370342.5484
  22208338.20441                  26031883.2284
   8440661.50047   6586367.58847  21937995.5714   21937997.3294
     47077.70145     87177.52343  25527670.8454   25527674.1854
  -4448988.53446  -3251687.78846  23683439.8844   23683442.4744
  15941349.70346  12421830.56845  23747602.1344   23747605.1574
   2428364.10047   1893592.39247  22076346.0794   22076346.2904
  -6221909.47146  -4748924.88146  23265597.2204   23265601.0994
 02  9 12  2 21  0.0050000  0  8G29G31G 8G11G26G27G28G 7
  -6733022.18446  -5078859.83046  23373158.0404   23373160.7824
  22366167.53841                  26061917.2284
   8529481.73947   6655578.16847  21954896.7044   21954898.4624
     59935.60945     97196.78743  25530118.3924   25530121.9314
  -4442879.76046  -3246927.65946  23684602.7594   23684604.9854
  16062687.56146  12516379.52745  23770691.0954   23770694.6104
   2482758.86747   1935977.95447  22086696.8064   22086697.0874
  -6249179.96746  -4770174.47946  23260408.3604   23260412.3564
 02  9 12  2 21 30.0050000  0  8G29G31G 8G11G26G27G28G 7
  -6717659.54446  -5066888.90046  23376081.7284   23376084.6344
  22524179.60442                  26091987.6264
   8618702.81847   6725101.09647  21971875.7744   21971877.8134
     73205.84745    107537.37643  25532641.1494   25532645.7784
  -4436228.20346  -3241744.59746  23685868.0014   23685870.6854
  16184336.22946  12611170.67445  23793840.4234   23793843.7984
   2537449.73547   1978594.23547  22097104.0244   22097104.0954
  -6276091.85446  -4791144.64546  23255286.4464   23255290.2204
 02  9 12  2 22  0.0050000  0  8G29G31G 8G11G26G27G28G 7
  -6701745.36146  -5054488.20046  23379109.5564   23379112.1344
  22682368.50341                  26122086.6344
   8708321.44747   6794933.80447  21988929.3134   21988931.0134
     86887.23445    118198.29843  25535245.5714   25535249.6034
  -4429035.59346  -3236139.93446  23687237.0484   23687239.3454
  16306292.02846  12706201.14945  23817048.1964   23817051.5954
   2592432.95247   2021438.31847  22107566.9074   22107566.8724
  -6302646.40246  -4811836.34846  23250233.5244   23250237.2744
 02  9 12  2 22 30.0050000  0  7G29G 8G11G26G27G28G 7
  -6685279.91646  -5041657.93346  23382242.8604   23382245.5094
   8798336.62247   6865075.50947  22006058.4234   22006059.9114
    100980.67745    129180.27943  25537927.6344   25537932.4974
  -4421301.63546  -3230113.43146  23688708.4544   23688711.1964
  16428553.10946  12801469.51645  23840313.7284   23840316.4704
   2647706.53547   2064508.66247  22118085.5174   22118085.7284
  -6328843.15646  -4832249.26746  23245248.3374   23245252.1104
 02  9 12  2 23  0.0050000  0  7G29G 8G11G26G27G28G 7
  -6668261.71146  -5028396.94846  23385481.6574   23385484.3414
   8888748.25847   6935526.14247  22023263.2594   22023264.9114
    115488.28945    140485.07343  25540686.8684   25540689.8334
  -4413024.68346  -3223663.82946  23690283.4784   23690285.9154
  16551119.02446  12896975.41345  23863636.0014   23863640.2904
   2703269.99247   2107804.89447  22128658.3924   22128658.6964
  -6354679.95346  -4852381.69146  23240331.3454   23240335.0714
 02  9 12  2 23 30.0050000  0  7G29G 8G11G26G27G28G 7
  -6650687.53546  -5014702.74046  23388825.8454   23388828.0954
   8979558.34247   7006287.25747  22040543.9544   22040545.6424
    130413.64345    152115.33043  25543527.4784   25543531.2284
  -4404201.51946  -3216788.60946  23691963.3764   23691965.2514
  16673990.99046  12992719.77045  23887019.2904   23887022.4664
   2759124.14847   2151327.63947  22139287.4314   22139287.4424
  -6380153.57047  -4872231.13346  23235484.5324   23235487.8844
 02  9 12  2 24  0.0050000  0  7G29G 8G11G26G27G28G 7
  -6632566.90946  -5000582.71246  23392273.9934   23392276.2784
   9070756.36647   7077350.65747  22057898.2594   22057900.1454
    145748.39745    164064.60143  25546446.4544   25546449.1964
  -4394841.05746  -3209494.72546  23693743.9234   23693746.5244
  16797158.17946  13088694.20145  23910456.7744   23910459.6574
   2815257.98947   2195068.32747  22149969.2514   22149969.0524
  -6405272.47747  -4891804.16246  23230704.1424   23230707.8804
 02  9 12  2 24 30.0050000  0  7G29G 8G11G26G27G28G 7
  -6613897.17646  -4986034.81646  23395826.0634   23395828.5014
   9162343.30647   7148717.11247  22075326.7124   22075328.5174
    161496.17045    176335.71544  25549443.8994   25549447.4274
  -4384940.72446  -3201780.14546  23695628.0014   23695630.7204
  16920620.93746  13184898.91945  23933951.4544   23933955.6854
   2871671.77447   2239027.14847  22160704.2044   22160704.5094
  -6430033.74047  -4911098.51146  23225991.8764   23225995.2984
 02  9 12  2 25  0.0050000  0  7G29G 8G11G26G27G28G 7
  -6594672.90146  -4971054.80346  23399484.4544   23399486.7984
   9254323.84147   7220390.25447  22092830.2204   22092831.8374
    177663.09745    188933.44343  25552518.4314   25552520.5994
  -4374494.68346  -3193640.33246  23697615.4544   23697617.8214
  17044383.21246  13281337.04345  23957501.9314   23957505.2244
   2928369.26147   2283207.04647  22171493.2354   22171493.4934
  -6454431.32947  -4930109.48746  23221348.6574   23221352.0324
 02  9 12  2 25 30.0050000  0  7G29G 8G11G26G27G28G 7
  -6574894.89346  -4955643.30946  23403248.1184   23403250.4744
   9346695.77747   7292368.40247  22110408.0244   22110409.3254
    194248.84145    201857.50443  25555676.0714   25555678.7434
  -4363503.82546  -3185075.98246  23699707.4784   23699709.9274
  17168442.16546  13378006.35345  23981108.6654   23981112.5674
   2985347.62547   2327605.80547  22182335.6264   22182335.4624
  -6478465.59647  -4948837.36046  23216775.2434   23216778.9464
 02  9 12  2 26  0.0050000  0  7G29G 8G11G26G27G28G 7
  -6554570.68146  -4939806.20046  23407115.8534   23407118.1264
   9439450.45247   7364644.77647  22128058.6654   22128060.0134
    211246.82645    215102.80143  25558910.3994   25558911.7594
  -4351974.93746  -3176092.41046  23701901.1654   23701903.3564
  17292788.97446  13474899.95345  24004772.8064   24004776.3214
   3042597.79247   2372216.36047  22193230.3294   22193230.3884
  -6502143.10247  -4967287.22146  23212269.7514   23212273.1734
 02  9 12  2 26 30.0050000  0  7G29G 8G11G26G27G28G 7
  -6533697.90846  -4923541.65046  23411087.2824   23411089.5794
   9532589.16447   7437220.39847  22145782.3294   22145783.8994
    228660.37845    228671.92944  25562223.8994   25562227.4504
  -4339905.71746  -3166687.77146  23704197.6574   23704200.3644
  17417424.10846  13572018.22445  24028490.1264   24028492.7284
   3100120.10647   2417038.96947  22204176.4384   22204176.6144
  -6525461.11647  -4985456.96646  23207832.4704   23207835.8334
 02  9 12  2 27  0.0050000  0  7G29G 8G11G26G27G28G 7
  -6512276.48846  -4906849.58446  23415164.1494   23415166.2354
   9626110.57647   7510094.22647  22163579.2284   22163580.6924
    246490.29745    242565.48544  25565615.8214   25565620.0634
  -4327295.78546  -3156861.80646  23706596.9314   23706599.3454
  17542345.67846  13669359.66945  24052261.2354   24052264.6574
   3157912.74947   2462072.22047  22215174.4544   22215174.5014
  -6548419.08947  -5003346.16346  23203463.1814   23203466.9074
 02  9 12  2 27 30.0050000  0  7G29G 8G11G26G27G28G 7
  -6490311.13946  -4889733.66746  23419343.8684   23419346.1534
   9720008.93447   7583261.78347  22181446.8994   22181448.4934
    264732.42145    256780.21044  25569087.7514   25569089.1224
  -4314149.70946  -3146618.05346  23709098.6104   23709100.8954
  17667547.40046  13766919.44945  24076087.3134   24076090.5484
   3215969.05047   2507310.92247  22226221.8534   22226221.8534
  -6571021.07647  -5020957.97546  23199162.4314   23199165.6534
 02  9 12  2 28  0.0050000  0  7G29G 8G11G26G27G28G 7
  -6467800.21346  -4872192.65246  23423627.6184   23423629.7864
   9814284.96547   7656723.62547  22199387.5094   22199389.2674
    283389.51945    271318.29843  25572637.8064   25572640.7824
  -4300465.52446  -3135954.99446  23711702.8064   23711705.2204
  17793029.15446  13864697.40045  24099964.3684   24099967.8494
   3274289.10347   2552755.14547  22237319.5484   22237319.4894
  -6593264.73247  -5038290.56546  23194929.7044   23194933.1734
 02  9 12  2 28 30.0050000  0  7G29G 8G11G26G27G28G 7
  -6444744.83446  -4854227.36346  23428014.8374   23428017.2284
   9908936.01747   7730477.70047  22217399.3374   22217401.3064
    302461.10945    286179.40744  25576267.7514   25576270.1304
  -4286244.12246  -3124873.31646  23714409.3064   23714411.8134
  17918788.15946  13962691.42345  24123896.1734   24123899.4894
   3332869.89547   2598402.54147  22248467.1344   22248467.0634
  -6615150.63947  -5055344.38146  23190764.6104   23190768.0914
 02  9 12  2 29  0.0050000  0  7G29G 8G11G26G27G28G 7
  -6421147.81346  -4835840.02246  23432504.4624   23432506.7354
  10003958.54847   7804521.22947  22235481.2284   22235483.0324
    321945.45745    301362.11044  25579975.3924   25579977.4194
  -4271487.91646  -3113374.90246  23717216.2434   23717219.0674
  18044820.16246  14060898.15245  24147878.9704   24147881.6534
   3391706.95647   2644249.63847  22259663.4784   22259663.5954
  -6636680.75947  -5072120.98046  23186667.6494   23186670.5674
 02  9 12  2 29 30.0050000  0  7G29G 8G11G26G27G28G 7
  -6397006.47546  -4817028.54446  23437099.0484   23437101.2634
  10099353.96747   7878855.33047  22253634.5324   22253636.1734
    341845.85645    316869.00644  25583761.2904   25583762.6034
  -4256194.35446  -3101457.78246  23720126.6734   23720129.2044
  18171125.78646  14159318.08845  24171914.2744   24171918.2824
   3450801.12947   2690297.07247  22270908.7044   22270908.8214
  -6657852.07646  -5088617.97946  23182638.3214   23182641.6614
 02  9 12  2 30  0.0050000  0  7G29G 8G11G26G27G28G 7
  -6372327.40246  -4797798.06146  23441795.1574   23441797.5014
  10195114.36847   7953473.82447  22271856.8684   22271858.2744
    362156.50345    332695.60343  25587626.7204   25587627.6694
  -4240369.65246  -3089126.76846  23723138.3534   23723140.9544
  18297696.90546  14257944.91745  24196000.4234   24196003.0364
   3510143.89947   2736538.22547  22282201.3214   22282201.2164
  -6678670.40447  -5104839.92846  23178677.0714   23178680.5404
 02  9 12  2 30 30.0050000  0  7G29G 8G11G26G27G28G 7
  -6347109.32846  -4778147.56646  23446594.2674   23446596.4354
  10291240.40847   8028377.23947  22290148.5714   22290150.0244
    382879.85345    348843.73443  25591570.4784   25591572.5404
  -4224011.98146  -3076380.44846  23726251.1494   23726253.4934
  18424533.32546  14356778.47045  24220135.7514   24220139.2314
   3569735.29747   2782973.10947  22293540.8844   22293540.9314
  -6699133.69947  -5120785.22746  23174782.8134   23174786.2244
 02  9 12  2 31  0.0050000  0  7G29G 8G11G26G27G28G 7
  -6321354.60046  -4758078.91746  23451494.7354   23451496.8214
  10387728.40547   8103562.69447  22308509.6104   22308510.9814
    404013.97545    365311.99344  25595592.2204   25595594.8804
  -4207123.76446  -3063220.72746  23729464.8924   23729467.5524
  18551630.99946  14455815.58145  24244322.4784   24244325.9814
   3629571.27047   2829598.58147  22304927.1884   22304927.4464
  -6719243.65847  -5136455.20346  23170955.9234   23170959.1574
 02  9 12  2 31 30.0050000  0  7G29G 8G11G26G27G28G 7
  -6295065.10346  -4737593.55746  23456497.7354   23456499.5524
  10484575.38547   8179027.87547  22326939.3214   22326941.1734
    425558.06245    382099.71244  25599691.9464   25599694.3134
  -4189706.55446  -3049648.79446  23732778.7514   23732781.0954
  18678986.42346  14555053.56445  24268557.5324   24268560.5324
   3689648.15447   2876411.76447  22316360.3134   22316360.1964
  -6739001.40847  -5151850.73246  23167195.6814   23167198.6454
 02  9 12  2 32  0.0050000  0  7G29G 8G11G26G27G28G 7
  -6268235.79046  -4716687.55946  23461603.1034   23461604.9894
  10581785.44647   8254775.98147  22345437.0564   22345438.8254
    447518.03845    399211.44744  25603869.1424   25603872.7284
  -4171755.11346  -3035660.57446  23736195.2434   23736197.4464
  18806602.93946  14654494.96545  24292841.7904   24292845.7044
   3749969.27147   2923415.25447  22327838.5014   22327838.1384
  -6758401.50747  -5166967.57646  23163503.8994   23163507.0634
 02  9 12  2 32 30.0050000  0  7G29G 8G11G26G27G28G 7
  -6240870.48547  -4695363.90346  23466810.8134   23466812.6774
  10679353.67947   8330803.17447  22364004.8924   22364006.6614
    469891.11545    416645.09844  25608127.0564   25608130.5244
  -4153272.85846  -3021258.75546  23739711.0174   23739713.7704
  18934475.32346  14754135.75445  24317174.9854   24317178.1264
   3810529.44247   2970605.02347  22339362.5714   22339362.6534
  -6777446.74847  -5181807.91246  23159879.8294   23159882.8174
 02  9 12  2 33  0.0050000  0  7G29G 8G11G26G27G28G 7
  -6212970.98547  -4673624.00846  23472119.8374   23472121.1264
  10777277.27747   8407107.28147  22382638.3064   22382640.1104
    492675.97945    434399.62344  25612463.5244   25612465.6344
  -4134261.40246  -3006444.56346  23743329.1964   23743331.9154
  19062600.23846  14853973.31945  24341557.2044   24341560.4384
   3871325.12747   3017978.31647  22350931.6424   22350931.9704
  -6796138.35547  -5196372.67947  23156323.5484   23156326.4664
 02  9 12  2 33 30.0050000  0  7G29G 8G11G26G27G28G 7
  -6184535.49446  -4651466.43546  23477530.5014   23477532.2944
  10875557.17747   8483689.02147  22401340.2204   22401341.7904
    515875.49045    452477.23944  25616878.1884   25616879.8534
  -4114718.80946  -2991216.48746  23747048.3214   23747050.9464
  19190977.60146  14954007.61445  24365985.7434   24365989.1304
   3932356.59847   3065535.33047  22362545.5954   22362545.3724
  -6814473.82847  -5210659.94747  23152834.0324   23152837.0444
 02  9 12  2 34  0.0060000  0  7G29G 8G11G26G27G28G 7
  -6155562.85047  -4628890.31746  23483043.8734   23483045.7954
  10974195.75447   8560550.26247  22420110.9044   22420112.3934
    539491.67545    470879.54944  25621372.3814   25621374.9474
  -4094643.88846  -2975573.63346  23750868.3964   23750870.8114
  19319610.58545  15054241.07145  24390463.1704   24390467.0254
   3993624.73247   3113276.74747  22374204.0614   22374203.9204
  -6832452.75947  -5224669.38347  23149412.9044   23149415.9044
 02  9 12  2 34 30.0060000  0  7G29G 8G11G26G27G28G 7
  -6126061.38647  -4605902.11946  23488657.6624   23488659.3144
  11073179.20947   8637680.23547  22438946.6464   22438948.4164
    563517.53045    489601.10444  25625944.1464   25625945.6234
  -4074044.17046  -2959521.84046  23754788.0374   23754790.2054
  19448482.76545  15154660.92045  24414987.3424   24414989.7564
   4055117.62247   3161193.31147  22385906.2794   22385906.1394
  -6850079.57147  -5238404.44047  23146058.1704   23146060.9824
 02  9 12  2 35  0.0060000  0  7G29G 8G11G26G27G28G 7
  -6096026.65747  -4582498.40446  23494373.6314   23494375.5064
  11172512.99047   8715083.18047  22457849.3894   22457851.3694
    587957.65745    508645.40344  25630594.5614   25630595.9084
  -4052915.18746  -2943057.62646  23758809.8264   23758811.8184
  19577600.12646  15255271.83745  24439558.1464   24439561.6504
   4116839.16347   3209288.03447  22397651.1864   22397651.2444
  -6867350.81947  -5251862.45447  23142770.9124   23142773.7484
 02  9 12  2 35 30.0060000  0  7G29G 8G11G26G27G28G 7
  -6065459.52246  -4558679.81546  23500189.7794   23500191.9474
  11272195.67547   8792758.00347  22476818.4364   22476820.2754
    612812.23845    528012.74644  25635322.9434   25635324.9124
  -4031257.64847  -2926181.56246  23762931.0454   23762933.2134
  19706960.35246  15356071.97345  24464174.9754   24464177.9754
   4178787.19847   3257559.25447  22409439.6234   22409439.6934
  -6884266.42247  -5265043.32747  23139552.0294   23139555.2054
 02  9 12  2 36  0.0060000  0  7G29G 8G11G26G27G28G 7
  -6034353.45146  -4534441.29746  23506109.0374   23506110.9714
  11372232.57247   8870708.83647  22495854.7954   22495856.3654
    638089.09545    547709.04844  25640134.9824   25640137.6074
  -4009064.53747  -2908888.16746  23767154.1784   23767156.4394
  19836568.57045  15457065.36245  24488837.5144   24488840.6664
   4240966.78947   3306010.91047  22421271.9754   22421271.7644
  -6900819.19347  -5277941.48847  23136402.6934   23136405.8464
 02  9 12  2 36 30.0060000  0  7G29G 8G11G26G27G28G 7
  -6002713.98947  -4509787.14046  23512130.1624   23512132.4364
  11472617.43047   8948930.80747  22514957.7404   22514959.2524
    663783.30145    567730.60345  25645023.2254   25645025.7914
  -3986341.31346  -2891181.70346  23771477.2174   23771479.5614
  19966417.86645  15558246.60145  24513547.3114   24513550.9434
   4303370.97447   3354637.55747  22433147.3654   22433147.0494
  -6917013.75447  -5290560.51746  23133320.2954   23133323.2484
 02  9 12  2 37  0.0060000  0  7G29G 8G11G26G27G28G 7
  -5970540.42447  -4484716.80046  23518252.5684   23518254.6894
  11573349.94847   9027423.68247  22534126.2014   22534128.1234
    689896.73845    588078.80744  25649991.2404   25649993.1394
  -3963086.91346  -2873061.33346  23775902.6074   23775904.4244
  20096507.34145  15659614.99945  24538303.1074   24538306.0614
   4365999.23347   3403438.81847  22445064.9284   22445065.1974
  -6932848.53147  -5302899.19646  23130306.7874   23130309.3774
 02  9 12  2 37 30.0060000  0  7G29G 8G11G26G27G28G 7
  -5937833.53946  -4459230.88246  23524475.8184   23524478.1034
  11674428.38147   9106186.10047  22553359.9674   22553361.7954
    716429.32345    608753.65944  25655041.5454   25655043.9594
  -3939301.87246  -2854527.47946  23780428.8114   23780430.8144
  20226834.99945  15761168.99045  24563102.8894   24563106.4284
   4428849.28347   3452412.91047  22457024.7324   22457025.0144
  -6948323.66747  -5314957.63246  23127362.3654   23127365.1194
 02  9 12  2 38  0.0060000  0  7G29G 8G11G26G27G28G 7
  -5904591.76747  -4433328.16746  23530802.3654   23530804.2644
  11775853.56647   9185218.71547  22572660.8184   22572662.5414
    743383.72145    629757.12945  25660170.1624   25660172.8934
  -3914984.35847  -2835578.70246  23785056.4594   23785058.3694
  20357400.59745  15862908.36645  24587948.3734   24587952.6974
   4491921.49047   3501560.11547  22469026.8964   22469026.7094
  -6963436.70347  -5326733.92146  23124486.6464   23124489.2714
 02  9 12  2 38 30.0060000  0  7G29G 8G11G26G27G28G 7
  -5870813.33547  -4407007.28446  23537229.8114   23537231.7324
  11877626.21647   9264522.09147  22592027.9284   22592029.2874
    770762.62545    651091.45244  25665380.8424   25665383.6074
  -3890132.49347  -2816213.56146  23789785.7014   23789787.4244
  20488204.70145  15964833.61045  24612840.4364   24612843.7284
   4555215.96247   3550880.49847  22481071.4204   22481071.4784
  -6978185.19947  -5338226.14646  23121679.6784   23121682.6194
 02  9 12  2 39  0.0060000  0  7G29G 8G11G26G27G28G 7
  -5836502.20847  -4380271.30546  23543759.2484   23543761.0184
  11979741.72247   9344092.61847  22611459.6074   22611461.0254
    798562.93745    672754.12644  25670669.9204   25670670.8574
  -3864749.87047  -2796434.84346  23794615.9364   23794618.3144
  20619241.82445  16066940.45945  24637775.1704   24637778.6154
   4618727.92247   3600370.35847  22493157.3734   22493157.6074
  -6992572.04647  -5349436.57446  23118941.6934   23118944.4364
 02  9 12  2 39 30.0060000  0  7G29G 8G11G26G27G28G 7
  -5801657.78847  -4353119.77346  23550389.5764   23550391.6744
  12082199.69047   9423930.00947  22630957.2014   22630958.9474
    826785.99545    694746.18644  25676040.4824   25676042.7444
  -3838835.51747  -2776241.79246  23799547.5064   23799549.3344
  20750511.41845  16169228.40545  24662755.3964   24662759.9784
   4682456.56847   3650029.06847  22505284.4434   22505284.5374
  -7006595.87447  -5360364.12747  23116272.6864   23116275.3344
 02  9 12  2 40  0.0060000  0  7G29G 8G11G26G27G28G 7
  -5766277.43446  -4325550.63046  23557122.2714   23557124.4044
  12185001.97847   9504035.69447  22650519.7324   22650521.7364
    855435.71245    717070.73844  25681492.3034   25681494.2714
  -3812386.60847  -2755632.19546  23804579.9434   23804581.9364
  20882014.50245  16271698.34945  24687779.1934   24687783.2954
   4746403.34247   3699857.73547  22517453.4364   22517453.0964
  -7020253.25347  -5371006.12747  23113673.9594   23113676.7834
 02  9 12  2 40 30.0060000  0  7G29G 8G11G26G27G28G 7
  -5730365.20647  -4297567.03546  23563955.9284   23563958.1784
  12288143.73447   9584405.90247  22670146.1544   22670148.0184
    884508.71045    739725.11444  25687027.0764   25687028.5294
  -3785407.04946  -2734609.12346  23809713.3034   23809715.6584
  21013745.74945  16374346.02945  24712847.6544   24712852.7644
   4810563.01447   3749852.30547  22529661.9514   22529661.9164
  -7033547.35247  -5381365.06347  23111144.0294   23111146.8534
 02  9 12  2 41  0.0060000  0  7G29G 8G11G26G27G28G 7
  -5693921.52747  -4269169.31346  23570891.0214   23570892.8034
  12391623.64747   9665039.60747  22689839.0684   22689840.4864
    914005.65045    762709.79744  25692638.8264   25692641.8964
  -3757896.70146  -2713172.43946  23814948.5214   23814950.7834
  21145703.52845  16477170.26145  24737958.1544   24737961.4824
   4874934.06747   3800011.58647  22541912.0294   22541912.3814
  -7046477.60847  -5391440.48147  23108683.3894   23108685.8734
 02  9 12  2 41 30.0060000  0  7G29G 8G11G26G27G28G 7
  -5656943.79847  -4240355.45546  23577927.8424   23577929.3774
  12495443.86447   9745938.49047  22709594.2484   22709596.0064
    943930.25345    786027.75945  25698333.9984   25698336.4944
  -3729853.01147  -2691320.16346  23820285.3034   23820287.8114
  21277889.05545  16580171.91645  24763112.8114   24763115.6234
   4939517.84247   3850336.63347  22554201.8504   22554201.8384
  -7059040.57947  -5401229.71547  23106292.7874   23106295.2014
 02  9 12  2 42  0.0060000  0  7G29G 8G11G26G27G28G 7
  -5619426.70347  -4211121.30246  23585067.5454   23585069.0454
  12599608.44047   9827105.69947  22729416.6074   22729418.1544
    974288.29845    809683.48044  25704108.5924   25704112.0724
  -3701270.26047  -2669047.83946  23825724.4124   23825726.1824
  21410306.17545  16683354.07345  24788310.1314   24788313.2834
   5004318.26447   3900830.48647  22566532.6784   22566532.4084
  -7071230.12947  -5410727.96847  23103973.2714   23103975.6744
 02  9 12  2 42 30.0060000  0  7G29G 8G11G26G27G28G 7
  -5581381.93147  -4181475.99046  23592306.6314   23592308.2014
  12704105.04747   9908531.64647  22749301.3424   22749302.8534
   1005069.90545    833669.19244  25709967.4514   25709969.6544
  -3672159.87347  -2646364.37346  23831264.5764   23831266.3344
  21542942.10345  16786706.70645  24813550.9124   24813553.9714
   5069323.03847   3951483.57447  22578902.4284   22578902.5104
  -7083056.95347  -5419943.57847  23101722.2564   23101724.7174
 02  9 12  2 43  0.0060000  0  7G29G 8G11G26G27G28G 7
  -5542801.67646  -4151413.40046  23599647.5144   23599649.3304
  12808941.30547   9990222.24047  22769251.6394   22769253.1394
   1036283.62345    857991.65844  25715906.9364   25715908.3424
  -3642513.59247  -2623263.32046  23836905.5374   23836907.4004
  21675803.32645  16890234.92445  24838832.6314   24838835.5494
   5134539.28747   4002301.45247  22591312.4434   22591312.5614
  -7094512.18247  -5428869.62647  23099542.9904   23099545.7564
 02  9 12  2 43 30.0060000  0  7G29G 8G11G26G27G28G 7
  -5503684.06346  -4120932.09546  23607091.6074   23607092.9204
  12914117.40247  10072177.65247  22789265.5144   22789267.2364
   1067931.86045    882652.68044  25721929.9984   25721933.2094
  -3612329.71447  -2599743.37146  23842648.8734   23842650.6894
  21808890.32945  16993939.02345  24864158.4904   24864160.9754
   5199966.84147   4053283.98347  22603763.1464   22603763.1934
  -7105593.37447  -5437504.22847  23097434.1864   23097436.2604
 02  9 12  2 44  0.0060000  0  7G29G 8G11G26G27G28G 7
  -5464031.68446  -4090034.09746  23614636.8344   23614638.6624
  13019630.69947  10154395.81347  22809343.7174   22809345.1824
   1100013.28945    907651.25644  25728033.3574   25728035.7714
  -3581610.17147  -2575806.01246  23848495.0844   23848496.5614
  21942199.30745  17097816.14545  24889526.5764   24889530.1624
   5265602.72947   4104428.85147  22616253.2564   22616253.2324
  -7116301.98847  -5445848.51547  23095395.9434   23095398.2174
 02  9 12  2 44 30.0060000  0  7G29G 8G11G26G27G28G 7
  -5423847.75946  -4058721.89746  23622283.1864   23622285.2604
  13125476.84347  10236873.34247  22829485.7644   22829487.2404
   1132525.64345    932985.66544  25734220.3264   25734223.4084
  -3550358.00547  -2551453.61746  23854442.1154   23854443.9434
  22075725.83445  17201862.76545  24914935.6004   24914939.5844
   5331442.56647   4155732.63747  22628782.3264   22628782.1394
  -7126640.37847  -5453904.29647  23093428.5064   23093431.1314
 02  9 12  2 45  0.0060000  0  7G29G 8G11G26G27G28G 7
  -5383131.56546  -4026994.95546  23630031.9434   23630033.8184
  13231656.42547  10319610.68547  22849691.1934   22849692.9754
   1165470.22845    958656.82344  25740489.7404   25740490.9824
  -3518572.18547  -2526685.39246  23860490.1314   23860492.2404
  22209469.41745  17306078.52645  24940386.5924   24940389.5804
   5397486.28547   4207195.28947  22641350.4824   22641350.2134
  -7136606.75347  -5461670.20947  23091531.5924   23091533.9944
 02  9 12  2 45 30.0060000  0  7G29G 8G11G26G27G28G 7
  -5341881.47546  -3994851.99046  23637880.9284   23637883.1194
  13338170.06047  10402608.31747  22869959.4364   22869961.6974
   1198850.40145    984667.43944  25746843.3184   25746844.8074
  -3486250.85847  -2501499.89046  23866641.1314   23866642.9474
  22343430.55045  17410463.79445  24965878.3574   24965880.7714
   5463734.56047   4258817.34847  22653956.3114   22653956.5214
  -7146198.47347  -5469144.18447  23089706.9364   23089709.2684
 02  9 12  2 46  0.0060000  0  7G29G 8G11G26G27G28G 7
  -5300098.47847  -3962293.77246  23645832.8424   23645834.6114
  13445016.31547  10485865.14647  22890292.3344   22890294.1034
   1232666.07845   1011017.37744  25753278.1154   25753279.9784
  -3453394.67647  -2475897.61646  23872892.9044   23872895.3184
  22477607.05645  17515016.90045  24991411.1704   24991413.7484
   5530185.54547   4310597.36347  22666601.8184   22666601.4904
  -7155415.45847  -5476326.15947  23087952.4984   23087954.8304
 02  9 12  2 46 30.0060000  0  7G29G 8G11G26G27G28G 7
  -5257783.60046  -3929321.11646  23653884.4754   23653886.4434
  13552193.20447  10569379.60547  22910686.7644   22910688.0644
   1266916.90145   1037706.38644  25759794.0454   25759796.3074
  -3420004.49147  -2449879.22446  23879247.2564   23879249.1544
  22611996.62345  17619736.02345  25016983.7484   25016987.4164
   5596837.05347   4362533.61547  22679285.3424   22679284.9904
  -7164258.02347  -5483216.36947  23086270.3814   23086272.5374
 02  9 12  2 47  0.0060000  0  7G29G 8G11G26G27G28G 7
  -5214936.65946  -3895933.85746  23662037.7564   23662039.8074
  13659700.25747  10653151.34847  22931145.4204   22931147.1434
   1301604.10745   1064735.44245  25766396.0214   25766397.5334
  -3386079.88947  -2423444.41346  23885702.8964   23885705.4164
  22746598.38645  17724620.49145  25042598.6624   25042602.6354
   5663688.71447   4414625.84447  22692006.2014   22692006.3304
  -7172724.90547  -5489813.84047  23084658.3574   23084660.8534
 02  9 12  2 47 30.0060000  0  7G29G 8G11G26G27G28G 7
  -5171557.59446  -3862131.96546  23670293.1934   23670295.4904
  13767537.03847  10737180.00346  22951665.2014   22951666.9944
   1336728.90545   1092105.46444  25773079.1234   25773083.6584
  -3351620.43746  -2396592.82846  23892259.6934   23892262.2364
  22881411.19545  17829669.39345  25068252.7094   25068256.8934
   5730739.57347   4466873.29847  22704765.4674   22704765.9244
  -7180814.91747  -5496117.65447  23083118.8344   23083121.2014
 02  9 12  2 48  0.0060000  0  7G29G 8G11G26G27G28G 7
  -5127644.94146  -3827914.29646  23678649.3504   23678651.4824
  13875704.65447  10821466.46247  22972249.7174   22972251.3574
   1372293.82045   1119818.46944  25779846.6864   25779847.2954
  -3316624.19946  -2369322.98746  23898919.1154   23898921.6824
  23016435.52745  17934883.12745  25093946.9674   25093951.0924
   5797990.69047   4519276.79347  22717563.3964   22717563.4204
  -7188525.49547  -5502125.79947  23081651.2644   23081653.5724
 02  9 12  2 48 30.0060000  0  7G29G 8G11G26G27G28G 7
  -5083198.27247  -3793280.51146  23687107.5924   23687109.5024
  13984202.64347  10906010.35947  22992895.3504   22992897.1894
   1408300.26845   1147875.50644  25786697.4514   25786699.6664
  -3281090.71147  -2341634.50346  23905681.2874   23905683.4434
  23151670.55245  18040261.02845  25119682.6784   25119686.4634
   5865441.56347   4571835.93647  22730398.6154   22730398.4164
  -7195855.39247  -5507837.32047  23080256.8894   23080259.0104
 02  9 12  2 49  0.0060000  0  7G29G 8G11G26G27G28G 7
  -5038221.42847  -3758233.59546  23695666.2094   23695667.9784
  14093026.88647  10990808.48246  23013604.3734   23013605.9434
   1444745.57545   1176274.50244  25793633.2324   25793635.5884
  -3245023.39846  -2313530.04846  23912543.7324   23912546.0294
  23287111.62145  18145799.52345  25145453.2094   25145457.4394
   5933087.69647   4624547.23247  22743271.3264   22743271.2564
  -7202807.30647  -5513254.30047  23078933.4284   23078935.4904
 02  9 12  2 49 30.0060000  0  7G29G 8G11G26G27G28G 7
  -4992710.51746  -3722770.54346  23704326.4904   23704328.2484
  14202180.29047  11075863.09446  23034375.3734   23034376.9904
   1481634.47545   1205019.16845  25800653.1784   25800655.2404
  -3208418.28447  -2285006.53746  23919510.5214   23919512.6314
  23422761.07745  18251500.36945  25171267.1234   25171271.4364
   6000932.03947   4677412.98047  22756181.8654   22756182.1584
  -7209376.34447  -5518372.93547  23077683.6464   23077686.0614
 02  9 12  2 50  0.0060000  0  7G29G 8G11G26G27G28G 7
  -4946667.00246  -3686892.47046  23713088.4904   23713090.2254
  14311661.31047  11161172.99747  23055208.9044   23055210.6974
   1518966.66545   1234109.21445  25807757.5144   25807759.8344
  -3171276.34147  -2256064.71346  23926578.3344   23926580.4434
  23558616.75445  18357361.89445  25197120.3114   25197123.9434
   6068972.63047   4730431.64347  22769129.7404   22769129.7404
  -7215562.78447  -5523193.44347  23076506.1004   23076508.1274
 02  9 12  2 50 30.0070000  0  7G29G 8G11G26G27G28G 7
  -4900087.98346  -3650597.12346  23721951.7224   23721953.2694
  14421474.12747  11246741.43646  23076105.8474   23076107.8744
   1556746.08145                  25814946.5194
  -3133594.68347  -2226702.34046  23933748.8154   23933750.6204
  23694683.44445  18463387.86545  25223014.0584   25223017.5854
   6137212.45947   4783605.56147  22782114.8704   22782115.0114
  -7221364.49747  -5527714.17147  23075402.6594   23075404.3004
 02  9 12  2 51  0.0070000  0  7G29G 8G11G26G27G28G 7
  -4852976.26847  -3613886.68446  23730916.9334   23730918.5974
  14531611.27147  11332562.59946  23097064.1514   23097065.3114
   1594971.07145                  25822220.0424
  -3095375.44647  -2196921.07546  23941021.4014   23941023.2414
  23830951.23145  18569570.52145  25248944.0734   25248947.9404
   6205646.53647   4836930.83847  22795137.1834   22795136.9724
  -7226779.72947  -5531933.74447  23074371.8234   23074373.8154
 02  9 12  2 51 30.0070000  0  7G29G 8G11G26G27G28G 7
  -4805330.35846  -3576760.00146  23739983.6284   23739985.2574
  14642075.79947  11418638.88046  23118085.4404   23118086.6714
   1633644.01545                  25829579.1044
  -3056617.05347  -2166719.68646  23948396.7764   23948398.6044
  23967423.68245  18675912.65045  25274913.4254   25274917.2804
   6274276.40747   4890408.69047  22808197.2294   22808197.2764
  -7231807.67847  -5535851.53347  23073415.1444   23073417.3354
 02  9 12  2 52  0.0070000  0  7G29G 8G11G26G27G28G 7
  -4757153.32846  -3539219.44046  23749151.7224   23749153.4334
  14752864.10047  11504967.43246  23139166.9254   23139168.7534
   1672762.89745                  25837023.7694
  -3017322.29947  -2136100.36146  23955874.4724   23955876.0304
  24104096.66845  18782411.07645  25300921.1204   25300925.8434
   6343098.52747   4944036.33047  22821293.5584   22821293.7694
  -7236450.22847  -5539469.01447  23072531.6284   23072533.6554
 02  9 12  2 52 30.0070000  0  7G29G 8G11G26G27G28G 7
  -4708443.27747  -3501263.54946  23758421.1444   23758422.7964
  14863977.97847  11591549.66946  23160311.8084   23160313.7184
   1712330.72445     14430.80654  25844552.8864   25844555.3944
  -2977488.83647  -2105061.26246  23963454.7534   23963456.5224
  24240971.34045  18889066.61545  25326969.1364   25326972.7224
   6412114.56347   4997815.09147  22834426.7294   22834426.8354
  -7240704.40447  -5542783.86447  23071721.4724   23071723.4524
 02  9 12  2 53  0.0070000  0  7G29G 8G11G26G27G28G 7
  -4659202.14246  -3462893.82246  23767791.0194   23767792.3194
  14975414.61547  11678383.42746  23181517.1984   23181518.3354
   1752346.74945     45612.17644  25852167.9334   25852169.6084
  -2937118.49847  -2073603.82346  23971136.3394   23971138.0264
  24378044.49745  18995876.84445  25353052.3394   25353055.9724
   6481321.73747   5051742.79247  22847596.9644   22847596.6594
  -7244571.02247  -5545796.72347  23070985.5114   23070987.5734
 02  9 12  2 53 30.0070000  0  7G29G 8G11G26G27G28G 7
  -4609427.81947  -3424108.62046  23777262.9014   23777264.4834
  15087175.67247  11765469.97946  23202784.5424   23202786.0194
   1792814.34945     77145.40744  25859869.7144   25859871.0734
  -2896208.75147  -2041726.06446  23978921.8234   23978923.2884
  24515317.52745  19102842.81445  25379174.8474   25379177.6244
   6550721.77647   5105820.75847  22860802.6364   22860802.4834
  -7248046.79347  -5548505.02847  23070324.2844   23070326.1364
 02  9 12  2 54  0.0070000  0  7G29G 8G11G26G27G28G 7
  -4559119.80947  -3384907.55846  23786836.0894   23786837.4954
  15199261.48047  11852809.55746  23224114.0424   23224115.9874
   1833734.61445    109031.43044  25867654.6984   25867657.4294
  -2854758.96047  -2009427.49646  23986809.0114   23986810.9794
  24652789.90545  19209964.12044  25405334.9174   25405338.3864
   6620314.89447   5160049.18947  22874046.0424   22874046.4404
  -7251130.21247  -5550907.61347  23069737.7924   23069739.5154
 02  9 12  2 54 30.0070000  0  7G29G 8G11G26G27G28G 7
  -4508288.10147  -3345298.41746  23796508.9174   23796510.6164
  15311661.46347  11940393.95246  23245503.1044   23245504.6404
   1875098.83645    141263.33644  25875525.6984   25875527.8084
  -2812778.77747  -1976715.63946  23994797.5974   23994799.4134
  24790450.64245  19317232.20245  25431530.6124   25431534.6084
   6690090.17747   5214419.56547  22887323.8474   22887323.8944
  -7253830.12447  -5553011.34947  23069223.4564   23069225.3314
 02  9 12  2 55  0.0070000  0  7G29G 8G11G26G27G28G 7
  -4456924.83746  -3305275.08146  23806282.7374   23806284.5774
  15424383.10047  12028228.99846  23266953.1904   23266954.4794
   1916916.10445    173848.30244  25883485.2064   25883486.2724
  -2770260.04047  -1943584.12646  24002888.6984   24002890.6674
  24928306.94345  19424652.65545  25457764.6364   25457767.9174
   6760055.60247   5268938.10347  22900638.0424   22900637.7374
  -7256137.42047  -5554809.15247  23068784.4484   23068786.3004
 02  9 12  2 55 30.0070000  0  7G29G 8G11G26G27G28G 7
  -4405026.56047  -3264834.85046  23816159.4404   23816161.0464
  15537429.47147  12116317.08346  23288464.7534   23288466.2184
   1959190.64945    206789.57544  25891528.4874   25891530.8544
  -2727199.03346  -1910030.06646  24011082.6044   24011084.6444
  25066361.18245  19532227.36444  25484034.7844   25484038.7694
   6830214.00947   5323607.01347  22913988.2534   22913988.2884
  -7258047.57047  -5556297.50147  23068421.0264   23068422.9954
 02  9 12  2 56  0.0070000  0  7G29G 8G11G26G27G28G 7
  -4352597.26746  -3223980.83346  23826136.1204   23826137.9254
  15650796.29147  12204654.85746  23310038.5894   23310040.1474
   2001919.87145    240085.10244  25899660.4014   25899662.4294
  -2683599.43547  -1876056.32646  24019379.5814   24019381.6444
  25204608.63445  19639952.61744  25510341.8154   25510345.9054
   6900561.09947   5378422.94947  22927375.0424   22927375.2654
  -7259563.24547  -5557478.45847  23068132.1514   23068134.3904
 02  9 12  2 56 30.0070000  0  7G29G 8G11G26G27G28G 7
  -4299637.53546  -3182713.50046  23836213.5114   23836215.2924
  15764482.71247  12293241.67646  23331671.6124   23331673.3114
   2045104.31345    273735.36344  25907877.3314   25907879.5114
  -2639461.42946  -1841663.04146  24027778.1124   24027780.4214
  25343048.00145  19747827.43544  25536686.3084   25536689.4834
   6971096.16647   5433385.36247  22940797.6754   22940797.7804
  -7260683.84947  -5558351.56947  23067919.0974   23067921.2184
 02  9 12  2 57  0.0070000  0  7G29G 8G11G26G27G28G 7
  -4246148.92446  -3141034.04546  23846391.8004   23846393.1834
  15878486.71147  12382075.95346  23353366.3314   23353367.9484
   2088743.57945    307740.04945  25916181.7454   25916182.8114
  -2594786.38847  -1806851.29446  24036279.8394   24036281.8904
  25481676.77145  19855849.81644  25563066.5734   25563070.8624
   7041817.29647   5488492.75847  22954255.4174   22954255.3004
  -7261409.78147  -5558917.15247  23067781.0734   23067782.8664
 02  9 12  2 57 30.0070000  0  7G29G 8G11G26G27G28G 7
  -4192130.11046  -3098941.43746  23856671.8544   23856673.8114
  15992809.02847  12471158.27146  23375120.8944   23375122.3234
   2132839.64545    342100.69545  25924573.0344   25924574.3584
  -2549572.74647  -1771619.86346  24044883.6984   24044885.9134
  25620495.40044  19964020.15944  25589482.0424   25589485.4054
   7112725.32747   5543745.79447  22967748.6674   22967748.6324
  -7261738.55647  -5559173.26547  23067718.6514   23067720.4444
 02  9 12  2 58  0.0070000  0  7G29G 8G11G26G27G28G 7
  -4137582.60846  -3056436.87046  23867051.2534   23867052.8704
  16107448.33747  12560487.60746  23396936.0654   23396937.8584
   2177392.44045    376817.21344  25933051.8704   25933053.0774
  -2503821.60947  -1735969.60346  24053590.2454   24053592.1084
  25759501.60845  20072336.64244  25615935.6674   25615939.6514
   7183818.76147   5599143.30147  22981277.2694   22981277.1864
  -7261670.60347  -5559120.23247  23067731.1594   23067733.2574
 02  9 12  2 58 30.0070000  0  7G29G 8G11G26G27G28G 7
  -4082503.28646  -3013517.91146  23877532.9094   23877534.8314
  16222407.22047  12650065.94246  23418811.3704   23418813.5854
   2222406.20845    411892.94044  25941616.3784   25941615.6864
  -2457529.68447  -1699897.94246  24062399.3704   24062401.3864
  25898697.89844  20180801.27143  25642423.1204   25642429.6014
   7255100.60647   5654687.61747  22994841.4174   22994841.4054
  -7261201.16547  -5558754.34847  23067820.3864   23067822.3194
 02  9 12  2 59  0.0070000  0  7G29G 8G11G26G27G28G 7
  -4026898.53146  -2970189.51946  23888114.6754   23888116.5034
  16337679.03947  12739888.14446  23440747.2694   23440748.6634
   2267875.77645    447323.83644  25950269.8154   25950270.9524
  -2410702.85447  -1663409.48646  24071310.0114   24071311.7804
  26038077.02945  20289408.35044  25668947.3944   25668950.7574
   7326564.32447   5710373.65647  23008440.9254   23008440.9364
  -7260335.67947  -5558079.86147  23067985.3624   23067987.1674
 02  9 12  2 59 30.0070000  0  7G29G 8G11G26G27G28G 7
  -3970768.14047  -2926451.53046  23898795.3784   23898796.9604
  16453263.57947  12829954.02246  23462742.1754   23462743.8744
   2313802.32545    483110.79745  25959006.7454   25959009.3584
  -2363340.90947  -1626504.04146  24080322.9954   24080324.7184
  26177638.46244  20398157.47943  25695503.1904   25695507.7614
   7398209.82447   5766201.35147  23022074.2144   23022074.2374
  -7259072.94947  -5557095.84347  23068225.2294   23068227.0464
 02  9 12  3  0  0.0070000  0  7G29G 8G11G26G27G28G 7
  -3914111.62846  -2882303.59546  23909576.3704   23909578.3744
  16569161.35447  12920263.96746  23484797.1364   23484799.2454
   2360187.60445    519255.20244  25967835.2614   25967837.6044
  -2315442.89447  -1589180.89846  24089437.3624   24089439.2264
  26317382.02845  20507048.54743  25722097.2374   25722100.8474
   7470037.42547   5822170.93147  23035742.6284   23035742.6864
  -7257410.74047  -5555800.53247  23068541.0814   23068543.0734
 02  9 12  3  0 30.0070000  0  7G29G 8G11G26G27G28G 7
  -3856930.51846  -2837746.86946  23920457.9404   23920459.8044
  16685370.53147  13010816.57446  23506911.0894   23506912.5304
   2407031.10145    555756.74445  25976749.2224   25976751.3194
  -2267009.95047  -1551440.91846  24098653.7224   24098655.6324
  26457305.43645  20616079.73743  25748722.7144   25748726.6404
   7542045.67547   5878281.28047  23049445.3864   23049445.3274
  -7255349.57047  -5554194.35147  23068933.8004   23068935.6634
 02  9 12  3  1  0.0070000  0  7G29G 8G11G26G27G28G 7
  -3799219.88246  -2792777.52546  23931439.9014   23931441.6124
  16801895.65347  13101615.37746  23529085.1514   23529086.6984
   2454338.78945    592619.90044  25985752.6204   25985754.9404
  -2218037.04647  -1513280.19946  24107972.9174   24107974.7924
  26597413.15644  20725254.56444  25775383.7374   25775387.7224
   7614239.24947   5934536.03947  23063183.1444   23063183.2494
  -7252883.10447  -5552272.35647  23069402.8544   23069404.7414
 02  9 12  3  1 30.0070000  0  7G29G 8G11G26G27G28G 7
  -3740983.69446  -2747398.66146  23942522.1514   23942523.9214
  16918732.61447  13192657.16546  23551318.2614   23551319.9484
   2502108.03445    629842.74844  25994841.9094   25994843.6554
  -2168527.87447  -1474701.60046  24117393.9404   24117395.8154
  26737700.06344  20834568.99043  25802079.1044   25802082.5614
   7686614.19647   5990932.13047  23076955.4794   23076955.7374
  -7250014.24447  -5550036.80247  23069948.5894   23069950.5224
 02  9 12  3  2  0.0070000  0  7G29G 8G11G26G27G28G 7
  -3682224.46446  -2701612.23646  23953703.0974   23953704.9834
  17035879.02947  13283940.07546  23573610.9174   23573612.4404
   2550337.53645    667424.24744  26004019.1444   26004020.7724
  -2118484.51947  -1435706.76746  24126916.5894   24126918.4764
  26878163.47443  20944020.95843  25828808.9644   25828813.0894
   7759168.22847   6047467.76847  23090762.3394   23090762.1864
  -7246744.06347  -5547488.53947  23070571.3704   23070572.9874
 02  9 12  3  2 30.0070000  0  7G29G 8G11G26G27G28G 7
  -3622944.43546  -2655419.99246  23964983.8394   23964985.3974
  17153331.77947  13375461.70046  23595961.4484   23595962.9014
   2599025.65845    705363.09444  26013283.0894   26013284.7764
  -2067908.98347  -1396297.23646  24136541.5424   24136543.0074
  27018800.34143  21053608.06443  25855572.5194   25855575.2144
   7831899.02447   6104141.14047  23104603.0424   23104602.7494
  -7243073.64447  -5544628.40147  23071269.8314   23071271.7654
 02  9 12  3  3  0.0070000  0  7G29G 8G11G26G27G28G 7
  -3563138.06846  -2608817.61046  23976365.4014   23976366.8434
  17271097.03947  13467226.83346  23618370.9174   23618372.2764
   2648179.96745    743665.18644  26022637.7144   26022639.3904
  -2016795.47846  -1356468.50346  24146267.4014   24146269.2764
  27159615.69444  21163334.25843  25882368.9174   25882371.9174
   7904812.20747   6160956.62947  23118477.0344   23118477.0814
  -7238995.90247  -5541450.87547  23072045.4954   23072047.2534
 02  9 12  3  3 30.0070000  0  7G29G 8G11G26G27G28G 7
  -3502812.12946  -2561810.36546  23987844.4174   23987846.3044
  17389167.60647  13559229.87246  23640839.6984   23640841.1634
   2697794.41545    782325.85344  26032079.1204   26032082.7294
  -1965150.24847  -1316225.44446  24156095.6044   24156097.5034
  27300602.23144  21273193.89942  25909198.0654   25909202.4364
   7977901.23847   6217909.15347  23132385.4094   23132385.7964
  -7234516.29247  -5537960.19747  23072897.7144   23072899.2724
 02  9 12  3  4  0.0070000  0  7G29G 8G11G26G27G28G 7
  -3441964.64346  -2514396.72146  23999423.0734   23999424.8084
  17507544.92347  13651471.93846  23663365.8864   23663367.5614
   2747871.70945    821347.17444  26041608.3544   26041610.4764
  -1912971.41547  -1275566.59146  24166024.2924   24166025.8514
  27441760.98943  21383187.74742  25936059.1674   25936061.1014
   8051167.95147   6275000.12447  23146328.0584   23146328.0694
  -7229631.95147  -5534154.15647  23073827.3314   23073828.7374
 02  9 12  3  4 30.0070000  0  7G29G 8G11G26G27G28G 7
  -3380598.46046  -2466578.89746  24011101.1124   24011102.9294
  17626226.45447  13743951.05146  23685949.9254   23685951.2024
   2798410.66145    860728.23944  26051226.0734   26051228.8154
  -1860261.30847  -1234493.76346  24176055.1044   24176056.3114
  27583088.73742  21493313.25541  25962953.5034   25962959.3394
   8124609.69447   6332227.48147  23160303.3084   23160303.2024
  -7224344.02747  -5530033.62247  23074833.4094   23074835.2264
 02  9 12  3  5  0.0070000  0  7G29G 8G11G26G27G28G 7
  -3318712.14146  -2418355.78746  24022876.5894   24022878.6984
  17745213.59047  13836668.29746  23708592.2694   23708593.8744
   2849413.70845    900470.92044  26060931.8394   26060934.3354
  -1807018.21547  -1193005.60246  24186187.2294   24186189.1044
  27724586.26241                  25989877.5194
   8198228.10047   6389592.50647  23174312.0894   23174311.8784
  -7218649.71447  -5525596.42447  23075916.8084   23075918.5774
 02  9 12  3  5 30.0070000  0  7G29G 8G11G26G27G28G 7
  -3256312.97947  -2369733.05146  24034752.3154   24034753.6514
  17864498.60246  13929617.64746  23731291.2844   23731293.4294
   2900874.63145    940570.38444  26070724.5114   26070726.4794
  -1753249.19547  -1151107.64046  24196419.2454   24196420.7454
  27866246.03741                  26016835.9724
   8272016.10047   6447089.67547  23188353.5424   23188353.6944
  -7212555.25947  -5520847.43847  23077076.5734   23077078.1084
 02  9 12  3  6  0.0070000  0  7G29G 8G11G26G27G28G 7
  -3193392.99046  -2320704.47246  24046724.4174   24046726.4334
  17984089.59247  14022805.41746  23754049.1284   23754051.0154
   2952802.77845    981033.96144  26080606.1594   26080609.0194
  -1698945.87747  -1108793.33846  24206752.1444   24206754.3004
     23644.48551                  26043828.7694
   8345981.98647   6504725.46647  23202429.0814   23202429.0224
  -7206051.05947  -5515779.16247  23078314.1204   23078315.6324
 02  9 12  3  6 30.0070000  0  6G29G 8G11G26G28G 7
  -3129953.22246  -2271270.88846  24058797.1754   24058798.9214
  18103985.39847  14116230.71946  23776864.8784   23776866.2494
   3005198.10545   1021861.52644  26090574.8544   26090577.3154
  -1644109.13247  -1066063.37046  24217187.7374   24217189.3784
   8420124.66947   6562499.00647  23216538.0344   23216537.8584
  -7199136.93947  -5510391.47047  23079629.8864   23079631.3974
 02  9 12  3  7  0.0080000  0  6G29G 8G11G26G28G 7
  -3065989.97646  -2221429.39746  24070968.5554   24070970.1484
  18224191.58546  14209897.86246  23799738.6094   23799740.5314
   3058065.27745   1063056.78045  26100637.0624   26100637.9184
  -1588735.04847  -1022914.71546  24227724.8364   24227726.7934
   8494448.83147   6620413.95947  23230681.1254   23230680.9374
  -7191809.62447  -5504681.81347  23081024.3914   23081025.8794
 02  9 12  3  7 30.0080000  0  6G29G 8G11G26G28G 7
  -3001511.80546  -2171186.63946  24083238.6414   24083240.0824
  18344695.94446  14303797.35046  23822669.6094   23822671.0864
   3111397.69945   1104614.52044  26110786.1954   26110788.2234
  -1532831.53447   -979353.49946  24238362.8984   24238364.7854
   8568945.31947   6678463.20247  23244857.5554   23244857.4844
  -7184072.56347  -5498652.87147  23082496.5704   23082498.0004
 02  9 12  3  8  0.0080000  0  6G29G 8G11G26G28G 7
  -2936521.48646  -2120544.81546  24095606.0084   24095607.3094
  18465497.45346  14397928.39146  23845657.3204   23845658.4454
   3165193.10945   1146533.09044  26121022.2424   26121023.8834
  -1476401.33347   -935381.88546  24249101.3984   24249103.2854
   8643612.19047   6736645.20347  23259066.2894   23259066.2194
  -7175929.04947  -5492307.21247  23084046.1874   23084047.6764
 02  9 12  3  8 30.0080000  0  6G29G 8G11G26G28G 7
  -2871017.87446  -2069503.03646  24108071.3284   24108073.1334
  18586597.21646  14492291.82646  23868702.1724   23868704.3404
   3219454.15745   1188814.46045  26131348.6954   26131348.5084
  -1419442.81447   -890998.59446  24259940.1484   24259941.6604
   8718450.89347   6794961.10147  23273307.9844   23273308.0434
  -7167376.44947  -5485642.78747  23085673.3914   23085674.9024
 02  9 12  3  9  0.0080000  0  6G29G 8G11G26G28G 7
  -2805000.55046  -2018060.95846  24120633.4614   24120635.0554
  18707995.87346  14586888.17446  23891804.0394   23891805.8324
   3274182.23345   1231459.75744  26141761.7974   26141763.6604
  -1361955.52647   -846203.28046  24270879.3444   24270880.8914
   8793462.23647   6853411.52547  23287581.8054   23287581.6054
  -7158413.09547  -5478658.29147  23087379.2664   23087380.8364
 02  9 12  3  9 30.0080000  0  6G29G 8G11G26G28G 7
  -2738473.42446  -1966221.63446  24133293.0784   24133294.3204
  18829689.20247  14681714.13346  23914961.4924   23914963.1914
   3329374.76645   1274467.02544  26152264.5944   26152265.5784
  -1303942.90147   -800998.59746  24281918.7814   24281920.0824
   8868642.95347   6911993.92147  23301887.9064   23301887.5784
  -7149041.38647  -5471355.60447  23089162.4144   23089164.0434
 02  9 12  3 10  0.0080000  0  6G29G 8G11G26G28G 7
  -2671435.11446  -1913983.99046  24146049.4064   24146051.0824
  18951679.01746  14776771.11746  23938174.8914   23938176.3794
   3385034.19145   1317838.10644  26162856.1564   26162858.3484
  -1245403.27647   -755383.27446  24293058.7894   24293060.2544
   8943994.72747   6970709.61347  23316226.9144   23316226.6914
  -7139258.46747  -5463732.49347  23091024.1334   23091025.4924
 02  9 12  3 10 30.0080000  0  6G29G 8G11G26G28G 7
  -2603884.49946  -1861347.15446  24158903.9534   24158905.5474
  19073965.88946  14872059.56546  23961445.3674   23961446.8444
   3441162.72545   1361574.61644  26173536.6334   26173539.2234
  -1186335.44047   -709356.36346  24304298.6644   24304300.4224
   9019518.97047   7029559.69647  23330598.4924   23330598.1414
  -7129061.97047  -5455787.11647  23092964.6094   23092966.0274
 02  9 12  3 11  0.0080000  0  6G29G 8G11G26G28G 7
  -2535825.09046  -1808313.85446  24171856.0004   24171857.3124
  19196547.10046  14967577.37446  23984771.8524   23984773.4924
   3497758.23345   1405675.08744  26184307.2424   26184307.8164
  -1126742.28447   -662920.09546  24315639.2974   24315640.7974
   9095213.04647   7088542.10747  23345002.8364   23345002.6844
  -7118453.78747  -5447520.94047  23094982.8444   23094984.5194
 02  9 12  3 11 30.0080000  0  6G29G 8G11G26G28G 7
  -2467257.82446  -1754884.81146  24184904.2034   24184905.5984
  19319421.34846  15063323.52246  24008154.4224   24008155.9224
   3554820.73845   1450139.44344  26195166.0624   26195168.0194
  -1066624.83247   -616075.31346  24327079.1484   24327080.9414
   9171076.22447   7147656.29347  23359438.8754   23359438.8984
  -7107433.63847  -5438933.74847  23097079.7734   23097081.3674
 02  9 12  3 12  0.0080000  0  6G29G 8G11G26G28G 7
  -2398187.61046  -1701063.85846  24198047.4694   24198049.2384
  19442583.87246  15159294.29846  24031591.2894   24031592.7664
   3612346.83245   1494965.02144  26206112.7034   26206113.6054
  -1005987.47047   -568825.39746  24338618.2584   24338619.7114
   9247104.39747   7206899.04047  23373906.9844   23373906.3404
  -7096004.79547  -5430028.10447  23099254.6414   23099256.0824
 02  9 12  3 12 30.0080000  0  6G29G 8G11G26G28G 7
  -2328608.42746  -1646846.31146  24211287.8124   24211289.3834
  19566040.90146  15255494.55746  24055084.3284   24055085.8634
   3670343.60145   1540157.32644  26217149.1334   26217150.0234
   -944823.91447   -521165.45246  24350257.5554   24350259.1134
   9323304.20747   7266275.53347  23388407.0474   23388406.7194
  -7084159.82847  -5420798.20547  23101508.7424   23101509.9734
 02  9 12  3 13  0.0080000  0  6G29G 8G11G26G28G 7
  -2258528.65346  -1592238.68946  24224622.9534   24224624.6054
  19689784.15446  15351917.86046  24078632.1334   24078633.6564
   3728803.88545   1585710.83444  26228272.9224   26228274.0354
   -883142.25147   -473101.79646  24361994.2894   24361995.9534
   9399667.75647   7325779.61547  23402938.3204   23402938.1094
  -7071905.71147  -5411249.48147  23103840.6174   23103842.0594
 02  9 12  3 13 30.0080000  0  6G29G 8G11G26G28G 7
  -2187942.18146  -1537236.23546  24238055.8754   24238057.2934
  19813819.84446  15448569.03046  24102234.8984   24102236.3524
   3787734.84045   1631631.07544  26239488.8674   26239489.5824
   -820936.14647   -424629.49246  24373831.7114   24373833.8444
   9476201.84847   7385416.59347  23417502.6644   23417502.4654
  -7059234.74447  -5401375.94347  23106251.5864   23106252.8634
 02  9 12  3 14  0.0080000  0  6G29G 8G11G26G28G 7
  -2116854.76246  -1481843.43846  24251583.1804   24251584.7384
  19938142.38046  15545443.69646  24125892.9224   24125894.8204
   3847132.04945   1677914.68045  26250789.8054   26250791.3164
   -758211.18947   -375752.87546  24385768.4614   24385770.4184
   9552901.24847   7445182.37347  23432097.8524   23432097.6294
  -7046151.43447  -5391181.10547  23108742.1024   23108743.3554
 02  9 12  3 14 30.0080000  0  6G29G 8G11G26G28G 7
  -2045264.08246  -1426058.49446  24265206.5864   24265208.0864
  20062754.40046  15642543.95646  24149605.6334   24149607.3204
   3906998.80445   1724564.16145  26262182.3204   26262184.6174
   -694964.45347   -326469.70446  24397803.2894   24397804.6724
   9629769.11147   7505079.42847  23446725.6174   23446725.2544
  -7032651.74047  -5380661.81047  23111310.1954   23111311.4734
 02  9 12  3 15  0.0080000  0  6G29G 8G11G26G28G 7
  -1973173.45046  -1369883.96046  24278924.5164   24278925.9104
  20187652.39346  15739867.05446  24173372.9304   24173374.5704
   3967333.29745   1771578.09944  26273663.5164   26273664.8054
   -631199.18246   -276782.46446  24409937.1644   24409939.3324
   9706802.77447   7565105.66947  23461384.1874   23461383.8244
  -7018737.73947  -5369819.66647  23113957.5234   23113958.7894
 02  9 12  3 15 30.0080000  0  6G29G 8G11G26G28G 7
  -1900585.96146  -1313322.26646  24292737.3984   24292739.0984
  20312833.89546  15837411.06046  24197194.7894   24197196.3714
   4028133.68746   1818955.07145  26285233.7734   26285234.8984
   -566918.20247   -226693.36846  24422170.1804   24422171.6444
   9784000.00347   7625259.37547  23476074.6254   23476074.3674
  -7004410.77747  -5358655.74647  23116684.1874   23116685.4884
 02  9 12  3 16  0.0080000  0  6G29G 8G11G26G28G 7
  -1827498.41646  -1256370.92246  24306645.8524   24306647.6914
  20438302.04246  15935178.43946  24221070.2344   24221072.0744
   4089404.25145   1866698.43245  26296892.8754   26296894.0704
   -502117.80547   -176199.53146  24434501.1804   24434502.8674
   9861364.89647   7685543.72847  23490796.8054   23490796.4654
  -6989666.11847  -5347166.34847  23119489.9224   23119490.9774
 02  9 12  3 16 30.0080000  0  6G29G 8G11G26G28G 7
  -1753915.88246  -1199033.86946  24320647.7034   24320649.2034
  20564052.17646  16033165.55246  24244999.8124   24245001.2894
   4151140.99545   1914805.00044  26308640.9844   26308643.3524
   -436803.06347   -125304.91046  24446929.8364   24446931.1484
   9938892.95147   7745955.21347  23505549.8124   23505549.7544
  -6974507.63147  -5335354.48447  23122374.7274   23122375.9694
 02  9 12  3 17  0.0080000  0  6G29G 8G11G26G28G 7
  -1679841.39946  -1141313.47646  24334744.3594   24334745.8364
  20690081.38046  16131370.13346  24268981.9924   24268983.0474
   4213342.50245   1963273.74444  26320478.3364   26320478.5004
   -370976.56847    -74011.50646  24459456.4144   24459457.4344
  10016582.24647   7806492.34747  23520333.2504   23520332.7934
  -6958936.52247  -5323221.10047  23125337.6484   23125338.8094
 02  9 12  3 17 30.0080000  0  6G29G 8G11G26G28G 7
  -1605271.33146  -1083206.90346  24348934.0164   24348935.6914
  20816393.66546  16229795.28046  24293018.3124   24293020.1294
   4276013.13345   2012108.06544  26332405.0944   26332404.5314
   -304634.47647    -22316.34146  24472081.2734   24472082.5514
  10094437.14747   7867158.51947  23535148.2424   23535148.1374
  -6942947.93747  -5310762.40747  23128380.3284   23128381.5234
 02  9 12  3 18  0.0080000  0  6G29G 8G11G26G28G 7
  -1530209.59046  -1024717.22546  24363217.8524   24363219.3754
  20942985.12246  16328437.96446  24317109.4534   24317110.9064
   4339150.17345   2061305.79944  26344416.8754   26344418.2114
   -237780.34247     29777.81146  24484802.6874   24484804.0234
  10172454.47647   7927951.26147  23549995.0164   23549994.7114
  -6926543.97247  -5297980.03647  23131501.6334   23131502.7694
 02  9 12  3 18 30.0080000  0  6G29G 8G11G26G28G 7
  -1454654.48046   -965843.09846  24377596.3444   24377597.5864
  21069857.94846  16427299.91046  24341251.2814   24341253.0044
   4402756.53645   2110869.23544  26356521.8444   26356521.0704
   -170412.10547     82272.56846  24497622.2584   24497623.6054
  10250636.93947   7988872.67647  23564872.6254   23564872.2624
  -6909721.66547  -5284871.69847  23134702.6804   23134703.5474
 02  9 12  3 19  0.0080000  0  6G29G 8G11G26G28G 7
  -1378607.16446   -906585.42446  24392067.0944   24392068.7694
  21197011.27946  16526380.41346  24365448.0624   24365450.5004
   4466832.66245   2160798.74944  26368716.0394   26368716.6724
   -102530.66547    135167.22046  24510540.0784   24510541.8124
  10328984.56147   8049922.78247  23579781.2114   23579780.9304
  -6892480.30447  -5271436.82747  23137983.6804   23137984.7464
 02  9 12  3 19 30.0080000  0  6G29G 8G11G26G28G 7
  -1302068.83346   -846945.16646  24406630.8834   24406632.3244
  21324444.08846  16625678.69446  24389697.2734   24389698.8324
   4531378.40845   2211094.20143  26380996.9374   26380998.2274
    -34137.04547    188460.97546  24523554.2194   24523555.7664
  10407496.98447   8111101.31147  23594722.1564   23594721.7114
  -6874819.80847  -5257675.34247  23141344.3754   23141345.7114
 02  9 12  3 20  0.0080000  0  6G29G 8G11G26G28G 7
  -1225041.82446   -786924.09446  24421289.1094   24421290.5274
  21452154.42746  16725193.24646  24413999.9534   24414001.8284
   4596392.87845   2261754.90843  26393369.2734   26393370.0354
     34766.73247    242152.24746  24536666.5164   24536668.2034
  10486172.85447   8172407.21047  23609693.1414   23609692.6484
  -6856740.88547  -5243587.81947  23144784.5004   23144785.5664
 02  9 12  3 20 30.0080000  0  6G29G 8G11G26G28G 7
  -1147548.77546   -726539.87946  24436035.8364   24436037.5124
  21580119.79146  16824906.51346  24438351.1254   24438352.7664
   4661854.31945   2312763.88543  26405825.8984   26405827.9494
    104158.12347    296223.49046  24549870.9454   24549873.1134
  10564990.39147   8233823.49747  23624691.5084   23624691.3674
  -6838264.79747  -5229190.81447  23148300.3364   23148301.2624
 02  9 12  3 21  0.0080000  0  6G29G 8G11G26G28G 7
  -1069543.74046   -665756.72046  24450879.5864   24450880.9694
  21708386.86646  16924854.89246  24462758.9844   24462761.0124
   4727810.05845   2364158.05743  26418378.4144   26418379.7734
    174083.83347    350711.09046  24563177.6254   24563178.8444
  10643996.85747   8295387.00147  23639726.2194   23639725.5164
  -6819343.56647  -5214446.94947  23151901.0864   23151902.2344
 02  9 12  3 21 30.0080000  0  6G29G 8G11G26G28G 7
   -991005.71246   -604558.25146  24465825.1414   24465826.7234
  21836976.81046  17025054.83846  24487229.7194   24487231.1604
   4794282.12145   2415954.53643  26431025.3984   26431026.0554
    244564.78746    405631.33246  24576589.4774   24576591.4694
  10723214.14547   8357114.77947  23654800.8754   23654800.3484
  -6799954.95247  -5199338.87847  23155590.3284   23155591.5354
 02  9 12  3 22  0.0080000  0  6G29G 8G11G26G28G 7
   -911964.74146   -542967.88846  24480866.3754   24480867.8164
  21965859.98146  17125483.29746  24511754.7734   24511756.2854
   4861241.84045   2468131.00543  26443768.9374   26443771.1174
    315571.36347    460961.17946  24590101.3834   24590102.9064
  10802613.42447   8418984.37347  23669909.6564   23669909.5984
  -6780127.40847  -5183888.79147  23159363.8054   23159364.7424
 02  9 12  3 22 30.0080000  0  6G29G 8G11G26G28G 7
   -832407.81046                  24496004.2344
  22095049.64346  17226150.54346  24536338.9924   24536341.4064
   4928703.41145   2520698.50743  26456606.6334   26456607.1254
    387116.72047    516710.82646  24603716.3054   24603717.8634
  10882208.82747   8481006.80447  23685056.2584   23685055.9064
  -6759846.24847  -5168085.24847  23163223.0624   23163223.9774
 02  9 12  3 23  0.0080000  0  6G29G 8G11G26G28G 7
   -752347.17046                  24511240.1804
  22224534.21246  17327047.60346  24560978.5004   24560979.8834
   4996655.66044   2573648.34442  26469534.3054   26469535.1954
    459188.99746    572871.07246  24617430.6724   24617431.7274
  10961989.18347   8543173.33747  23700238.1804   23700237.8164
  -6739122.23447  -5151936.62247  23167166.1484   23167167.1334
 02  9 12  3 23 30.0080000  0  6G29G 8G11G26G28G 7
   -671806.15846     33515.68056  24526567.0004   24526568.1024
  22354290.49846  17428156.38746  24585670.2194   24585672.3164
   5065076.61945   2626963.43943  26482556.8984   26482559.8404
    531765.12647    629423.92946  24631242.2504   24631243.6564
  11041932.38047   8605466.76347  23715450.9224   23715450.5004
  -6717977.10947  -5135459.84947  23171189.8834   23171190.9494
 02  9 12  3 24  0.0080000  0  6G29G 8G11G26G28G 7
   -590790.66846     96644.63346  24541983.2734   24541984.6214
  22484313.03046  17529472.61546  24610413.2344   24610415.0984
   5133961.47645   2680639.99843  26495666.1804   26495667.6444
    604839.24746    686364.83746  24645146.7034   24645148.2974
  11122033.67147   8667883.38247  23730693.4374   23730693.0624
  -6696415.13847  -5118658.26147  23175293.0624   23175293.9774
 02  9 12  3 24 30.0080000  0  6G29G 8G11G26G28G 7
   -509314.20946    160132.79446  24557487.1024   24557488.6604
  22614588.79846  17630986.21446  24635203.7114   24635205.1644
   5203298.25545   2734668.62443  26508859.0474   26508860.7464
    678398.44046    743683.72146  24659145.0624   24659146.5984
  11202280.85347   8730413.67747  23745963.7274   23745963.2584
  -6674448.25347  -5101541.15747  23179473.4224   23179474.6054
 02  9 12  3 25  0.0090000  0  6G29G 8G11G26G28G 7
   -427390.76146    223969.25246  24573077.3644   24573078.7354
  22745105.94246  17732687.85246  24660040.4744   24660042.5484
   5273073.44445   2789038.97643  26522137.5364   26522136.7634
    752428.60746    801369.59546  24673232.6854   24673233.8924
  11282661.12147   8793047.69547  23761259.8804   23761259.5054
  -6652090.84947  -5084119.75547  23183727.8494   23183728.5874
 02  9 12  3 25 30.0090000  0  6G29G 8G11G26G28G 7
   -345033.86146    288143.47146  24588748.6224   24588749.8994
  22875848.17246  17834564.89846  24684920.2084   24684921.7204
   5343275.75445   2843742.15943  26535495.9354   26535498.5954
    826917.01446    859412.54446  24687407.4114   24687408.7594
  11363162.34947   8855775.94947  23776578.7554   23776578.1924
  -6629350.75347  -5066400.16347  23188055.0674   23188055.9584
 02  9 12  3 26  0.0090000  0  6G29G 8G11G26G28G 7
   -262253.93646    352647.30146  24604501.4034   24604502.9624
  23006807.12746  17936610.83346  24709840.5994   24709842.2864
   5413895.55445   2898770.64143  26548934.7164   26548936.5794
    901853.46647    917804.61546  24701667.3804   24701668.8684
  11443775.22847   8918591.20347  23791918.6144   23791918.4034
  -6606238.81147  -5048390.80547  23192453.1454   23192454.3064
 02  9 12  3 26 30.0090000  0  6G29G 8G11G26G28G 7
   -179058.77746    417474.68146  24620333.5284   24620335.3804
  23137975.32546  18038819.80946  24734800.7634   24734802.4274
   5484926.04445   2954119.11043  26562451.6854   26562452.9624
    977230.01447    976539.61146  24716011.3494   24716012.4154
  11524493.40547   8981488.49947  23807279.3644   23807278.7554
  -6582761.25747  -5030096.56247  23196920.5674   23196921.5404
 02  9 12  3 27  0.0090000  0  6G29G 8G11G26G28G 7
    -95461.78746    482615.18546  24636241.8564   24636243.0174
  23269340.02946  18141181.89546  24759799.0364   24759801.0994
   5556355.23045   3009778.27143  26576042.8954   26576043.9624
   1053033.90346   1035607.58846  24730435.5364   24730436.9194
  11605304.85247   9044458.48747  23822656.2314   23822655.8214
  -6558929.68547  -5011526.46547  23201455.8644   23201456.6264
 02  9 12  3 27 30.0090000  0  6G29G 8G11G26G28G 7
    -11470.67446    548062.81646  24652224.7164   24652225.6534
  23400893.79946  18243691.30446  24784833.4034   24784835.0564
   5628176.78045   3065743.18243  26589710.6144   26589714.6224
   1129257.33946   1095002.49846  24744940.8174   24744942.2004
  11686203.15747   9107496.15247  23838050.9274   23838050.3994
  -6534750.39147  -4992685.40947  23206056.5604   23206057.6854
 02  9 12  3 28  0.0090000  0  6G29G 8G11G26G28G 7
     72904.65646    613809.82746  24668280.5054   24668281.6064
  23532627.61246  18346341.02046  24809900.6614   24809902.4314
   5700381.71445   3122006.78743  26603450.3954   26603452.8924
   1205890.98746   1154717.04446  24759523.8334   24759525.0874
  11767179.98547   9170594.99447  23853460.7864   23853460.2594
  -6510231.62347  -4973579.82847  23210721.9194   23210723.2434
 02  9 12  3 28 30.0090000  0  6G29G 8G11G26G28G 7
    157656.35646    679850.10246  24684407.5994   24684409.5094
  23664533.89046  18449125.09046  24835002.8494   24835004.2554
   5772963.38245   3178564.05443  26617262.5444   26617264.8524
   1282927.05246   1214745.16746  24774183.1614   24774184.4624
  11848228.81947   9233749.96247  23868883.3254   23868883.0564
  -6485379.59547  -4954214.56247  23215451.3644   23215452.2314
 02  9 12  3 29  0.0090000  0  6G29G 8G11G26G28G 7
    242781.49346    746181.37246  24700607.4274   24700609.0794
  23796610.38746  18552041.83946  24860134.9974   24860136.3804
   5845920.20045   3235413.58243  26631145.7394   26631146.3844
   1360363.03446   1275084.91246  24788919.1924   24788920.5754
  11929348.06847   9296959.77647  23884320.5754   23884320.1534
  -6460195.57047  -4934590.60847  23220243.9504   23220244.6654
 02  9 12  3 29 30.0090000  0  6G29G 8G11G26G28G 7
    328278.44446    812802.36346  24716877.5284   24716878.7244
  23928855.98446  18655090.34146  24885300.5914   24885302.5484
   5919251.71745   3292555.07444  26645099.9974   26645100.0794
   1438197.47946   1335735.14046  24803729.9814   24803731.1184
  12010537.43147   9360224.23947  23899769.6924   23899769.4464
  -6434679.42047  -4914707.85147  23225098.5834   23225099.5204
 02  9 12  3 30  0.0090000  0  6G29G 8G11G26G28G 7
    414142.51446    879709.43346  24733215.9354   24733217.6104
  24061266.55046  18758267.37946  24910497.5834   24910499.3174
   5992954.55545   3349985.90744  26659125.2244   26659125.9034
   1516426.06546   1396692.49146  24818616.4424   24818617.3104
  12091793.97147   9423541.05047  23915232.3644   23915231.5444
  -6408834.29447  -4894568.74847  23230017.9194   23230018.9154
 02  9 12  3 30 30.0090000  0  6G29G 8G11G26G28G 7
    500367.28946    946897.54946  24749622.8494   24749624.5134
  24193835.86246  18861568.13945  24935724.3334   24935726.1964
   6067023.38645   3407701.93143  26673218.9274   26673219.7004
   1595042.50646   1457952.06546  24833576.9664   24833578.0204
  12173113.04047   9486906.57447  23930706.7394   23930706.1884
  -6382664.96247  -4874177.02347  23234997.2314   23234998.3214
 02  9 12  3 31  0.0090000  0  6G29G 8G11G26G28G 7
    586949.80046   1014364.43546  24766100.2084   24766101.4624
  24326562.34946  18964991.35246  24960981.6224   24960983.8134
   6141456.58045   3465701.91443  26687384.0364   26687386.1694
   1674044.18446   1519511.80246  24848610.1854   24848611.7904
  12254493.11047   9550319.64047  23946192.8414   23946192.5604
  -6356172.55347  -4853533.53747  23240038.3024   23240039.2044
 02  9 12  3 31 30.0090000  0  6G29G 8G11G26G28G 7
    673893.87646   1082113.05446  24782644.7554   24782646.3604
  24459449.71046  19068539.91145  24986269.1854   24986271.3884
   6216259.04745   3523989.59644  26701619.7004   26701620.6264
   1753435.21546   1581374.94946  24863717.1614   24863718.7784
  12335939.28347   9613784.20847  23961691.3884   23961690.8494
  -6329351.75047  -4832634.17247  23245142.3024   23245143.0634
 02  9 12  3 32  0.0090000  0  6G29G 8G11G26G28G 7
    761195.98946   1150140.64846  24799257.2314   24799258.8724
  24592495.47946  19172211.91745  25011587.0524   25011589.1734
   6291428.69545   3582563.40144  26715923.9814   26715923.9584
   1833212.38046   1643538.96446  24878898.2784   24878899.6264
  12417449.66947   9677298.82547  23977202.2634   23977201.7124
  -6302204.42747  -4811480.36947  23250308.3884   23250309.4314
 02  9 12  3 32 30.0090000  0  7G29G 9G 8G11G26G28G 7
    848858.13946   1218448.80446  24815938.8254   24815940.2314
    -10290.46551                  26884840.8334
  24725702.20046  19276009.34545  25036935.0284   25036936.8214
   6366968.54545   3641425.73443  26730297.6454   26730298.4774
   1913377.76346   1706005.50146  24894153.1694   24894154.9854
  12499028.04947   9740866.41547  23992726.3334   23992725.8294
  -6274726.94147  -4790069.29447  23255536.8804   23255537.8064
 02  9 12  3 33  0.0090000  0  6G29G 8G11G26G28G 7
    936877.47446   1287035.30046  24832688.9274   24832690.0874
  24859067.27946  19379930.15945  25062314.2004   25062316.0994
   6442876.84945   3700575.07643  26744744.0524   26744743.7354
   1993928.76046   1768772.50746  24909482.3104   24909483.7984
  12580672.99847   9804485.87347  24008262.6064   24008262.2784
  -6246920.38447  -4768401.80347  23260828.6144   23260829.2944
 02  9 12  3 33 30.0090000  0  6G29G 8G11G26G28G 7
   1025256.38346   1355901.95746  24849506.9744   24849508.7084
  24992594.04146  19483976.97745  25087723.1064   25087724.6534
   6519157.39944   3760014.53442  26759258.7394   26759260.6494
   2074868.19446   1831842.19146  24924884.3104   24924885.4354
  12662388.81247   9868160.54547  24023813.0054   24023812.6304
  -6218780.69947  -4746474.74347  23266183.1854   23266183.8884
 02  9 12  3 34  0.0090000  0  7G29G 9G 8G11G26G28G 7
   1113996.80246   1425050.31946  24866393.2554   24866394.9314
    -10304.22252                  26849560.1144
  25126285.17046  19588151.85745  25113162.8644   25113165.4194
     43481.13854                  26773846.1304
   2156198.22947   1895216.25846  24940361.2944   24940362.2434
  12744179.22547   9931893.36747  24039377.0054   24039376.7124
  -6190304.23747  -4724285.25047  23271602.0054   23271602.9544
 02  9 12  3 34 30.0090000  0  7G29G 9G 8G11G26G28G 7
   1203100.06146   1494481.41746  24883349.1534   24883351.0404
    -72151.64343                  26837790.2004
  25260142.46546  19692456.21845  25138636.4034   25138637.7744
    120514.61044                  26788504.8724
   2237920.41347   1958895.90447  24955912.5134   24955913.2864
  12826046.77847   9995686.27647  24054956.0284   24054955.6534
  -6161488.07447  -4701831.04947  23277085.2784   23277086.3104
 02  9 12  3 35  0.0090000  0  7G29G 9G 8G11G26G28G 7
   1292565.04446   1564194.37346  24900373.8804   24900375.4384
   -134014.73643                  26826018.7634
  25394165.39446  19796889.67945  25164140.8024   25164141.9504
    197925.91444      8057.12652  26803233.9974   26803235.7904
   2320033.74746   2022880.29046  24971537.8804   24971539.4504
  12907992.41847  10059540.07347  24070549.5524   24070548.9774
  -6132331.68147  -4679111.73647  23282633.9584   23282634.7904
 02  9 12  3 35 30.0090000  0  7G29G 9G 8G11G26G28G 7
   1382390.01246   1634187.85846  24917466.2314   24917468.0954
   -195891.11544    -36964.87453  26814242.4504   26814248.8254
  25528352.88246  19901451.34245  25189674.0524   25189675.5174
    275714.67343     68671.82942  26818037.5994   26818040.7394
   2402536.76646   2087168.34646  24987237.7634   24987239.1814
  12990016.04047  10123454.60547  24086158.2244   24086157.8954
  -6102835.15947  -4656127.39147  23288246.9034   23288247.4664
 02  9 12  3 36  0.0090000  0  7G29G 9G 8G11G26G28G 7
   1472573.01146   1704460.30146  24934628.4114   24934630.4744
   -257778.19045    -85188.48342  26802466.9664   26802470.4814
  25662704.14746  20006140.62945  25215240.6924   25215242.4274
    353880.33243    129580.20641  26832912.2164   26832915.3454
   2485427.90347   2151758.86046  25003011.5054   25003012.6884
  13072117.69747  10187429.94346  24101780.9664   24101780.5094
  -6072998.41947  -4632877.93947  23293924.0994   23293925.0134
 02  9 12  3 36 30.0090000  0  7G29G 9G 8G11G26G28G 7
   1563122.34346   1775018.21146  24951859.0834   24951860.9114
   -319663.76945   -133410.82743  26790689.9664   26790692.8374
  25797227.64546  20110964.12045  25240840.4504   25240841.7984
    432432.02643    190789.39641  26847858.2944   26847856.9704
   2568715.78746   2216658.50446  25018860.3254   25018862.1304
  13154307.11347  10251473.67247  24117421.6144   24117421.1344
  -6042811.80947  -4609355.85147  23299668.4584   23299669.4894
 02  9 12  3 37  0.0090000  0  7G29G 9G 8G11G26G28G 7
   1654035.06746   1845859.27346  24969159.1924   24969160.9274
   -381546.59045   -181631.10243  26778913.6614   26778917.9384
  25931921.50246  20215920.36845  25266471.4814   25266473.4624
    511368.23144    252298.15442  26862880.3494   26862882.0714
   2652397.53346   2281865.05546  25034784.4194   25034785.9774
  13236583.17747  10315584.91946  24133078.1224   24133077.6184
  -6012276.41647  -4585561.99947  23305479.1774   23305479.8564
 02  9 12  3 37 30.0090000  0  7G29G 9G 8G11G26G28G 7
   1745314.26046   1916985.91846  24986529.2244   24986530.7124
   -443419.04144   -229843.24043  26767138.1694   26767143.5604
  26066789.40546  20321012.21545  25292136.1614   25292137.5914
    590692.93445    314109.74942  26877975.5604   26877975.6774
   2736476.65446   2347381.24346  25050784.7164   25050786.1224
  13318951.12547  10379767.77046  24148751.9744   24148751.3294
  -5981387.50747  -4561492.67447  23311357.2864   23311357.9424
 02  9 12  3 38  0.0090000  0  7G29G 9G 8G11G26G28G 7
   1836960.21846   1988398.33846  25003968.3414   25003969.7124
   -505276.51244   -278043.67843  26755367.2704   26755372.8724
  26201832.30846  20426240.47145  25317834.3884   25317836.1574
    670407.82145    376225.26642  26893143.9584   26893142.9854
   2820953.42946   2413207.30446  25066859.6454   25066860.3844
  13401413.01647  10444023.81447  24164444.0444   24164443.7514
  -5950143.13447  -4537146.36747  23317302.6614   23317303.3994
 02  9 12  3 38 30.0090000  0  7G29G 9G 8G11G26G28G 7
   1928972.86746   2060096.50946  25021478.5284   25021480.3334
   -567114.56245   -326229.00345  26743600.6774   26743604.4744
  26337050.80646  20531605.52145  25343564.3494   25343565.8724
    750514.09444    438645.84742  26908386.8024   26908388.7354
   2905828.10246   2479343.40646  25083010.2164   25083011.3644
  13483970.54747  10508354.38147  24180154.9424   24180154.4034
  -5918541.54147  -4512521.70047  23323316.6384   23323317.4464
 02  9 12  3 39  0.0090000  0  7G29G 9G 8G11G26G28G 7
   2021352.00746   2132080.24846  25039057.4894   25039059.1654
   -628928.95445   -374395.88444  26731837.5284   26731841.6774
  26472445.70646  20637108.03245  25369328.9504   25369330.5444
    831012.58444    501371.98742  26923704.8024   26923706.4774
   2991100.94446   2545789.78846  25099237.9974   25099239.0994
  13566625.27747  10572760.68847  24195883.4504   24195882.6654
  -5886581.37947  -4487617.63247  23329398.4354   23329399.1964
 02  9 12  3 39 30.0090000  0  7G29G 9G 8G11G26G28G 7
   2114097.41946   2204349.41446  25056706.3174   25056708.1454
   -690715.77045   -422541.30643  26720080.4744   26720084.5754
  26608017.37546  20742748.28745  25395128.0674   25395129.6144
    911904.29044    564404.57843  26939099.4354   26939101.0634
   3076771.77546   2612546.29846  25115540.4194   25115541.7434
  13649379.16647  10637244.26547  24211630.4814   24211629.9544
  -5854261.06647  -4462432.92747  23335548.8174   23335549.3684
 02  9 12  3 40  0.0090000  0  7G29G 9G 8G11G26G28G 7
   2207206.82746   2276902.19846  25074423.7084   25074425.5834
   -752472.86045   -470663.56644  26708328.7944   26708332.4624
  26743764.45046  20848525.20445  25420959.6774   25420962.7004
    993188.08245    627742.70443  26954567.9504   26954568.6884
   3162838.56546   2679611.33646  25131918.1454   25131919.7164
  13732231.53747  10701804.57947  24227396.6854   24227395.9354
  -5821581.17547  -4436968.03947  23341767.4354   23341767.9274
 02  9 12  3 40 30.0090000  0  7G29G 9G 8G11G26G28G 7
   2300682.34646   2349740.25246  25092212.3564   25092213.8804
   -814193.53044   -518757.45643  26696582.0054   26696585.0634
  26879689.75446  20954441.02945  25446825.4504   25446827.4774
   1074867.37044    691389.01743  26970108.2004   26970111.0244
   3249303.86646   2746986.90946  25148371.7474   25148372.8604
  13815187.14747  10766445.35647  24243182.6144   24243182.4624
  -5788537.70947  -4411219.83747  23348054.8564   23348055.7244
 02  9 12  3 41  0.0090000  0  7G29G 9G 8G11G26G28G 7
   2394523.33946   2422863.09746  25110069.9354   25110071.3524
   -875874.18443   -566820.18043  26684845.0914   26684848.6774
  27015793.29746  21060495.71345  25472725.3804   25472728.3104
   1156942.55544    755343.76943  26985726.5914   26985726.6734
   3336167.06646   2814672.52146  25164901.3334   25164902.6344
  13898246.71347  10831167.10647  24258988.0674   24258988.2554
  -5755129.95347  -4385187.77947  23354412.0834   23354412.9154
 02  9 12  3 41 30.0090000  0  7G29G 9G 8G11G26G28G 7
   2488728.21046   2496269.47746  25127995.8564   25127997.8604
   -937511.68045   -614849.21443  26673116.9504   26673119.7864
  27152074.42846  21166688.79345  25498658.9274   25498661.1774
   1239413.46845    819606.95343  27001421.4194   27001422.4854
   3423426.84846   2882667.17146  25181506.5914   25181507.9974
  13981410.85047  10895970.36247  24274813.7314   24274813.4274
  -5721357.53047  -4358871.55747  23360839.3884   23360839.8454
 02  9 12  3 42  0.0090000  0  7G29G 9G 8G11G26G28G 7
   2583296.69846   2569959.19646  25145992.1384   25145993.9774
   -999101.79845   -662841.38343  26661396.3644   26661399.2704
  27288533.49246  21273020.51645  25524626.5834   25524628.5404
   1322280.69945    884178.88744  27017191.0284   27017192.8564
   3511083.19846   2950970.82346  25198187.2394   25198188.3764
  14064681.03147  10960856.24346  24290659.7004   24290658.9384
  -5687219.12847  -4332270.16647  23367335.3564   23367335.6964
 02  9 12  3 42 30.0090000  0  7G29G 9G 8G11G26G28G 7
   2678231.00546   2643933.96346  25164057.3104   25164058.6814
  -1060637.47844   -710791.11943  26649685.0994   26649687.6184
  27425173.85446  21379493.50945  25550627.6064   25550629.7984
   1405547.67545                  27033035.8564
   3599138.58946   3019585.41546  25214943.2634   25214944.0134
  14148061.85747  11025828.34346  24306526.2084   24306524.9894
  -5652710.69447  -4305380.43147  23373902.1614   23373902.7824
 02  9 12  3 43  0.0090000  0  7G29G 9G 8G11G26G28G 7
   2773527.28646   2718190.80346  25182191.9194   25182193.3844
  -1122118.12945   -758698.03844  26637986.5444   26637990.2594
  27561992.18646  21486105.19345  25576662.3954   25576664.8454
   1489212.10145                  27048956.6614
   3687589.40746   3088508.13946  25231774.6694   25231775.9234
  14231551.38047  11090885.13847  24322414.2944   24322413.5674
  -5617834.34947  -4278204.01647  23380538.9584   23380539.7554
 02  9 12  3 43 30.0090000  0  7G29G 9G 8G11G26G28G 7
   2869182.27546   2792727.15246  25200393.7864   25200395.3454
  -1183542.55545   -806561.13144  26626298.1694   26626301.5794
  27698986.32946  21592853.85345  25602732.6224   25602734.5914
   1573271.73945                  27064952.6304
   3776432.66846   3157736.65246  25248681.3174   25248682.5954
  14315148.60747  11156025.86146  24338322.1924   24338321.2434
  -5582591.61747  -4250742.10447  23387245.4814   23387246.0444
 02  9 12  3 44  0.0100000  0  7G29G 9G 8G11G26G28G 7
   2965198.14246   2867544.72646  25218664.7834   25218666.0024
  -1244909.07445   -854379.05345  26614620.0964   26614622.3814
  27836160.55746  21699742.87045  25628836.8854   25628839.1004
   1657729.17645     41712.62854  27081024.6744   27081026.0924
   3865670.53946   3227272.68146  25265663.0724   25265664.6314
  14398857.33547  11221253.47247  24354251.7284   24354250.9434
  -5546980.67247  -4222993.27847  23394022.0184   23394022.4044
 02  9 12  3 44 30.0100000  0  7G29G 9G 8G11G26G28G 7
   3061574.48246   2942643.16746  25237005.8534   25237007.6354
  -1306203.27045   -902140.64445  26602956.8614   26602959.7684
  27973512.55546  21806770.36645  25654974.3384   25654975.3934
   1742586.21945    107835.08643  27097173.3614   27097173.2444
   3955303.06946   3297116.22146  25282719.1584   25282720.5184
  14482679.76547  11286569.67747  24370202.3614   24370201.9864
  -5510996.23047  -4194953.41547  23400868.8694   23400869.4204
 02  9 12  3 45  0.0100000  0  7G29G 9G 8G11G26G28G 7
   3158309.55546   3018021.13446  25255413.4324   25255415.2014
  -1367427.27245   -949847.54545  26591305.9164   26591308.0604
  28111042.56746  21913936.61345  25681144.3774   25681145.7954
   1827842.06045    174268.27743  27113395.5184   27113396.3504
   4045328.75446   3367266.09846  25299850.2524   25299851.6354
  14566616.20747  11351974.71547  24386174.6194   24386174.3854
  -5474640.28947  -4166624.06947  23407787.6974   23407788.4944
 02  9 12  3 45 30.0100000  0  7G29G 9G 8G11G26G28G 7
   3255404.98946   3093679.90546  25273889.7364   25273891.4244
  -1428574.63245   -997494.75145  26579669.0574   26579670.9904
  28248753.37546  22021243.70145  25707350.6824   25707352.6034
   1913499.29145    241014.21042  27129694.5724   27129695.9904
   4135749.43846   3437723.76046  25317056.7444   25317057.9864
  14650670.33647  11417471.46146  24402169.5024   24402169.2214
  -5437909.46747  -4138002.60947  23414777.1584   23414777.7444
 02  9 12  3 46  0.0100000  0  7G29G 9G 8G11G26G28G 7
   3352860.00646   3169618.85246  25292434.9554   25292436.5604
  -1489641.50645  -1045079.19245  26568048.3934   26568051.8264
  28386644.90546  22128691.62445  25733589.8304   25733592.0804
   1999558.22245    308073.26643  27146072.2604   27146071.5454
   4226564.45146   3508488.72146  25334338.8144   25334340.3614
  14734843.50147  11483060.97646  24418186.6504   24418186.3224
  -5400802.93647  -4109088.38847  23421838.3074   23421838.6464
 02  9 12  3 46 30.0100000  0  7G29G 9G 8G11G26G28G 7
   3450673.75946   3245837.34446  25311048.3074   25311050.0534
  -1550623.97445  -1092597.90145  26556443.4714   26556446.5184
  28524717.37245  22236280.53445  25759863.8304   25759866.1854
   2086019.15545    375445.55943  27162523.6824   27162524.5604
   4317773.21146   3579560.48046  25351694.6354   25351696.2874
  14819137.01347  11548744.25347  24434227.7444   24434227.4754
  -5363319.61047  -4079880.56647  23428971.3534   23428971.6934
 02  9 12  3 47  0.0100000  0  7G29G 9G 8G11G26G28G 7
   3548844.52446   3322334.05045  25329730.1194   25329731.0574
  -1611518.90645  -1140048.41845  26544855.2604   26544859.4084
  28662969.97046  22344009.80445  25786172.3304   25786173.2324
   2172881.79745    443130.79543  27179054.5184   27179056.3104
   4409374.33446   3650937.98146  25369125.5024   25369127.0964
  14903551.71147  11614521.97346  24450291.2684   24450290.5534
  -5325459.49047  -4050379.13747  23436175.6974   23436176.4354
 02  9 12  3 47 30.0100000  0  7G29G 9G 8G11G26G28G 7
   3647375.18546   3399111.17245  25348479.2054   25348480.8464
  -1672319.10645  -1187425.07645  26533286.0024   26533291.0534
  28801406.14445  22451882.12945  25812515.7134   25812518.1154
   2260149.88845    511131.94143  27195660.2444   27195661.1704
   4501370.74346   3722623.49646  25386632.2604   25386633.5844
  14988092.16847  11680397.67446  24466379.0964   24466378.1234
  -5287218.09347  -4020580.60047  23443452.7914   23443453.4944
 02  9 12  3 48  0.0100000  0  7G29G 9G 8G11G26G28G 7
   3746263.14746   3476166.72046  25367296.9474   25367298.5184
  -1733021.90945  -1234725.85344  26521733.7134   26521737.3104
  28940024.46346  22559896.36945  25838894.4634   25838896.0574
   2347821.77645    579447.76843  27212344.4244   27212345.1504
   4593760.16946   3794615.25946  25404213.5884   25404214.9714
  15072758.15247  11746371.19746  24482490.1974   24482489.0374
  -5248596.36947  -3990485.71547  23450802.4554   23450802.7714
 02  9 12  3 48 30.0100000  0  7G29G 9G 8G11G26G28G 7
   3845505.70746   3553498.58445  25386182.3694   25386184.0214
  -1793625.14145  -1281949.03344  26510202.0414   26510205.7214
  29078823.15846  22668051.17245  25865306.3694   25865308.8424
   2435896.39145    648077.41843  27229104.8934   27229105.4904
   4686540.27846   3866911.43946  25421868.7134   25421870.2014
  15157549.49747  11812442.39246  24498625.7994   24498624.9784
  -5209594.96047  -3960094.96947  23458223.6434   23458223.9594
 02  9 12  3 49  0.0100000  0  7G29G 9G 8G11G26G28G 7
   3945101.51646   3631105.69145  25405135.1114   25405136.3654
  -1854125.49745  -1329092.07845  26498690.6434   26498693.7954
  29217801.85846  22776346.24345  25891753.4394   25891755.1394
   2524373.37445    717020.53643  27245941.0414   27245944.1704
   4779709.70046   3939511.00346  25439598.8304   25439600.2364
  15242467.04347  11878611.93146  24514785.3614   24514784.0844
  -5170213.69847  -3929408.22847  23465717.4944   23465718.1744
 02  9 12  3 49 30.0100000  0  7G29G 9G 8G11G26G28G 7
   4045049.20046   3708986.99446  25424154.5254   25424156.2134
  -1914519.65545  -1376152.35244  26487196.1034   26487198.8934
  29356959.96946  22884781.12045  25918234.3774   25918237.2134
   2613252.48245    786277.02743  27262854.4394   27262852.6114
   4873267.25946   4012413.00146  25457401.9714   25457403.3894
  15327511.43247  11944880.31246  24530967.9084   24530966.8654
  -5130452.19247  -3898425.20247  23473284.2284   23473284.8384
 02  9 12  3 50  0.0100000  0  7G29G 9G 8G11G26G28G 7
   4145347.57646   3787141.57346  25443240.7754   25443242.0764
  -1974803.80445  -1423126.91844  26475724.5414   26475728.0924
  29496297.15546  22993355.50945  25944750.4474   25944752.1234
   2702533.90645    855847.02143  27279844.0414   27279845.1434
   4967212.11246   4085616.77246  25475279.4084   25475280.7444
  15412684.15347  12011248.69446  24547176.1664   24547175.5104
  -5090309.83347  -3867145.40647  23480923.1194   23480923.4714
 02  9 12  3 50 30.0100000  0  7G29G 9G 8G11G26G28G 7
   4245996.26246   3865569.10845  25462394.1274   25462395.3464
  -2034973.42245  -1470012.23044  26464274.9244   26464278.1934
  29635814.11846  23102070.02445  25971299.2444   25971301.6584
   2792217.90645    925730.73643  27296910.1434   27296910.8344
   5061543.98146   4159122.14646  25493229.4864   25493230.7874
  15497986.78947  12077718.29746  24563407.7054   24563407.3304
  -5049785.36147  -3835567.86647  23488634.3304   23488634.3424
 02  9 12  3 51  0.0100000  0  7G29G 9G 8G11G26G28G 7
   4346994.05946   3944268.68645  25481612.8144   25481614.7484
  -2095024.68845  -1516805.34945  26452845.6744   26452848.9674
  29775510.57545  23210924.36945  25997882.3534   25997885.7994
   2882304.72845    995928.34643  27314053.2524   27314054.8224
   5156262.00846   4232928.40046  25511253.5414   25511254.8774
  15583420.73247  12144290.22846  24579665.8074   24579665.3614
  -5008878.12947  -3803692.06547  23496418.9634   23496419.3264
 02  9 12  3 51 30.0100000  0  7G29G 9G 8G11G26G28G 7
   4448335.37046   4023235.92045  25500897.4634   25500899.2324
  -2154958.38545  -1563506.81345  26441441.2994   26441445.5184
  29915381.90645  23319914.98645  26024498.6504   26024499.9634
   2972789.81644   1066436.35043  27331270.0414   27331271.2364
   5251360.64846   4307031.22946  25529350.7684   25529352.2564
  15668982.67347  12210961.87846  24595947.8304   24595947.3504
  -4967592.10347  -3771521.10047  23504275.1434   23504275.5184
 02  9 12  3 52  0.0100000  0  7G29G 9G 8G11G26G28G 7
   4550022.42646   4102472.58745  25520247.5414   25520248.9354
  -2214767.16445  -1610110.91645  26430060.6114   26430064.9824
  30055431.30745  23429044.36945  26051150.0104   26051151.8734
   3063676.48444   1137257.24843  27348565.7284   27348566.7134
   5346842.54946   4381432.72446  25547520.0964   25547521.2444
  15754677.19047  12277736.86146  24612254.8614   24612254.3814
  -4925923.20047  -3739051.79747  23512204.8144   23512204.9674
 02  9 12  3 52 30.0100000  0  7G29G 9G 8G11G26G28G 7
   4652050.73746   4181975.16045  25539663.2684   25539665.3304
  -2274450.52145  -1656617.27045  26418703.0024   26418706.6234
  30195655.14945  23538309.69745  26077833.0254   26077834.5964
   3154961.14544   1208388.20143  27365935.4474   27365935.5764
   5442703.29846   4456129.42546  25565762.0024   25565763.3614
  15840502.13647  12344613.46946  24628586.8854   24628586.1934
  -4883874.29047  -3706286.38147  23520205.9634   23520206.1854
 02  9 12  3 53  0.0100000  0  7G29G 9G 8G11G26G28G 7
   4754419.91546   4261743.35145  25559143.1584   25559144.6464
  -2334004.09945  -1703022.54545  26407370.5964   26407373.2794
  30336054.11145  23647711.44645  26104551.3934   26104553.7834
   3246644.84045   1279830.15244  27383384.9164   27383386.5454
   5538942.66446   4531121.12646  25584075.6194   25584077.1074
  15926459.60247  12411593.33946  24644943.5414   24644943.5064
  -4841444.03547  -3673223.80947  23528280.3464   23528280.5104
 02  9 12  3 53 30.0100000  0  7G29G 9G 8G11G26G28G 7
   4857123.89146   4341772.41245  25578687.0884   25578688.2134
  -2393428.82445  -1749327.37945  26396062.8224   26396064.3694
  30476623.15545  23757245.71245  26131299.3534   26131300.9244
   3338722.86245   1351579.32244  27400905.1354   27400906.7874
   5635554.89046   4606403.38646  25602460.5804   25602462.0804
  16012546.10647  12478673.74646  24661325.4474   24661325.3184
  -4798636.62547  -3639867.36147  23536426.5884   23536427.1504
 02  9 12  3 54  0.0100000  0  7G29G 9G 8G11G26G28G 7
   4960168.77946   4422067.13345  25598296.0024   25598298.0414
  -2452713.33745  -1795522.93645  26384779.9164   26384782.6114
  30617369.20645  23866917.92045  26158082.5024   26158085.1624
   3431201.99245   1423641.07543  27418503.5494   27418504.3344
   5732546.30846   4681981.11146  25620917.2284   25620918.4714
  16098769.86447  12545861.11646  24677733.3534   24677732.8034
  -4755444.31947  -3606210.98647  23544645.5644   23544646.1394
 02  9 12  3 54 30.0100000  0  7G29G 9G 8G11G26G28G 7
   5063549.58046   4502623.59745  25617968.3774   25617969.6894
  -2511857.78245  -1841609.33945  26373524.9394   26373528.1854
  30758288.44245  23976725.07845  26184899.0104   26184901.4474
   3524078.30945   1496012.31143  27436178.1354   27436179.0844
   5829911.95646   4757850.44646  25639445.3144   25639446.0534
  16185128.48247  12613153.56546  24694166.9394   24694166.3304
  -4711870.39347  -3572257.24247  23552937.3384   23552937.5964
 02  9 12  3 55  0.0100000  0  7G29G 9G 8G11G26G28G 7
   5167261.62846   4583438.19445  25637703.8854   25637705.3264
  -2570861.85945  -1887586.37445  26362296.9004   26362299.5254
  30899377.15945  24086664.31245  26211747.1744   26211749.5064
   3617348.65845   1568690.56943  27453926.7914   27453927.9394
   5927647.65946   4834008.13546  25658043.4634   25658044.5764
  16271619.76547  12680549.39446  24710625.6744   24710624.8304
  -4667917.61247  -3538008.29547  23561301.3694   23561301.6274
 02  9 12  3 55 30.0100000  0  7G29G 9G 8G11G26G28G 7
   5271306.10946   4664511.81545  25657503.6434   25657505.3424
  -2629719.68545  -1933449.44845  26351096.6114   26351100.8184
  31040637.20745  24196737.01145  26238628.0254   26238630.9554
   3711014.91445   1641677.35743  27471750.7444   27471751.3774
   6025754.38946   4910454.95646  25676712.1744   25676713.4394
  16358247.18747  12748051.29046  24727111.0184   24727110.1624
  -4623583.41247  -3503462.14347  23569737.7284   23569738.1394
 02  9 12  3 56  0.0100000  0  7G29G 9G 8G11G26G28G 7
   5375678.46246   4745840.94545  25677364.1434   25677366.1584
  -2688430.19345  -1979197.74345  26339925.0494   26339927.6394
  31182065.72245  24306941.01845  26265541.2524   26265543.2324
   3805073.74844   1714970.08042  27489648.3934   27489651.5684
   6124228.18146   4987187.78446  25695452.2214   25695454.0494
  16445008.89047  12815657.83746  24743620.4474   24743619.4754
  -4578870.23747  -3468620.67647  23578246.2364   23578246.9984
 02  9 12  3 56 30.0100000  0  7G29G 9G 8G11G26G28G 7
   5480379.50846   4827426.17245  25697288.8224   25697290.2524
  -2746987.59345  -2024826.69245  26328780.3854   26328783.3144
  31323663.72745  24417277.08845  26292485.5104   26292488.6974
   3899526.83145   1788570.00342  27507624.5884   27507625.3504
   6223069.58446   5064207.06646  25714260.6894   25714262.1784
  16531908.06047  12883371.48846  24760156.9864   24760155.9434
  -4533775.77547  -3433482.09547  23586827.6274   23586828.0024
 02  9 12  3 57  0.0100000  0  7G29G 9G 8G11G26G28G 7
   5585406.15846   4909265.13345  25717274.7284   25717276.1824
  -2805389.57545  -2070334.57245  26317667.0644   26317670.2284
  31465429.81645  24527744.15245  26319463.2054   26319464.2834
   3994372.73245   1862475.98043  27525670.1274   27525670.9004
   6322276.32546   5141511.02646  25733138.7604   25733139.8734
  16618944.35647  12951192.01146  24776718.7284   24776717.6974
  -4488301.14147  -3398047.29347  23595481.0884   23595480.7014
 02  9 12  3 57 30.0100000  0  7G29G 9G 8G11G26G28G 7
   5690754.03346   4991354.39945  25737320.8774   25737322.7404
  -2863635.71745  -2115721.03645  26306583.4474   26306585.9204
  31607360.34245  24638339.32945  26346472.2284   26346473.0494
   4089607.69645   1936685.20742  27543794.9004   27543793.7174
   6421843.90846   5219096.15546  25752085.5104   25752086.9514
  16706115.74347  13019117.76846  24793307.5964   24793307.2214
  -4442449.12647  -3362318.42447  23604206.3384   23604206.7714
 02  9 12  3 58  0.0100000  0  8G29G 9G 8G11G 4G26G28G 7
     59910.79356                  25757429.2444
  -2921726.31145  -2160986.29745  26295528.6354   26295531.8814
  31749451.05045  24749059.32645  26373511.5414   26373513.7684
   4185227.53845   2011194.32943  27561990.9164   27561989.7214
    -24719.87052                  26972088.0254
   6521766.97146   5296958.29746  25771100.8614   25771102.0684
  16793419.32547  13087146.54946  24809920.6824   24809920.0024
  -4396223.50547  -3326298.42547  23613002.8934   23613003.3614
 02  9 12  3 58 30.0100000  0  8G29G 9G 8G11G 4G26G28G 7
    165893.35546     44072.63555  25777597.3224   25777599.0104
  -2979653.11445  -2206123.89645  26284506.1894   26284510.1504
  31891705.91345  24859907.22645  26400579.8534   26400582.2914
   4281236.45445   2086006.48442  27580261.2754   27580260.4084
    -92129.30743                  26959258.1274
   6622048.81046   5375099.98846  25790184.0414   25790185.6704
  16880860.67047  13155282.68046  24826559.8694   24826558.9904
  -4349619.38947  -3289983.50147  23621871.0254   23621871.2254
 02  9 12  3 59  0.0100000  0  8G29G 9G 8G11G 4G26G28G 7
    272195.27046    126905.31145  25797825.0574   25797826.6394
  -3037410.40845  -2251129.43345  26273515.0964   26273518.0374
  32034126.41245  24970884.21545  26427683.7284   26427685.5924
   4377635.95344   2161123.12043  27598604.8534   27598604.9244
   -159518.33144                  26946434.2444
   6722690.16546   5453521.81946  25809335.3854   25809336.9324
  16968442.90247  13223528.58846  24843226.4554   24843225.6824
  -4302634.52747  -3253371.89447  23630811.9474   23630811.9474
 02  9 12  3 59 30.0100000  0  8G29G 9G 8G11G 4G26G28G 7
    378807.67046    209979.93145  25818112.9244   25818114.7524
  -3095001.85045  -2296005.74845  26262554.7524   26262557.2834
  32176704.91845  25081984.29845  26454814.3534   26454816.5104
   4474418.17844   2236537.93142  27617023.3774   27617023.7054
   -226889.69345                  26933614.0804
   6823682.35846   5532217.03646  25828553.5334   25828555.0454
  17056159.88247  13291879.49746  24859918.1584   24859917.4784
  -4255276.18447  -3216469.25347  23639824.1114   23639824.3694
 02  9 12  4  0  0.0100000  0  8G29G 9G 8G11G 4G26G28G 7
    485730.50646    293296.42445  25838459.1434   25838461.2284
  -3152422.44145  -2340748.93245  26251628.9944   26251631.2794
  32319441.99945  25193207.95545  26481977.2834   26481978.7014
   4571584.02444   2312251.67542  27635512.6114   27635512.3654
   -294237.61144    -15740.14353  26920796.7444   26920799.5454
   6925025.42746   5611185.68446  25847838.0104   25847839.4514
  17144013.93847  13360337.22746  24876636.2284   24876635.7714
  -4207542.68247  -3179274.28847  23648907.9324   23648908.4124
 02  9 12  4  0 30.0100000  0  8G29G 9G 8G11G 4G26G28G 7
    592961.45046    376853.00345  25858864.6504   25858866.6194
  -3209668.85045  -2385356.34845  26240735.5494   26240738.0804
  32462337.02045  25304554.72445  26509168.5494   26509169.8614
   4669132.45944   2388263.57942  27654074.7134   27654075.2754
   -361558.10845    -68197.48944  26907986.9324   26907987.5184
   7026717.45546   5690426.22546  25867188.9004   25867190.4714
  17232005.62447  13428902.18046  24893380.1504   24893379.8104
  -4159434.30647  -3141787.21347  23658062.1194   23658062.4004
 02  9 12  4  1  0.0100000  0  8G29G 9G 8G11G 4G26G28G 7
    700494.82346    460645.24445  25879327.8464   25879329.9204
  -3266741.71345  -2429828.57145  26229874.7524   26229876.6394
  32605385.18545  25416020.77145  26536389.4864   26536391.3034
   4767058.57045   2464569.67643  27672710.3144   27672707.5024
   -428851.09345   -120633.45444  26895181.3304   26895183.6394
   7128752.80146   5769934.29646  25886606.6434   25886608.1194
  17320131.79947  13497571.94446  24910150.7284   24910150.0254
  -4110955.24047  -3104011.28547  23667287.1434   23667287.2834
 02  9 12  4  1 30.0100000  0  8G29G 9G 8G11G 4G26G28G 7
    808336.64045    544677.83345  25899848.9164   25899850.8034
  -3323629.63445  -2474156.69845  26219048.6354   26219051.2954
  32748593.27445  25527611.45245  26563641.5334   26563644.2644
   4865369.80344   2541175.84343  27691417.9714   27691417.3964
   -496104.78845   -173038.76944  26882383.0104   26882385.6464
   7231137.74646   5849714.78246  25906089.4164   25906090.3424
  17408400.99447  13566353.15446  24926947.8854   24926947.3344
  -4062097.71747  -3065940.45847  23676584.5184   23676584.7644
 02  9 12  4  2  0.0100000  0  8G29G 9G 8G11G 4G26G28G 7
    916483.13245    628947.80245  25920428.8534   25920431.0574
  -3380331.32045  -2518339.67845  26208259.3144   26208261.2484
  32891958.82845  25639324.81445  26590922.8384   26590926.1544
   4964063.36744   2618080.03142  27710197.1894   27710198.4554
   -563316.77145   -225411.59444  26869592.7914   26869595.7444
   7333868.69746   5929764.87546  25925638.5024   25925639.8034
  17496812.14847  13635244.97946  24943771.5414   24943770.9324
  -4012863.72547  -3027576.27947  23685953.4164   23685953.7794
 02  9 12  4  2 30.0100000  0  8G29G 9G 8G11G 4G26G28G 7
   1024929.38045    713451.37445  25941065.0494   25941066.1274
  -3436846.29245  -2562377.19845  26197503.0334   26197505.4714
  33035477.93045  25751157.83145  26618234.4554   26618236.7404
   5063135.29944   2695279.06642  27729050.6974   27729049.2794
   -630485.97345   -277751.11344  26856811.4474   26856813.4634
   7436940.69346   6010080.71146  25945252.5334   25945254.3504
  17585362.68347  13704245.42146  24960622.2604   24960622.2484
  -3963256.68547  -2988921.41247  23695393.4004   23695393.8224
 02  9 12  4  3  0.0100000  0  8G29G 9G 8G11G 4G26G28G 7
   1133670.03946    798184.34445  25961758.3464   25961759.4594
  -3493174.50445  -2606269.14745  26186785.2994   26186788.4164
  33179146.35245  25863107.19745  26645573.7284   26645576.8104
   5162581.04144   2772769.34842  27747974.0724   27747972.6544
   -697611.69845   -330056.72544  26844037.6354   26844040.0024
   7540348.68846   6090658.35346  25964930.6274   25964931.8934
  17674050.36947  13773352.71046  24977498.5414   24977498.1664
  -3913279.99147  -2949978.49947  23704903.5254   23704903.8654
 02  9 12  4  3 30.0100000  0  8G29G 9G 8G11G 4G26G28G 7
   1242704.92745    883146.59645  25982506.6194   25982507.8034
  -3549310.97645  -2650011.69645  26176102.5804   26176104.8534
  33322964.94145  25975173.56445  26672941.0104   26672942.3814
   5262401.93844   2850551.98342  27766968.5724   27766967.8344
   -764688.07145   -382323.86944  26831272.2834   26831275.7284
   7644092.71946   6171497.85646  25984672.4474   25984674.2644
  17762877.47247  13842568.65946  24994402.2524   24994401.8894
  -3862932.18347  -2910746.41247  23714484.5724   23714484.6074
 02  9 12  4  4  0.0100000  0  8G29G 9G 8G11G 4G26G28G 7
   1352026.16445    968331.96845  26003310.3534   26003311.7134
  -3605258.41645  -2693606.99245  26165456.0574   26165458.2364
  33466926.83645  26087351.61145  26700336.0414   26700338.3144
   5362590.68245   2928621.36143  27786032.8934   27786033.5494
   -831717.27745   -434554.29144  26818517.9944   26818518.9204
   7748164.95446   6252593.08146  26004476.2444   26004477.9784
  17851838.94747  13911889.29646  25011330.7914   25011330.3574
  -3812219.56647  -2871230.06447  23724134.9084   23724135.1314
 02  9 12  4  4 30.0110000  0  8G29G 9G 8G11G 4G26G28G 7
   1461638.38045   1053744.07845  26024168.3044   26024170.5544
  -3661012.06545  -2737051.23645  26154845.9444   26154849.5544
  33611038.93745  26199646.69645  26727760.3664   26727763.2614
   5463152.81945   3006981.59142  27805170.4604   27805170.9054
   -898693.98645   -486743.74244  26805771.8664   26805775.5814
   7852570.22946   6333947.84246  26024344.3434   26024345.8904
  17940941.28147  13981319.71546  25028286.7884   25028286.3194
  -3761137.43947  -2831425.77147  23733855.4364   23733856.0814
 02  9 12  4  5  0.0110000  0  8G29G 9G 8G11G 4G26G28G 7
   1571535.60146   1139378.27745  26045082.2414   26045083.2494
  -3716561.72645  -2780336.56345  26144275.7494   26144278.9604
  33755293.94045  26312053.13944  26755211.3274   26755213.5894
   5564083.89243   3085629.29542  27824375.2184   27824378.6864
   -965606.74845   -538883.40145  26793039.7654   26793042.2844
   7957302.95046   6415557.73946  26044273.9834   26044275.4134
  18030182.57347  14050858.39446  25045268.4444   25045267.8474
  -3709686.44747  -2791334.06547  23743645.8974   23743646.3434
 02  9 12  4  5 30.0110000  0  8G29G 9G 8G11G 4G26G28G 7
   1681714.69145   1225232.09245  26066047.0694   26066048.3354
  -3771910.75746  -2823465.52945  26133743.7264   26133746.1634
  33899691.28845  26424570.48544  26782688.4214   26782690.3784
   5665381.55043   3164562.63942  27843652.2334   27843651.5074
  -1032458.35845   -590975.47044  26780318.1554   26780320.6634
   8062359.83646   6497420.25245  26064265.4604   26064267.0074
  18119561.83647  14120504.58546  25062276.8514   25062276.5224
  -3657869.88147  -2750957.49447  23753506.6714   23753506.7294
 02  9 12  4  6  0.0110000  0  8G29G 9G 8G11G 4G26G28G 7
   1792177.29146   1311306.82645  26087068.7804   26087070.5854
  -3827052.07645  -2866432.69945  26123249.9684   26123252.2534
  34044233.40145  26537200.64444  26810194.7494   26810196.0974
   5767048.53342   3243783.84541  27862997.5614   27862996.9174
  -1099241.11645   -643013.81444  26767608.8514   26767611.2064
   8167742.84046   6579536.86645  26084319.6554   26084321.0034
  18209083.20547  14190261.50146  25079312.9294   25079312.4604
  -3605684.30447  -2710293.39247  23763437.1324   23763437.2264
 02  9 12  4  6 30.0110000  0  8G29G 9G 8G11G 4G26G28G 7
   1902909.82746   1397591.90545  26108139.7024   26108141.0974
  -3881993.49146  -2909244.07045  26112794.2334   26112795.9334
  34188908.11645  26649934.16444  26837724.3744   26837726.6124
   5869072.54042   3323283.16941  27882411.3434   27882410.9914
  -1165962.40145   -695004.29644  26754913.0154   26754915.3934
   8273438.72746   6661897.29245  26104433.3354   26104434.3544
  18298736.28747  14260121.06846  25096372.7654   25096372.2374
  -3553141.43647  -2669350.86747  23773435.6084   23773436.0654
 02  9 12  4  7  0.0110000  0  8G29G 9G 8G11G 4G26G28G 7
   2013918.45945   1484092.11345  26129263.6164   26129265.3624
  -3936723.67846  -2951890.84545  26102380.0304   26102381.8824
  34333722.72845  26762776.66544  26865281.6084   26865283.2374
   5971460.59043   3403066.21941  27901897.2024   27901894.7064
  -1232609.97645   -746937.30445  26742229.6244   26742232.4254
   8379453.75746   6744506.37545  26124607.0074   26124608.4134
  18388529.84247  14330090.07746  25113460.3434   25113459.6514
  -3500233.53947  -2628123.91447  23783504.0614   23783504.3664
 02  9 12  4  7 30.0110000  0  8G29G 9G 8G11G 4G26G28G 7
   2125200.74646   1570805.55545  26150440.0544   26150441.5654
  -3991239.91546  -2994370.92745  26092005.4604   26092007.7804
  34478675.56745  26875726.86544  26892867.2334   26892870.9954
   6074211.04843   3483131.67441  27921449.6164   27921447.1204
  -1299180.21845   -798810.08745  26729562.6474   26729564.6164
   8485785.43946   6827362.21345  26144841.5614   26144842.9444
  18478463.99147  14400168.64946  25130574.3824   25130573.6434
  -3446961.55747  -2586613.25647  23793640.8194   23793640.7614
 02  9 12  4  8  0.0110000  0  8G29G 9G 8G11G 4G26G28G 7
   2236753.70946   1657729.93745  26171669.3664   26171670.5734
  -4045539.90346  -3036682.49645  26081672.9524   26081674.2654
  34623764.93745  26988783.46844  26920475.5074   26920478.2964
   6177321.77044   3563477.79641  27941072.0614   27941069.9294
  -1365669.97445   -850620.16444  26716909.2804   26716911.2374
   8592431.10146   6910462.71846  26165135.1084   26165135.9644
  18568538.67647  14470356.73346  25147714.7414   25147714.3194
  -3393326.47447  -2544819.66347  23803846.8274   23803846.9684
 02  9 12  4  8 30.0110000  0  8G29G 9G 8G11G 4G26G28G 7
   2348572.33646   1744861.30745  26192946.7104   26192947.4724
  -4099623.10246  -3078825.13745  26071381.7104   26071383.7374
  34768986.90445  27101943.42244  26948110.7804   26948113.4644
   6280789.08143   3644101.79041  27960759.9684   27960753.0154
  -1432078.24145   -902366.71445  26704272.7724   26704273.5934
   8699385.62846   6993803.89146  26185488.8114   26185489.7724
  18658751.48847  14540652.43546  25164880.7104   25164880.2414
  -3339331.85247  -2502745.91747  23814121.9214   23814122.1554
 02  9 12  4  9  0.0110000  0  8G29G 9G 8G11G 4G26G28G 7
   2460652.60945   1832196.56845  26214274.9994   26214276.2064
  -4153487.94046  -3120797.63545  26061130.4994   26061132.0224
  34914338.43545  27215204.30044  26975770.3744   26975773.3274
   6384609.54142   3725001.04441  27980517.3904   27980517.9644
  -1498402.72646   -954048.03545  26691651.2804   26691653.2374
   8806645.38246   7077382.89745  26205898.3824   26205899.7884
  18749101.43047  14611054.99446  25182074.8904   25182074.3044
  -3284979.93547  -2460393.75247  23824464.9134   23824465.3004
 02  9 12  4  9 30.0110000  0  8G29G 9G 8G11G 4G26G28G 7
   2572993.42745   1919734.83745  26235652.7104   26235655.0184
  -4207129.89946  -3162596.45745  26050923.2574   26050924.5464
  35059819.80245  27328566.37144  27003453.6474   27003455.2764
   6488783.58641                  28000341.8824
  -1564638.31145  -1005660.05645  26679046.5774   26679048.1474
   8914209.53846   7161199.11245  26226367.7964   26226369.3194
  18839590.11247  14681565.67146  25199293.3584   25199292.4094
  -3230270.01347  -2417762.62747  23834875.6014   23834876.0934
 02  9 12  4 10  0.0110000  0  8G29G 9G 8G11G 4G26G28G 7
   2685596.71145   2007477.63845  26257080.6014   26257082.3004
  -4260542.03946  -3204216.21845  26040759.2414   26040760.0154
  35205434.11445  27442032.02644  27031163.7724   27031165.6124
   6593313.59342                  28020233.3744
  -1630777.04745  -1057196.60245  26666459.4994   26666461.1044
   9022080.05146   7245254.02645  26246894.1324   26246895.7614
  18930222.20947  14752188.08546  25216540.6864   25216539.7844
  -3175198.49047  -2374849.74247  23845355.6084   23845355.4094
 02  9 12  4 10 30.0110000  0  8G29G 9G 8G11G 4G26G28G 7
   2798454.60545   2095418.82945  26278556.6084   26278558.0854
  -4313726.30746  -3245658.38345  26030638.1324   26030640.4644
  35351174.39845  27555595.81544  27058897.6474   27058899.8394
   6698193.05642                  28040190.4684
  -1696820.44945  -1108658.88045  26653892.1794   26653893.5734
   9130249.19946   7329541.66245  26267479.1014   26267480.4254
  19020992.68847  14822918.35346  25233813.6014   25233812.8154
  -3119771.53947  -2331659.88947  23855902.8274   23855902.7684
 02  9 12  4 11  0.0110000  0  8G29G 9G 8G11G 4G26G28G 7
   2911568.07845   2183559.16645  26300080.7724   26300082.2374
  -4366676.68946  -3286918.29145  26020562.0694   26020563.6984
  35497042.66045  27669259.39844  27086656.2024   27086657.2104
   6803423.56142                  28060214.9914
  -1762761.79645  -1160041.60645  26641343.4834   26641345.1714
   9238717.83646   7414062.64345  26288120.4214   26288121.7574
  19111905.09747  14893759.18746  25251113.6864   25251113.1834
  -3063986.80447  -2288191.25547  23866518.5074   23866518.6124
 02  9 12  4 11 30.0110000  0  8G29G 9G 8G11G 4G26G28G 7
   3024927.47145   2271891.13845  26321652.7804   26321654.3624
  -4419396.98346  -3327998.94545  26010530.1084   26010531.8314
  35643030.63245  27783016.14544  27114436.4764   27114437.9644
   6908996.79442                  28080303.5614
  -1828604.20445  -1211347.24445  26628815.6714   26628817.3004
   9347476.93846   7498809.97145  26308815.8824   26308817.0774
  19202953.10647  14964705.69446  25268439.5384   25268438.9524
  -3007851.72447  -2244449.60647  23877200.2024   23877200.6714
 02  9 12  4 12  0.0110000  0  8G29G 9G 8G11G 4G26G28G 7
   3138535.82145   2360417.09145  26343271.4214   26343272.7924
  -4471878.76346  -3368893.73645  26000542.9684   26000544.0934
  35789142.38645  27896869.47744  27142240.7264   27142242.7534
   7014916.71442                  28100458.6244
  -1894338.42145  -1262568.60245  26616306.3274   26616307.9214
   9456529.36746   7583785.85045  26329567.0934   26329568.2184
  19294142.27347  15035762.19246  25285792.3114   25285791.6324
  -2951361.74047  -2200431.42947  23887950.1244   23887950.1944
 02  9 12  4 12 30.0110000  0  8G29G 9G 8G11G 4G26G28G 7
   3252389.45245   2449134.17645  26364937.7104   26364940.0304
  -4524120.37746  -3409601.38045  25990600.4134   25990602.0774
  35935375.46745  28010817.31143  27170067.7264   27170071.4404
   7121180.51342                  28120680.4604
  -1959961.93845  -1313703.67845  26603818.5154   26603819.6984
   9565871.93546   7668987.83945  26350376.2574   26350377.2884
  19385471.91547  15106928.14146  25303171.5304   25303170.7224
  -2894518.98447  -2156138.36147  23898767.1864   23898766.9764
 02  9 12  4 13  0.0110000  0  8G29G 9G 8G11G 4G26G28G 7
   3366488.23745   2538042.27045  26386649.1014   26386650.3314
  -4576116.61946  -3450117.83645  25980706.1714   25980707.2494
  36081730.60545  28124860.18743  27197917.3664   27197919.8154
   7227788.84341                  28140968.4604
  -2025468.70245  -1364747.80045  26591352.1474   26591353.4484
   9675504.22546   7754415.59645  26371237.1794   26371238.8314
  19476944.66547  15178205.62546  25320577.6634   25320576.8664
  -2837321.89247  -2111569.18547  23909651.0694   23909651.4444
 02  9 12  4 13 30.0110000  0  7G29G 9G 8G 4G26G28G 7
   3480825.54045   2627136.25145  26408408.0544   26408409.9764
  -4627868.56146  -3490443.91845  25970858.0224   25970860.3904
  36228202.69543  28238994.23842  27225788.9294   27225791.1204
  -2090859.24745  -1415701.35145  26578909.7964   26578911.4954
   9785419.91846   7840064.15745  26392153.5304   26392154.9604
  19568556.70747  15249591.63146  25338012.2024   25338010.8434
  -2779775.30847  -2066727.67347  23920601.9294   23920602.4684
 02  9 12  4 14  0.0110000  0  7G29G 9G 8G 4G26G28G 7
   3595396.28845   2716412.11945  26430209.4604   26430211.2764
  -4679375.64046  -3530579.19445  25961057.4604   25961058.2104
  36374787.44144  28353216.07243  27253683.7804   27253685.3044
  -2156132.15645  -1466563.22445  26566487.8354   26566489.7924
   9895614.11146   7925929.71145  26413122.5694   26413124.2104
  19660305.96646  15321084.56646  25355470.1714   25355469.0114
  -2721882.71147  -2021616.54247  23931618.5614   23931618.7724
 02  9 12  4 14 30.0110000  0  7G29G 9G 8G 4G26G28G 7
   3710198.58045   2805868.43545  26452054.8194   26452056.0734
  -4730634.08546  -3570520.74045  25951302.2414   25951303.4954
  36521484.50144  28467525.42643  27281599.5934   27281601.1514
  -2221283.16745  -1517330.13145  26554089.3194   26554091.2064
  10006085.04446   8012010.94645  26434144.3824   26434146.4094
  19752193.28047  15392685.07546  25372956.4524   25372955.3624
  -2663644.20947  -1976235.87647  23942700.5774   23942700.5774
 02  9 12  4 15  0.0110000  0  7G29G 9G 8G 4G26G28G 7
   3825236.02645   2895507.94645  26473946.2494   26473947.4914
  -4781634.71046  -3610261.37345  25941596.9764   25941598.8744
  36668298.14645  28581925.60543  27309537.4214   27309538.0304
  -2286302.61945  -1567994.50345  26541716.6714   26541718.2064
  10116836.46246   8098310.74245  26455219.6634   26455221.4914
  19844225.13147  15464398.21446  25390469.1864   25390468.5184
  -2605054.73347  -1930581.72447  23953849.9914   23953850.1084
 02  9 12  4 15 30.0110000  0  7G29G 9G 8G 4G26G28G 7
   3940498.71245   2985322.99445  26495881.4294   26495882.3314
  -4832382.11746  -3649804.69945  25931940.5224   25931942.2334
  36815220.06944  28696410.19243  27337496.5304   27337496.7534
  -2351193.92445  -1618559.06145  26529367.5304   26529368.8784
  10227858.58646   8184821.44645  26476347.4524   26476349.3744
  19936394.76247  15536218.70946  25408008.9604   25408007.9404
  -2546122.40047  -1884660.40847  23965064.2264   23965064.7184
 02  9 12  4 16  0.0110000  0  7G29G 9G 8G 4G26G28G 7
   4055989.46245   3075315.75645  26517857.1404   26517859.0854
  -4882868.00946  -3689144.24145  25922333.2414   25922334.8704
  36962253.91043  28810981.96842  27365474.8274   27365476.1284
  -2415948.08846  -1669016.74645  26517047.0304   26517048.1084
  10339154.35046   8271545.38345  26497526.1474   26497527.7184
  20028707.62047  15608150.81846  25425575.0774   25425574.2334
  -2486842.65847  -1838468.38347  23976345.2964   23976345.5774
 02  9 12  4 16 30.0110000  0  7G29G 9G 8G 4G26G28G 7
   4171700.28046   3165479.99045  26539877.3584   26539878.7064
  -4933094.67446  -3728281.77745  25912775.0614   25912776.5264
  37109392.81643  28925635.59443  27393475.1084   27393478.3784
  -2480566.97645  -1719368.99345  26504748.4524   26504750.4334
  10450715.73546   8358476.32645  26518755.4764   26518757.3044
  20121158.73747  15680190.64346  25443167.7024   25443166.6944
  -2427221.86547  -1792010.60647  23987690.4914   23987690.6794
 02  9 12  4 17  0.0110000  0  7G29G 9G 8G 4G26G28G 7
     61854.70055                  26561938.2804
  -4983054.20946  -3767211.17046  25903268.0074   25903269.2724
  37256640.54244  29040374.01542  27421495.9054   27421497.6044
  -2545041.64545  -1769608.89345  26492480.3974   26492481.4404
     63398.76356                  26540035.3114
  20213753.53947  15752342.44146  25460788.4684   25460786.9684
  -2367255.81447  -1745283.79947  23999101.8434   23999101.9484
 02  9 12  4 17 30.0110000  0  7G29G 9G 8G 4G26G28G 7
     89061.42355                  26584040.4604
  -5032749.45346  -3805934.62545  25893810.5934   25893812.0344
  37403990.06244  29155191.77242  27449535.2884   27449540.6204
  -2609374.25445  -1819738.10545  26480238.2724   26480240.7104
     85953.94156                  26561365.6084
  20306486.42946  15824601.83946  25478433.8904   25478433.1754
  -2306951.33247  -1698293.27647  24010577.3274   24010577.7264
 02  9 12  4 18  0.0110000  0  7G29G 9G 8G 4G26G28G 7
    205423.05045        -3.26655  26606182.7574   26606184.2224
  -5082175.06746  -3844447.92745  25884405.7494   25884407.5544
  37551441.91444  29270089.27043  27477594.9364   27477597.9954
  -2673558.96046  -1869752.05145  26468024.6634   26468025.8704
    198304.12746     52548.12855  26582745.4684   26582747.0384
  20399360.06246  15896970.90446  25496108.1014   25496106.9294
  -2246306.98847  -1651037.92047  24022117.4134   24022118.0694
 02  9 12  4 18 30.0110000  0  7G29G 9G 8G 4G26G28G 7
    321991.51345     90829.25045  26628365.5854   26628367.4254
  -5131332.57946  -3882752.36645  25875051.3114   25875051.7804
  37698990.40644  29385062.05142  27505671.9834   27505674.5854
  -2737596.34946  -1919651.22745  26455838.4364   26455839.9484
    310907.35346    140290.89745  26604173.2574   26604174.5584
  20492370.20747  15969446.34546  25513807.4294   25513806.3394
  -2185328.21047  -1603521.97747  24033721.2804   24033721.5504
 02  9 12  4 19  0.0110000  0  7G29G 9G 8G 4G26G28G 7
    438769.70545    181825.18445  26650587.3194   26650588.9834
  -5180213.35546  -3920841.14845  25865750.1944   25865750.8044
  37846639.42943  29500113.23843  27533768.8354   27533772.2684
  -2801477.30746  -1969428.48145  26443682.3194   26443684.1944
    423766.78346    228233.27745  26625649.4684   26625650.8744
  20585522.87347  16042032.84246  25531533.8354   25531533.0854
  -2124010.42347  -1555741.87347  24045389.4764   24045389.4994
 02  9 12  4 19 30.0110000  0  7G29G 9G 8G 4G26G28G 7
    555751.45845    272979.72945  26672848.2494   26672849.9834
  -5228818.23946  -3958714.94045  25856500.4994   25856501.4604
  37994384.00945  29615238.84743  27561884.7724   27561886.9174
  -2865201.87846  -2019083.92145  26431555.2264   26431556.0224
    536876.02146    316370.31645  26647174.5614   26647176.1204
  20678814.55947  16114727.66746  25549286.3744   25549285.4134
  -2062358.33747  -1507701.27547  24057121.7264   24057122.0184
 02  9 12  4 20  0.0110000  0  7G29G 9G 8G 4G26G28G 7
    672931.16045    364288.53245  26695146.6944   26695147.0934
  -5277147.02946  -3996373.62345  25847303.6554   25847304.1834
  38142219.63844  29730435.29042  27590015.3824   27590019.9294
  -2928769.05345  -2068616.70045  26419458.6554   26419460.1794
    650229.90946    404697.98745  26668743.6944   26668745.4644
  20772242.95146  16187529.00846  25567064.8904   25567064.2224
  -2000375.58947  -1459403.02047  24068916.4524   24068917.0154
 02  9 12  4 20 30.0110000  0  7G29G 9G 8G 4G26G28G 7
                     43053.47655  26717482.1634
  -5325201.80046  -4033818.78245  25838158.8434   25838160.4834
  38290140.07744  29845697.98342  27618165.8664   27618167.4014
  -2992180.34045  -2118027.96345  26407392.0934   26407394.3544
    763820.90046    493210.42945  26690360.4134   26690361.5614
  20865803.08546  16260433.00846  25584869.2334   25584868.7654
  -1938068.18247  -1410851.77347  24080773.5384   24080773.9724
 02  9 12  4 21  0.0110000  0  7G29G 9G 8G 4G26G28G 7
                    101892.96455  26739852.8584
  -5372976.15146  -4071045.39345  25829067.5154   25829069.0504
  38438147.19343  29961028.22042  27646328.9054   27646333.2534
  -3055428.48746  -2167312.16545  26395355.6554   26395357.2724
                     87286.08556  26712021.2574
  20959498.93447  16333442.77146  25602699.7724   25602698.0384
  -1875433.75547  -1362045.71347  24092692.5154   24092692.7614
 02  9 12  4 21 30.0110000  0  7G29G 9G 8G 4G26G28G 7
    219644.35845      6118.46455  26762260.0694   26762262.1084
  -5420465.95746  -4108050.32646  25820030.3194   25820031.3514
  38586240.92744  30076425.79642  27674510.3354   27674514.0974
  -3118508.62745  -2216465.43745  26383351.9764   26383353.8514
    201352.00046     65195.94655  26733726.4684   26733727.8044
  21053331.97047  16406559.41246  25620554.7184   25620554.3314
  -1812471.93947  -1312984.54647  24104673.4604   24104673.5774
 02  9 12  4 22  0.0110000  0  7G29G 9G 8G 4G26G28G 7
    337583.57045     98019.08345  26784701.9054   26784704.2844
  -5467667.82246  -4144830.88846  25811048.4364   25811049.4094
  38734420.26343  30191890.16043  27702707.9524   27702710.4484
  -3181416.40945  -2265484.38145  26371380.6864   26371382.1164
    315652.79046    154261.48645  26755477.1944   26755478.7764
  21147303.07447  16479783.65546  25638437.1324   25638436.1594
  -1749183.16147  -1263668.60247  24116717.0544   24116717.3824
 02  9 12  4 22 30.0110000  0  7G29G 9G 8G 4G26G28G 7
    455701.52345    190058.99145  26807180.7414   26807183.0854
  -5514585.37546  -4181389.93046  25802120.2724   25802120.8354
  38882677.04943  30307414.85442  27730921.3664   27730922.4684
  -3244154.84246  -2314371.39345  26359442.8044   26359443.9644
    430179.45146    243502.99545  26777271.9214   26777273.0934
  21241406.32347  16553110.84646  25656344.8664   25656343.9524
  -1685575.04747  -1214103.83047  24128821.1404   24128821.7724
 02  9 12  4 23  0.0110000  0  7G29G 9G 8G 4G26G28G 7
    573999.52245    282239.18645  26829692.4684   26829694.7654
  -5561211.54546  -4217721.88846  25793247.5304   25793248.6324
  39031013.98744  30423002.02042  27759148.1014   27759151.4404
  -3306716.17246  -2363120.39845  26347536.5384   26347537.9684
    544933.41846    332921.63145  26799107.5694   26799108.9994
  21335645.71346  16626544.14046  25674276.9054   25674276.4254
  -1621644.52447  -1164287.82647  24140986.4604   24140986.5424
 02  9 12  4 23 30.0110000  0  7G29G 9G 8G 4G26G28G 7
    692472.25745    374555.53245  26852237.3514   26852239.6834
  -5607545.95246  -4253826.52746  25784430.7964   25784432.0734
  39179426.99344  30538648.46442  27787391.9524   27787393.5344
  -3369099.52446  -2411730.71445  26335666.4134   26335667.2574
    659909.52345    422513.38745  26820987.3974   26820989.1434
  21430019.14547  16700081.88446  25692236.5224   25692235.7964
  -1557395.37047  -1114223.53947  24153212.4054   24153212.3234
 02  9 12  4 24  0.0110000  0  7G29G 9G 8G 4G26G28G 7
    811117.26345    467006.12045  26874814.8114   26874816.9334
  -5653585.53446  -4289701.44246  25775669.5774   25775669.9644
  39327914.55841  30654352.99341  27815646.2804   27815646.6904
  -3431300.80446  -2460199.15745  26323829.8904   26323830.5344
    775105.41245    512276.36045  26842908.1714   26842909.9994
  21524526.96447  16773724.34246  25710220.6164   25710220.0774
  -1492828.26647  -1063911.49747  24165499.0934   24165499.2574
 02  9 12  4 24 30.0110000  0  7G29G 9G 8G 4G26G28G 7
    929927.37045    559585.38845  26897423.0304   26897424.7064
  -5699331.79246  -4325347.78046  25766963.6794   25766964.5224
  39476470.93341  30770111.23241  27843915.9914   27843918.0544
  -3493320.93246  -2508526.44345  26312027.7334   26312028.6474
    890513.99446    602205.07745  26864870.1864   26864871.2884
  21619165.06546  16847468.31946  25728229.0304   25728228.2454
  -1427948.71647  -1013355.99947  24177845.8904   24177846.0654
 02  9 12  4 25  0.0110000  0  7G29G 9G 8G 4G26G28G 7
   1048901.85045    652292.69945  26920063.8664   26920066.3394
  -5744780.08846  -4360761.93146  25758314.7414   25758315.7844
  39625096.21841  30885923.08241  27872200.3584   27872200.4524
  -3555154.53945  -2556708.38345  26300260.0774   26300261.7294
   1006134.38346    692298.84845  26886872.0304   26886873.5424
  21713935.43246  16921315.35146  25746262.5694   25746261.9134
  -1362756.08047   -962556.53347  24190251.6554   24190251.9014
 02  9 12  4 25 30.0110000  0  7G29G 9G 8G 4G26G28G 7
   1168037.61745    745125.70945  26942734.9054   26942736.4874
  -5789927.63946  -4395941.75646  25749724.7024   25749725.3114
  39773788.70541  31001787.11941  27900493.5694   27900494.8824
  -3616798.21246  -2604742.34045  26288530.0154   26288531.0464
   1121964.05545    782555.70245  26908913.8744   26908915.3274
  21808838.39346  16995265.71346  25764322.7574   25764322.7574
  -1297251.60747   -911514.07747  24202716.4524   24202716.8154
 02  9 12  4 26  0.0110000  0  7G29G 9G 8G 4G26G28G 7
   1287335.71845    838085.19545  26965436.0854   26965438.6864
  -5834768.12746  -4430882.30146  25741190.9604   25741191.9444
  39922550.51142                  27928802.6324
  -3678244.68946  -2652622.61245  26276837.2024   26276838.6674
   1238003.92646    872976.32745  26930995.6634   26930996.9524
  21903877.76146  17069322.34946  25782407.8354   25782407.5774
  -1231432.87647   -860226.74647  24215240.9604   24215241.1714
 02  9 12  4 26 30.0120000  0  7G29G 9G 8G 4G26G28G 7
   1406794.11445    931169.57445  26988168.2304   26988169.2734
  -5879303.09946  -4465584.78046  25732716.4184   25732717.0394
  40071381.68241                  27957120.9734
  -3739495.76246  -2700350.62845  26265182.5744   26265183.3594
   1354251.84345    963559.07745  26953116.4964   26953118.5234
  21999053.48546  17143485.26346  25800519.5194   25800518.8984
  -1165301.88447   -808696.09447  24227826.0824   24227825.9064
 02  9 12  4 27  0.0120000  0  7G29G 9G 8G 4G26G28G 7
   1526401.07445   1024369.73745  27010928.5744   27010931.3054
  -5923528.31446  -4500045.89646  25724299.6294   25724300.2624
  40220269.61241                  27985454.8944
  -3800544.67646  -2747921.13845  26253564.0354   26253565.4764
   1470696.45545   1054295.10445  26975275.1994   26975276.9574
  22094358.44446  17217748.87446  25818655.5044   25818654.4964
  -1098865.47247   -756927.45147  24240468.4184   24240468.6764
 02  9 12  4 27 30.0120000  0  7G29G 9G 8G 4G26G28G 7
   1646154.55745   1117684.08845  27033716.8244   27033719.2264
  -5967445.35146  -4534266.86546  25715943.0664   25715944.1444
  40369214.54941                  28013799.7854
  -3861393.24846  -2795335.52645  26241985.1524   26241986.1014
   1587335.87345   1145182.91945  26997471.2304   26997474.1724
  22189792.82846  17292113.33146  25836816.5354   25836815.4804
  -1032125.59347   -704922.33647  24253168.1764   24253168.6684
 02  9 12  4 28  0.0120000  0  7G29G 9G 8G 4G26G28G 7
   1766056.27145   1211113.91945  27056533.4184   27056536.2664
  -6011046.94146  -4568242.05346  25707645.8484   25707646.7034
  40518219.42041                  28042153.5514
  -3922033.42446  -2842587.51945  26230445.3094   26230446.6334
   1704171.90245   1236223.91445  27019704.3484   27019706.1294
  22285361.49946  17366582.42146  25855002.3244   25855001.3754
   -965078.95547   -652678.19347  24265926.6994   24265926.6524
 02  9 12  4 28 30.0120000  0  6G29G 9G 4G26G28G 7
   1886099.73645   1304654.26744  27079376.7774   27079378.8984
  -6054333.85546  -4601972.01346  25699408.5434   25699409.6444
  -3982465.33046  -2889677.22345  26218946.6764   26218947.3914
   1821198.11845   1327413.14245  27041973.9414   27041975.3594
  22381060.95946  17441153.41546  25873213.5194   25873212.5944
   -897730.49747   -600198.87547  24278742.9344   24278742.7584
 02  9 12  4 29  0.0120000  0  6G29G 9G 4G26G28G 7
   2006279.34145   1398300.63244  27102246.4574   27102248.7424
  -6097306.37946  -4635456.99246  25691230.6294   25691231.2854
  -4042688.45746  -2936604.26145  26207485.4964   26207485.7074
   1938408.68645   1418746.01345  27064278.0664   27064279.4844
  22476888.33846  17515824.10046  25891448.3164   25891447.7774
   -830084.45047   -547487.65547  24291615.5664   24291615.6844
 02  9 12  4 29 30.0120000  0  6G29G 9G 4G26G28G 7
   2126594.92845   1492053.00743  27125142.7304   27125145.5314
  -6139958.94546  -4668692.65646  25683114.7304   25683115.1874
  -4102696.37846  -2983363.58645  26196065.9024   26196066.8634
   2055804.07245   1510222.87145  27086617.9414   27086619.9454
  22572846.73846  17590596.86746  25909707.6134   25909707.3554
   -762139.05947   -494543.18647  24304545.1764   24304545.5984
 02  9 12  4 30  0.0120000  0  6G29G 9G 4G26G28G 7
   2247042.19544   1585907.94343  27148061.8484   27148064.6484
  -6182290.41746  -4701678.13646  25675058.2464   25675058.8444
  -4162487.25546  -3029953.79045  26184689.5124   26184690.4264
   2173379.61645   1601840.15045  27108991.6604   27108993.3944
  22668934.58646  17665470.50446  25927993.3794   25927993.0274
   -693897.11847   -441367.63747  24317530.9344   24317531.0164
 02  9 12  4 30 30.0120000  0  6G29G 9G 4G26G28G 7
   2367620.86344   1679865.33543  27171007.6604   27171010.5904
  -6224295.59846  -4734409.35646  25667065.3944   25667065.5594
  -4222055.12146  -3076370.24945  26173352.6444   26173353.2544
   2291135.23045   1693597.75645  27131399.8404   27131402.0784
  22765154.69046  17740447.19546  25946303.8404   25946302.7854
   -625357.51247   -387960.14147  24330573.6524   24330573.4884
 02  9 12  4 31  0.0120000  0  6G29G 9G 4G26G28G 7
   2488328.36944   1773923.06243  27193976.6214   27193977.4184
  -6265971.41446  -4766883.93746  25659135.3874   25659135.3054
  -4281396.29346  -3122610.03545  26162061.1294   26162061.6684
   2409068.37045   1785493.69945  27153841.5274   27153843.0044
  22861507.54946  17815527.34046  25964639.9344   25964639.2304
   -556521.23547   -334321.47747  24343672.4574   24343672.5744
 02  9 12  4 31 30.0120000  0  6G29G 9G 4G26G28G 7
   2609158.87244   1868076.61943  27216970.4804   27216973.1524
  -6307317.96346  -4799101.95746  25651266.7154   25651267.2194
  -4340510.12546  -3168672.67545  26150812.5984   26150813.3124
   2527173.63745   1877523.76145  27176316.4654   27176317.6374
  22957990.38646  17890708.77546  25982998.8794   25982997.8594
   -487392.21647   -280454.69947  24356827.6054   24356828.0624
 02  9 12  4 32  0.0120000  0  6G29G 9G 4G26G28G 7
   2730111.05544   1962325.00544  27239986.4414   27239988.6214
  -6348331.07246  -4831060.13246  25643461.9804   25643462.9304
  -4399391.74546  -3214554.34545  26139607.2694   26139608.2304
   2645449.53445   1969686.76845  27198823.6214   27198825.5314
  23054604.60546  17965992.58246  26001384.1994   26001383.3554
   -417970.45347   -226359.81347  24370038.5194   24370038.5904
 02  9 12  4 32 30.0120000  0  6G29G 9G 4G26G28G 7
   2851185.30745   2056668.50045  27263028.1844   27263030.7264
  -6389004.91246  -4862753.96346  25635722.2304   25635722.8164
  -4458034.62446  -3260250.02645  26128447.9024   26128448.5354
   2763896.52645   2061983.07345  27221363.5904   27221364.5864
  23151353.67246  18041381.46045  26019794.6524   26019793.8794
   -348253.98347   -172035.28847  24383305.0904   24383305.1134
 02  9 12  4 33  0.0120000  0  6G29G 9G 4G26G28G 7
   2972372.30745   2151099.88545  27286088.8324   27286090.6604
  -6429343.27946  -4894186.38646  25628045.8874   25628046.0864
  -4516441.73246  -3305761.97745  26117332.9184   26117333.2814
   2882505.33845   2154405.50645  27243933.2854   27243934.9374
  23248231.30846  18116870.51645  26038230.3794   26038228.7854
   -278250.53247   -117487.13347  24396626.1844   24396626.4184
 02  9 12  4 33 30.0120000  0  6G29G 9G 4G26G28G 7
   3093670.76145   2245618.08045  27309170.8244   27309173.3674
  -6469341.66046  -4925353.91346  25620435.0744   25620434.8874
  -4574607.76746  -3351086.07545  26106264.2544   26106265.4614
   3001274.85545   2246953.14045  27266534.3244   27266536.6914
  23345239.32146  18192461.16746  26056689.3634   26056688.3674
   -207959.79347    -62715.12547  24410001.5824   24410001.6764
 02  9 12  4 34  0.0120000  0  6G29G 9G 4G26G28G 7
   3215077.94445   2340221.00745  27332273.4344   27332275.0984
  -6508997.47646  -4956254.47346  25612888.4494   25612888.2734
  -4632529.61046  -3396219.87045  26095242.9494   26095243.6644
   3120202.40945   2339623.92845  27289165.6844   27289166.4804
  23442377.84146  18268153.50946  26075174.6444   26075174.3404
   -137383.04447     -7720.24747  24423432.3634   24423432.5744
 02  9 12  4 34 30.0120000  0  6G29G 9G 4G26G28G 7
   3336593.28345   2434908.20645  27355398.0744   27355400.2664
  -6548305.66346  -4986884.15746  25605407.7304   25605408.8914
  -4690201.31446  -3441158.80345  26084268.3484   26084268.7464
   3239287.55745   2432417.51645  27311827.6914   27311829.4614
  23539649.31946  18343949.45446  26093684.6294   26093684.3944
    -66519.21447     47498.33447  24436916.4884   24436916.9104
 02  9 12  4 35  0.0120000  0  6G29G 9G 4G26G28G 7
   3458215.14145   2529678.43445  27378541.9414   27378544.1094
  -6587262.31046  -5017239.91746  25597994.6914   25597995.3244
  -4747618.30946  -3485899.22145  26073341.3714   26073342.1914
   3358528.56145   2525332.57245  27334517.6214   27334520.3284
  23637054.96646  18419849.94446  26112221.3404   26112220.7074
      4631.52447    102940.47547  24450456.5434   24450456.7074
 02  9 12  4 35 30.0120000  0  6G29G 9G 4G26G28G 7
   3579941.92145   2624530.38245  27401706.0744   27401708.2194
  -6625863.67046  -5047318.82046  25590649.1524   25590649.9614
  -4804776.01346  -3530437.59345  26062464.7234   26062465.2974
   3477923.98145   2618367.96645  27357237.9654   27357239.5704
  23734596.43546  18495856.28145  26130782.4024   26130781.4764
     76069.26347    158606.25347  24464050.9654   24464050.8484
 02  9 12  4 36  0.0120000  0  6G29G 9G 4G26G28G 7
   3701767.62045   2719459.45645  27424887.6444   27424889.2854
  -6664110.33346  -5077121.33846  25583370.4104   25583371.0084
  -4861674.07646  -3574773.67645  26051637.2234   26051637.9844
   3597467.90645   2711519.04445  27379986.6994   27379988.0004
  23832270.46246  18571965.90245  26149369.5514   26149367.9804
    147789.33047    214492.01447  24477698.5354   24477698.4064
 02  9 12  4 36 30.0120000  0  6G29G 9G 4G26G28G 7
   3823693.75245   2814466.75844  27448090.0514   27448093.0514
  -6701994.85746  -5106641.68146  25576161.7624   25576161.8094
  -4918304.70946  -3618901.36345  26040860.6684   26040861.3014
   3717162.00045   2804787.16245  27402762.9344   27402764.4224
  23930081.85046  18648182.55246  26167981.8484   26167981.1444
    219794.97247    270600.32247  24491400.5354   24491400.9224
 02  9 12  4 37  0.0120000  0  6G29G 9G 4G26G28G 7
   3945715.62945   2909548.65644  27471309.6604   27471311.8164
  -6739516.78246  -5135879.47946  25569021.3794   25569021.5554
  -4974666.51046  -3662819.56445  26030135.0124   26030135.8204
   3837001.43045   2898168.48945  27425568.7774   27425569.4224
  24028028.54846  18724504.63946  26186620.0904   26186619.3754
    292082.77047    326928.47947  24505156.3714   24505156.8754
 02  9 12  4 37 30.0120000  0  6G29G 9G 4G26G28G 7
   4067829.61544   3004702.32543  27494547.9344   27494549.5984
  -6776674.28246  -5164833.30346  25561951.1444   25561951.5314
  -5030756.84446  -3706526.25245  26019462.0194   26019462.5824
   3956982.66045   2991660.33245  27448400.0984   27448401.9264
  24126110.15246  18800931.84645  26205285.7624   26205284.4374
    364650.76547    383474.97147  24518965.9344   24518965.7934
 02  9 12  4 38  0.0120000  0  6G29G 9G 4G26G28G 7
   4190032.49244   3099925.33743  27517801.1844   27517804.0784
  -6813465.07146  -5193501.38146  25554949.5274   25554949.3634
  -5086572.55146  -3750018.94045  26008839.9024   26008840.5704
   4077102.51945   3085260.20545  27471257.7774   27471260.2384
  24224326.24646  18877463.86145  26223975.0984   26223974.1954
    437497.42247    440238.60447  24532828.5594   24532828.2544
 02  9 12  4 38 30.0120000  0  6G29G 9G 4G26G28G 7
   4312321.14243   3195215.09143  27541072.3094   27541072.1914
  -6849886.56746  -5221881.70246  25548018.7544   25548019.3054
  -5142110.73346  -3793295.37346  25998272.5194   25998273.1644
   4197358.15845   3178965.86345  27494141.5194   27494144.5434
  24322676.76646  18954100.62945  26242690.3714   26242689.7854
    510621.04347    497218.05847  24546742.7234   24546742.9454
 02  9 12  4 39  0.0120000  0  6G29G 9G 4G26G28G 7
   4434693.89843   3290570.38243  27564357.8094   27564361.0664
  -6885934.70246  -5249971.09146  25541158.5124   25541159.2384
  -5197366.78246  -3836351.94945  25987756.5274   25987757.5474
   4317747.90745   3272776.02245  27517051.4344   27517053.4024
  24421163.30846  19030843.36245  26261432.0124   26261431.7664
    584021.58447    554413.28847  24560710.1054   24560710.7624
 02  9 12  4 39 30.0120000  0  6G29G 9G 4G26G28G 7
   4557143.84942   3385985.82742  27587658.8324   27587660.2154
  -6921611.43046  -5277771.06946  25534370.0124   25534370.7034
  -5252341.44746  -3879189.29145  25977295.3944   25977295.4064
   4438264.82045   3366685.25545  27539985.8324   27539987.4614
  24519781.51146  19107688.70645  26280197.6844   26280197.4734
    657693.45947    611819.95047  24574730.0354   24574730.2344
 02  9 12  4 40  0.0120000  0  6G29G 9G 4G26G28G 7
   4679666.40943   3481457.92343  27610974.6994   27610978.1444
  -6956915.77646  -5305280.89246  25527651.5984   25527651.1644
  -5307033.02446  -3921806.04345  25966887.8944   25966888.4344
   4558904.38445   3460690.07445  27562942.7934   27562944.8554
  24618529.90146  19184635.47945  26298990.0664   26298989.1644
    731633.60647    669435.65547  24588800.2774   24588800.2304
 02  9 12  4 40 30.0120000  0  6G29G 9G 4G26G28G 7
   4802260.08343   3576985.34843  27634304.3324   27634306.3484
  -6991843.59046  -5332497.30846  25521005.3404   25521005.8204
  -5361436.87246  -3964198.57246  25956534.8164   25956535.3094
   4679665.22845   3554789.39545  27585922.4104   27585924.4494
  24717410.08046  19261684.95645  26317805.2624   26317804.0904
    805842.23647    727260.56647  24602921.8244   24602921.6604
 02  9 12  4 41  0.0120000  0  6G29G 9G 4G26G28G 7
   4924918.73244   3672563.42843  27657646.6054   27657650.7194
  -7026396.02046  -5359421.22946  25514429.6914   25514430.0904
  -5415552.86146  -4006366.81346  25946237.9574   25946237.9924
   4800541.13445   3648978.36945  27608924.5194   27608926.3714
  24816418.58746  19338834.43645  26336646.9414   26336645.5234
    880314.39147    785290.83147  24617093.5124   24617093.7464
 02  9 12  4 41 30.0120000  0  6G29G 9G 4G26G28G 7
   5047638.06644   3768188.77843  27680998.8484   27681001.3094
  -7060571.51046  -5386051.41946  25507926.2154   25507926.6254
  -5469379.06746  -4048309.23846  25935994.6844   25935995.2584
   4921528.03246   3743253.85445  27631947.9884   27631949.7934
  24915554.34246  19416083.05345  26355511.0124   26355510.3444
    955047.59547    843524.50447  24631314.2464   24631314.5164
 02  9 12  4 42  0.0120000  0  6G29G 9G 4G26G28G 7
   5170413.58644   3863857.96243  27704362.0514   27704364.7814
  -7094369.48447  -5412387.43746  25501495.0594   25501495.4694
  -5522914.27446  -4090024.91246  25925806.9734   25925807.4764
   5042621.36145   3837612.27945  27654991.0904   27654992.8364
  25014815.71746  19493429.57545  26374400.3324   26374399.6874
   1030038.53847    901959.01447  24645585.0124   24645585.1764
 02  9 12  4 42 30.0120000  0  6G29G 9G 4G26G28G 7
   5293242.78644   3959568.92644  27727736.7304   27727740.1294
  -7127786.50147  -5438426.61246  25495136.0904   25495135.9734
  -5576154.23946  -4131510.51846  25915675.3484   25915675.9104
   5163818.73945   3932051.76145  27678052.8874   27678054.4574
  25114203.26746  19570874.40645  26393312.1994   26393312.5394
   1105286.61247    960593.89347  24659903.7234   24659903.7344
 02  9 12  4 43  0.0120000  0  6G29G 9G 4G26G28G 7
   5416126.90745   4055322.70443  27751122.3484   27751121.4224
  -7160816.43246  -5464164.17346  25488850.3944   25488850.6054
  -5629091.95146  -4172760.62246  25905601.5904   25905602.0704
   5285121.32545   4026573.23444  27701136.1844   27701139.1484
  25213720.95646  19648420.63445  26412250.9884   26412250.2384
   1180794.28647   1019431.04947  24674272.6604   24674272.9654
 02  9 12  4 43 30.0120000  0  6G29G 9G 4G26G28G 7
   5539058.71144   4151113.67643  27774513.1444   27774517.3054
  -7193461.16347  -5489601.55646  25482638.1374   25482638.3944
  -5681728.36546  -4213775.94846  25895585.5904   25895585.8714
   5406522.11845   4121171.23145  27724239.7934   27724240.7544
  25313364.46146  19726064.92245  26431212.5984   26431210.9694
   1256555.69947   1078465.92747  24688689.7694   24688689.9574
 02  9 12  4 44  0.0120000  0  6G29G 9G 4G26G28G 7
   5662033.97645   4246938.47744  27797915.1764   27797918.8094
  -7225719.56546  -5514737.91446  25476499.3554   25476499.5194
  -5734061.81446  -4254555.18146  25885625.5904   25885626.3634
   5528016.65345   4215842.25844  27747357.9184   27747358.7974
  25413132.66746  19803806.36445  26450197.2304   26450195.5084
   1332568.22647   1137696.47047  24703154.6524   24703154.9694
 02  9 12  4 44 30.0120000  0  6G29G 9G 4G26G28G 7
   5785048.16445   4342793.57544  27821323.3014   27821325.4454
  -7257590.46046  -5539572.32146  25470434.3404   25470433.8014
  -5786090.42346  -4295096.89346  25875725.3324   25875725.5664
   5649600.71045   4310583.03344  27770495.0274   27770496.9734
  25513023.99546  19881643.76245  26469206.2154   26469204.7384
   1408828.90647   1197120.38347  24717666.3634   24717666.5274
 02  9 12  4 45  0.0120000  0  6G29G 9G 4G26G28G 7
   5908100.33845   4438678.32044  27844741.3014   27844743.9964
  -7289069.52547  -5564101.39946  25464444.4884   25464444.5594
  -5837809.17446  -4335397.15846  25865884.3554   25865884.3794
   5771273.25044   4405392.79043  27793647.5744   27793649.0394
  25613040.52346  19959578.72345  26488239.3794   26488238.1484
   1485338.19647   1256738.01947  24732225.2934   24732225.3284
 02  9 12  4 45 30.0120000  0  6G29G 9G 4G26G28G 7
   6031184.88144   4534588.28844  27868162.4414   27868165.4654
  -7320157.00547  -5588325.35646  25458528.6994   25458528.6524
  -5889217.51346  -4375455.52846  25856101.4574   25856101.4454
   5893028.79445   4500267.19243  27816818.9734   27816821.9614
  25713179.65046  20037609.18745  26507294.4024   26507293.7694
   1562091.93447   1316546.12847  24746831.1134   24746831.2074
 02  9 12  4 46  0.0120000  0  6G29G 9G 4G26G28G 7
   6154298.89144   4630521.17544  27891590.3014   27891592.5044
  -7350850.56047  -5612242.35246  25452687.8554   25452687.5514
  -5940312.44146  -4415269.69446  25846377.5824   25846377.9574
   6014864.42844   4595203.98644  27840001.2464   27840004.3164
  25813441.09446  20115734.97445  26526374.3164   26526372.7934
   1639088.79047   1376543.67647  24761483.6444   24761483.5864
 02  9 12  4 46 30.0120000  0  6G29G 9G 4G26G28G 7
   6277440.85344   4726475.87144  27915024.2694   27915028.6644
  -7381146.44646  -5635849.48846  25446922.3404   25446922.1764
  -5991089.31146  -4454836.02546  25836715.4964   25836716.0234
   6136778.63644   4690201.99844  27863201.6524   27863205.1334
  25913826.34846  20193957.23345  26545475.8634   26545474.9964
   1716328.55047   1436730.50947  24776181.6134   24776182.0354
 02  9 12  4 47  0.0120000  0  6G29G 9G 4G26G28G 7
   6400608.65944   4822450.68744  27938462.1604   27938463.6254
  -7411041.34646  -5659144.17146  25441233.1134   25441232.9374
  -6041544.13946  -4494151.38346  25827114.5354   25827115.3554
   6258769.42545   4785259.68845  27886416.4574   27886418.6254
  26014336.14446  20272276.54145  26564602.3404   26564601.2034
   1793810.59447   1497106.14147  24790925.1764   24790925.4104
 02  9 12  4 47 30.0120000  0  6G29G 9G 4G26G28G 7
   6523796.35942   4918441.04043  27961899.9414   27961905.6374
  -7440536.07847  -5682127.01546  25435621.0594   25435621.1874
  -6091677.05346  -4533215.91846  25817573.9884   25817574.4804
   6380830.80645   4880372.39545  27909644.9884   27909646.2544
  26114967.64546  20350690.69045  26583752.6294   26583751.4454
   1871530.60547   1557667.19147  24805715.1054   24805715.0474
 02  9 12  4 48  0.0120000  0  6G29G 9G 4G26G28G 7
   6647003.19043   5014446.24143  27985349.5744   27985353.1954
  -7469625.93347  -5704794.38146  25430085.0904   25430085.3364
  -6141482.32746  -4572025.15646  25808096.0984   25808096.3094
   6502962.24645   4975539.68745  27932885.0664   27932886.8014
  26215723.12146  20429201.42345  26602925.7694   26602924.0944
   1949489.12247   1618414.08847  24820550.1054   24820550.2584
 02  9 12  4 48 30.0120000  0  6G29G 9G 4G26G28G 7
   6770224.90341   5110463.11842  28008794.0664   28008796.0004
  -7498310.02846  -5727145.57846  25424626.5194   25424626.4844
  -6190958.40846  -4610577.86746  25798681.1684   25798681.5784
   6625159.33845   5070758.15445  27956137.2544   27956139.5164
  26316601.12746  20507807.66145  26622121.5434   26622120.8514
   2027683.46647   1679344.75247  24835430.1764   24835430.5984
 02  9 12  4 49  0.0120000  0  6G29G 9G 4G26G28G 7
   6893462.48942   5206492.32842  28032245.6524   28032249.5554
  -7526582.23746  -5749175.81346  25419246.2304   25419246.2304
  -6240098.44246  -4648868.72346  25789330.9264   25789331.1254
   6747423.03245   5166028.49945  27979404.0044   27979406.5594
  26417605.32046  20586512.20645  26641343.1684   26641342.1724
   2106115.98347   1740461.00347  24850355.6294   24850355.8404
 02  9 12  4 49 30.0120000  0  6G29G 9G 4G26G28G 7
   7016710.01643   5302529.24142  28055702.8634   28055704.7034
  -7554443.00347  -5770885.45446  25413944.6214   25413945.0194
  -6288902.30146  -4686897.64546  25780043.3094   25780043.1214
   6869747.60245   5261346.31145  28002681.6444   28002684.0944
  26518732.92146  20665312.91245  26660586.4494   26660584.6334
   2184782.23847   1801759.38147  24865324.9574   24865325.0044
 02  9 12  4 50  0.0130000  0  6G29G 9G 4G26G28G 7
   7139972.65642   5398577.96442  28079157.8374   28079162.8064
  -7581887.13847  -5792270.44346  25408721.9774   25408721.7784
  -6337364.59446  -4724660.39346  25770821.2124   25770821.4114
   6992138.06345   5356715.43845  28025971.5174   28025974.6104
  26619991.16846  20744215.41545  26679854.1184   26679853.2044
   2263687.17947   1863243.74947  24880340.3604   24880340.4664
 02  9 12  4 50 30.0130000  0  7G29G 9G 5G 4G26G28G 7
   7263237.80743   5494628.66542  28102615.5714   28102616.4154
  -7608911.92147  -5813328.69046  25403579.7674   25403579.4384
    -43425.83552                  28213761.5014
  -6385480.28946  -4762153.07146  25761665.4154   25761665.4854
   7114582.00645   5452126.24545  28049272.2594   28049273.5954
  26721371.92146  20823213.40245  26699146.4154   26699146.0524
   2342822.80847   1924907.88947  24895399.1814   24895399.2744
 02  9 12  4 51  0.0130000  0  7G29G 9G 5G 4G26G28G 7
   7386507.17243   5590682.59642  28126072.3764   28126076.6304
  -7635515.55447  -5834058.74746  25398516.6734   25398516.8024
   -100092.94042                  28202978.1964
  -6433247.74346  -4799374.39046  25752574.4544   25752574.7244
   7237081.09845   5547580.02445  28072583.4464   28072584.4314
  26822878.99846  20902309.79845  26718463.7674   26718463.3334
   2422190.63747   1986752.95047  24910502.6574   24910502.7634
 02  9 12  4 51 30.0130000  0  7G29G 9G 5G 4G26G28G 7
   7509781.84443   5686740.73142  28149531.1264   28149533.4234
  -7661691.60347  -5854455.62146  25393536.1814   25393536.0994
   -156780.93143    -10307.37351  28192190.8064   28192200.4074
  -6480659.82946  -4836318.80346  25743552.3994   25743552.7274
   7359636.52045   5643077.69844  28095903.9074   28095906.2634
  26924516.32446  20981507.69445  26737805.5094   26737804.4314
   2501793.17447   2048780.89847  24925650.5564   24925650.6844
 02  9 12  4 52  0.0130000  0  7G29G 9G 5G 4G26G28G 7
     20541.97653                  28172990.7354
  -7687437.07447  -5874516.99746  25388637.1424   25388636.5324
   -213488.34343    -54494.73542  28181397.8214   28181402.2274
  -6527712.59046  -4872983.21646  25734599.2744   25734599.4384
   7482246.19744   5738617.65344  28119236.1264   28119239.5134
  27026284.83946  21060807.80445  26757170.3294   26757169.8024
   2581630.05847   2110991.46247  24940842.3924   24940842.3564
 02  9 12  4 52 30.0130000  0  7G29G 9G 5G 4G26G28G 7
    143823.94344                  28196450.3294
  -7712746.12647  -5894238.28646  25383820.7434   25383820.8024
   -270210.90244    -98693.86442  28170604.7674   28170607.8254
  -6574399.77946  -4909362.78146  25725714.3214   25725714.3454
   7604910.80645   5834200.45544  28142578.3764   28142579.8294
  27128187.88846  21140212.74545  26776561.9384   26776561.2124
   2661703.22847   2173386.14047  24956080.0954   24956080.2944
 02  9 12  4 53  0.0130000  0  7G29G 9G 5G 4G26G28G 7
    267104.39643                  28219908.5954
  -7737618.86547  -5913619.60346  25379087.3064   25379087.1304
   -326950.22145   -142906.10643  28159807.5244   28159809.7514
  -6620720.40446  -4945456.70746  25716899.6264   25716899.8724
   7727625.06945   5929821.86244  28165932.1184   28165935.1534
  27230223.12346  21219720.69245  26795978.1494   26795976.7674
   2742008.77647   2235961.90047  24971361.6574   24971361.6694
 02  9 12  4 53 30.0130000  0  7G29G 9G 5G 4G26G28G 7
    390383.59444     80047.54752  28243368.3064   28243370.0054
  -7762050.23647  -5932656.98646  25374438.1654   25374438.3294
   -383702.72044   -187128.69342  28149007.1884   28149008.9584
  -6666668.78146  -4981260.56346  25708155.4384   25708155.6384
   7850388.98444   6025481.99943  28189291.7204   28189292.7864
  27332393.32846  21299333.81845  26815420.2744   26815418.8924
   2822548.16947   2298719.86747  24986687.5244   24986687.7594
 02  9 12  4 54  0.0130000  0  7G29G 9G 5G 4G26G28G 7
    513659.27343    176106.39842  28266826.4544   28266828.7164
  -7786037.29347  -5951348.16646  25369873.8454   25369873.7634
   -440466.90244   -231360.36842  28138205.3454   28138208.7904
  -6712241.44846  -5016771.66146  25699483.5634   25699483.8804
   7973200.40544   6121179.15943  28212661.0174   28212662.0594
  27434699.24846  21379052.70145  26834888.9154   26834889.4074
   2903320.50147   2361659.34847  25002058.3294   25002058.4234
 02  9 12  4 54 30.0130000  0  7G29G 9G 5G 4G26G28G 7
    636927.61844    272159.53142  28290284.2594   28290287.2354
  -7809578.92247  -5969692.25746  25365394.3764   25365393.9894
   -497242.93345   -275601.27242  28127401.9624   28127403.8844
  -6757436.20546  -5051988.29746  25690883.9234   25690884.1224
   8096055.35844   6216910.23743  28236039.8374   28236040.3174
  27537139.67246  21458876.37345  26854382.8134   26854382.3564
   2984323.23547   2424778.35047  25017473.0094   25017472.9504
 02  9 12  4 55  0.0130000  0  7G29G 9G 5G 4G26G28G 7
    760188.76345    368207.06643  28313741.5564   28313743.7354
  -7832669.66547  -5987685.00446  25360999.7204   25360999.4974
   -554026.87144   -319848.32842  28116595.4074   28116597.6454
  -6802246.63447  -5086905.44946  25682356.9314   25682357.1884
   8218954.41244   6312675.67043  28259427.4074   28259429.5874
  27639718.09946  21538807.56345  26873902.5484   26873902.3604
   3065558.42247   2488078.49947  25032931.0404   25032931.2864
 02  9 12  4 55 30.0130000  0  7G29G 9G 5G 4G26G28G 7
    883441.76943    464248.27842  28337194.0244   28337195.5714
  -7855305.31547  -6005323.12946  25356692.3294   25356692.2354
   -610816.11144   -364099.52142  28105789.7354   28105789.3374
  -6846668.33946  -5121519.70346  25673903.0564   25673903.1614
   8341896.34044   6408474.51843  28282821.6264   28282823.9814
  27742436.12246  21618847.54945  26893449.0564   26893448.0244
   3147026.14447   2551559.85247  25048434.1264   25048433.8684
 02  9 12  4 56  0.0130000  0  7G29G 9G 5G 4G26G28G 7
   1006682.22243    560279.68642  28360646.8214   28360651.5914
  -7877485.61147  -6022606.44346  25352471.7274   25352471.2594
   -667611.54044   -408355.52143  28094981.5794   28094982.6344
  -6890699.98047  -5155830.01946  25665524.4154   25665524.2634
   8464876.71144   6504303.32443  28306225.1574   28306227.2674
  27845291.91346  21698994.90945  26913022.2124   26913021.5674
   3228723.52747   2615220.13747  25063980.7044   25063980.7394
 02  9 12  4 56 30.0130000  0  7G29G 9G 5G 4G26G28G 7
   1129908.53143    656300.12942  28384097.2204   28384101.7904
  -7899206.98647  -6039532.15246  25348338.1344   25348337.5364
   -724410.75244   -452614.52443  28084171.5094   28084173.7704
  -6934337.24346  -5189833.02846  25657219.8844   25657220.1534
   8587894.14444   6600161.02543  28329633.9624   28329634.1614
  27948287.09946  21779250.86345  26932621.6344   26932621.3174
   3310650.35047   2679059.22647  25079569.9624   25079570.3374
 02  9 12  4 57  0.0130000  0  7G29G 9G 5G 4G26G28G 7
     45169.84653                  28407542.1184
  -7920467.53047  -6056098.77746  25344291.8764   25344291.5714
   -781213.11244   -496875.98544  28073362.7044   28073366.1734
  -6977577.29347  -5223526.52646  25648992.1964   25648992.2784
   8710945.77843   6696045.29243  28353049.5634   28353054.1224
  28051421.62546  21859615.39145  26952247.2744   26952247.5324
   3392805.06747   2743075.89047  25095204.3764   25095204.3174
 02  9 12  4 57 30.0130000  0  7G29G 9G 5G 4G26G28G 7
    168361.28042                  28430984.9704
  -7941262.77147  -6072302.81246  25340334.9624   25340335.0794
   -838015.70644   -541137.62443  28062554.3294   28062555.8764
  -7020415.34146  -5256906.77546  25640839.7514   25640839.8454
   8834030.52744   6791955.46043  28376472.7514   28376474.6024
  28154697.17746  21940089.82045  26971900.5404   26971900.1064
   3475188.22547   2807270.54647  25110881.6104   25110881.4234
 02  9 12  4 58  0.0130000  0  7G29G 9G 5G 4G26G28G 7
    291529.93542                  28454421.5094
  -7961592.81647  -6088144.38446  25336466.1814   25336465.8414
   -894819.91144   -585400.50144  28051743.4544   28051746.9344
  -7062850.36147  -5289972.96846  25632765.0094   25632765.2204
   8957143.55744   6887887.62944  28399900.4074   28399902.6344
  28258111.70046  22020672.51645  26991579.0564   26991576.9234
   3557796.26347   2871640.45147  25126600.6654   25126600.7944
 02  9 12  4 58 30.0130000  0  7G29G 9G 5G 4G26G28G 7
     20518.20753                  28477857.7824
  -7981454.45447  -6103620.95146  25332686.5794   25332686.1924
   -951623.60745   -629663.01444  28040935.8064   28040936.9074
  -7104878.43747  -5322722.06346  25624767.3374   25624767.1264
   9080283.20644   6983840.56243  28423332.6104   28423334.0524
  28361666.20046  22101364.32445  27011284.8524   27011284.5014
   3640628.85747   2936185.33047  25142363.5324   25142363.4974
 02  9 12  4 59  0.0130000  0  7G29G 9G 5G 4G26G28G 7
    143633.42342                  28501285.3604
  -8000847.26547  -6118732.19846  25328996.8374   25328996.5564
  -1008427.70744   -673925.84443  28030124.9934   28030126.6814
  -7146498.40646  -5355153.14446  25616846.8454   25616846.7744
   9203444.97545   7079810.70544  28446771.0714   28446773.5204
  28465359.12246  22182163.96645  27031017.2674   27031016.6574
   3723682.91947   3000902.77347  25158168.0174   25158168.2634
 02  9 12  4 59 30.0130000  0  6G 9G 5G 4G26G28G 7
  -8019765.82247  -6133473.89147  25325396.6424   25325396.3254
  -1065227.91545   -718185.60843  28019316.3374   28019318.9854
  -7187704.02647  -5387261.35246  25609005.8454   25609006.2204
   9326629.48844   7175798.56844  28470211.7594   28470212.1694
  28569193.80546  22263074.06845  27050777.4624   27050776.9934
   3806960.50147   3065794.39047  25174015.2904   25174015.3724
 02  9 12  5  0  0.0130000  0  6G 9G 5G 4G26G28G 7
  -8038212.02347  -6147847.53147  25321886.1574   25321885.8994
  -1122027.63045   -762445.01443  28008507.8064   28008508.9194
  -7228496.57346  -5419047.69546  25601242.4854   25601242.3094
   9449829.78045   7271798.71544  28493657.0634   28493658.9974
  28673165.96546  22344091.31545  27070561.6184   27070560.0244
   3890455.91447   3130855.74247  25189904.4464   25189904.3174
 02  9 12  5  0 30.0130000  0  6G 9G 5G 4G26G28G 7
  -8056179.77947  -6161848.34747  25318466.5094   25318466.3334
  -1178821.89145   -806700.21644  27997700.5244   27997702.3994
  -7268869.45346  -5450507.03146  25593559.9074   25593559.5794
   9573046.94245   7367812.05044  28517102.5014   28517105.4774
  28777279.65546  22425218.85145  27090373.1424   27090372.8134
   3974171.57647   3196088.72147  25205834.6814   25205834.4704
 02  9 12  5  1  0.0130000  0  7G 9G 5G24G 4G26G28G 7
  -8073666.39047  -6175474.25947  25315139.8764   25315139.5834
  -1235608.80245   -850949.67644  27986894.8994   27986896.3644
    -43265.44651                  27912770.6344
  -7308818.62347  -5481636.20746  25585958.4234   25585958.3414
   9696279.18245   7463837.06944  28540554.5564   28540557.3564
  28881535.68146  22506457.26345  27110213.2044   27110212.4894
   4058107.14847   3261493.06047  25221806.8454   25221806.8454
 02  9 12  5  1 30.0130000  0  7G 9G 5G24G 4G26G28G 7
  -8090672.06247  -6188725.40547  25311903.5484   25311903.3604
  -1292389.86045   -895194.58545  27976089.6734   27976090.1534
   -119582.99242                  27898247.5714
  -7348343.69746  -5512434.90846  25578436.8604   25578436.8254
   9819521.30644   7559869.85344  28564005.0094   28564009.7314
  28985931.66546  22587804.76245  27130079.4234   27130077.4774
   4142258.78147   3327065.74947  25237821.1264   25237821.3374
 02  9 12  5  2  0.0130000  0  7G 9G 5G24G 4G26G28G 7
  -8107190.98247  -6201597.26447  25308759.1574   25308759.0994
  -1349160.26045   -939431.15945  27965285.5874   27965288.1534
   -195847.50643     -1979.08352  27883738.0014   27883742.3134
  -7387438.24346  -5542898.14146  25570997.0794   25570996.7274
   9942774.40044   7655911.16244  28587460.0404   28587462.8064
  29090471.33945  22669264.23345  27149971.4544   27149970.3414
   4226628.84047   3392808.63747  25253875.8294   25253875.9704
 02  9 12  5  2 30.0130000  0  7G 9G 5G24G 4G26G28G 7
  -8123224.60047  -6214090.97147  25305708.4464   25305707.8724
  -1405922.87745   -983661.66445  27954483.7824   27954485.8334
   -272060.09143    -61365.37642  27869232.6494   27869236.6574
  -7426103.20547  -5573026.63846  25563639.6184   25563639.5014
  10066031.92144   7751955.92344  28610915.6264   28610919.9974
  29195150.99345  22750832.74745  27169890.4314   27169890.6534
   4311212.30747   3458717.83047  25269970.9854   25269971.0444
 02  9 12  5  3  0.0130000  0  7G 9G 5G24G 4G26G28G 7
  -8138770.36847  -6226204.52547  25302750.8064   25302750.5594
  -1462675.91445  -1027884.72345  27943684.4314   27943685.9774
   -348216.54643   -120707.95243  27854740.9854   27854742.8024
  -7464335.06546  -5602817.62546  25556363.4464   25556363.6344
  10189292.02144   7848002.64743  28634371.4854   28634372.0954
  29299971.25246  22832510.82945  27189840.0874   27189839.6884
   4396008.48047   3524792.76147  25286107.6024   25286107.4974
 02  9 12  5  3 30.0130000  0  7G 9G 5G24G 4G26G28G 7
  -8153826.85347  -6237936.82647  25299885.5714   25299885.2554
    -43500.98155                  27932886.7044
                    -55797.67654  27840261.7354
  -7502131.27647  -5632269.16446  25549172.2044   25549172.1344
     94493.35553                  28657825.9624
  29404931.77146  22914298.21745  27209812.7204   27209811.6534
   4481015.47547   3591031.97147  25302283.8374   25302283.8254
 02  9 12  5  4  0.0130000  0  7G 9G 5G24G 4G26G28G 7
  -8168389.10347  -6249284.01247  25297113.6654   25297113.0094
   -100230.22745                  27922090.6574
                   -131831.64144  27825790.4934
  -7539486.50546  -5661377.07946  25542062.9704   25542063.0754
    217751.89343                  28681280.8454
  29510035.20045  22996196.94945  27229812.5714   27229812.1494
   4566234.68747   3657436.55147  25318500.7044   25318500.8214
 02  9 12  5  4 30.0130000  0  7G 9G 5G24G 4G26G28G 7
  -8182459.49947  -6260247.94147  25294436.2044   25294435.6184
   -156949.09045    -42721.95553  27911298.0404   27911299.4464
   -207802.43444    -17752.09753  27811334.5244   27811337.5134
  -7576402.31347  -5690142.58446  25535038.3764   25535038.2824
    341002.70843     32008.92253  28704737.5954   28704741.6844
  29615277.20845  23078203.66945  27249838.2434   27249839.2634
   4651660.39647   3724002.02047  25334756.6814   25334756.8684
 02  9 12  5  5  0.0130000  0  7G 9G 5G24G 4G26G28G 7
  -8196035.82747  -6270826.88947  25291853.4464   25291852.9194
   -213656.20144    -86909.25043  27900505.4704   27900507.2274
   -283706.85745    -76898.28143  27796891.3294   27796894.0594
  -7612875.55047  -5718563.25146  25528097.4464   25528097.0484
    464243.43643    128040.49843  28728187.6494   28728189.4774
  29720658.31346  23160318.80745  27269892.9774   27269892.1224
   4737291.58047   3790727.61247  25351050.9704   25351051.0754
 02  9 12  5  5 30.0130000  0  7G 9G 5G24G 4G26G28G 7
  -8209118.84947  -6281021.42847  25289363.6344   25289363.2594
   -270353.47244   -131088.89943  27889716.0244   27889717.2204
   -359544.96845   -135992.77843  27782458.4464   27782459.9704
  -7648906.23547  -5746639.05546  25521241.6654   25521241.2674
    587468.51843    224060.02143  28751636.2674   28751638.8214
  29826175.52545  23242539.95745  27289971.3294   27289971.2124
   4823124.32747   3857610.26347  25367385.0174   25367384.9344
 02  9 12  5  6  0.0130000  0  7G 9G 5G24G 4G26G28G 7
  -8221705.69047  -6290829.33047  25286968.7274   25286968.4344
   -327038.93044   -175259.36142  27878930.2434   27878931.9774
   -435312.50345   -195032.26544  27768040.6494   27768042.7354
  -7684490.75147  -5774367.19146  25514470.6344   25514470.4814
    710676.44342    320066.09842  28775080.6814   28775082.1224
  29931829.89145  23324867.98345  27310077.5954   27310077.7704
   4909157.97547   3924649.46347  25383756.8764   25383756.9814
 02  9 12  5  6 30.0130000  0  7G 9G 5G24G 4G26G28G 7
  -8233795.64747  -6300250.05947  25284667.4544   25284666.8564
   -383712.81144   -219420.71543  27868146.3134   27868148.3644
   -511007.87045   -254015.57944  27753635.9234   27753639.1104
  -7719627.59247  -5801746.49246  25507783.3214   25507783.0404
    833863.00243    416055.59243  28798524.1264   28798524.1844
  30037619.90246  23407301.73445  27330209.5244   27330209.1384
   4995389.92347   3991843.18347  25400165.9934   25400166.2274
 02  9 12  5  7  0.0130000  0  7G 9G 5G24G 4G26G28G 7
  -8245388.50847  -6309283.43447  25282461.6264   25282460.8764
   -440375.80245   -263573.60644  27857362.8294   27857364.5284
   -586629.90445   -312941.72345  27739246.9464   27739250.4274
  -7754316.10847  -5828776.46646  25501182.9384   25501182.3174
    957023.66044    512024.85643  28821960.8294   28821964.9894
  30143543.90546  23489839.88845  27350365.5634   27350364.3334
   5081817.04347   4059188.97747  25416612.1884   25416612.4584
 02  9 12  5  7 30.0130000  0  7G 9G 5G24G 4G26G28G 7
  -8256483.50547  -6317928.86647  25280350.1024   25280349.7164
   -497027.86345   -307718.03144  27846583.5174   27846583.4704
   -662176.41945   -371809.03545  27724870.1184   27724871.9464
  -7788554.46647  -5855455.65546  25494666.9854   25494666.8094
   1080154.84845    607971.14544  28845393.3684   28845396.3094
  30249600.74345  23572481.53545  27370547.6024   27370546.3724
   5168436.96347   4126685.01747  25433095.3604   25433095.6884
 02  9 12  5  8  0.0130000  0  7G 9G 5G24G 4G26G28G 7
  -8267081.58647  -6326187.09447  25278333.6964   25278333.3684
   -553671.02645   -351855.47245  27835802.7434   27835804.7244
   -737647.60245   -430617.62945  27710508.1814   27710511.1224
  -7822343.04547  -5881784.34646  25488237.4234   25488237.1884
   1203250.82945    703890.02943  28868816.9154   28868819.9974
  30355787.41946  23655224.32745  27390754.9154   27390754.2594
   5255245.40947   4194327.94847  25449615.1344   25449615.2744
 02  9 12  5  8 30.0130000  0  7G 9G 5G24G 4G26G28G 7
  -8277176.84447  -6334053.50447  25276412.1964   25276411.9034
   -610300.04345   -395981.90945  27825027.1424   27825028.4074
   -813035.99045   -489361.74645  27696161.5484   27696163.8684
  -7855675.18647  -5907757.40446  25481895.0714   25481894.4154
   1326313.25744    799782.75243  28892233.7674   28892236.7204
  30462108.12346  23738071.61345  27410987.3844   27410985.9544
   5342245.18847   4262119.98047  25466170.1964   25466170.1964
 02  9 12  5  9  0.0130000  0  7G 9G 5G24G 4G26G28G 7
  -8286769.76747  -6341528.48547  25274586.7904   25274586.5094
   -666916.18345   -440098.31245  27814252.6184   27814253.9424
   -888340.84745   -548040.73244  27681831.9854   27681834.9384
  -7888550.44247  -5933374.43046  25475638.5484   25475638.4544
   1449337.04745    895645.38143  28915645.5014   28915648.9814
  30568560.63845  23821021.58245  27431242.3454   27431242.0054
   5429432.70547   4330058.28947  25482761.6814   25482762.0204
 02  9 12  5  9 30.0130000  0  7G 9G 5G24G 4G26G28G 7
  -8295857.87547  -6348610.10847  25272856.9074   25272856.6844
   -723517.71745   -484203.36145  27803482.9934   27803484.2474
   -963558.65745   -606651.91944  27667518.3214   27667521.3924
  -7920965.42647  -5958632.80246  25469469.9934   25469469.4894
   1572320.24045    991476.33143  28939050.5014   28939054.2044
  30675145.50445  23904074.69245  27451526.1964   27451526.1734
   5516807.18947   4398142.30647  25499388.3214   25499388.3334
 02  9 12  5 10  0.0130000  0  7G 9G 5G24G 4G26G28G 7
  -8304442.05947  -6355299.06147  25271223.4704   25271223.2354
   -780106.34545   -528298.31245  27792713.1654   27792714.8414
  -1038688.93245   -665194.89144  27653221.3214   27653224.3564
  -7952920.49547  -5983532.81746  25463388.7824   25463388.4894
   1695257.47444   1087271.49443  28962443.0874   28962444.9504
  30781860.01045  23987228.80345  27471833.5874   27471831.9464
   5604364.70747   4466368.92847  25516050.1964   25516050.4314
 02  9 12  5 10 30.0130000  0  7G 9G 5G24G 4G26G28G 7
  -8312519.66247  -6361593.27747  25269686.5244   25269686.3494
   -836680.17445   -572381.72345  27781947.9774   27781949.8644
  -1113727.82045   -723666.65945  27638942.0714   27638945.1774
  -7984412.01547  -6008071.61346  25457396.6424   25457396.3724
     20472.96454                  28985828.3214
  30888704.80345  24070484.44845  27492164.1024   27492163.5874
   5692104.74547   4534737.78247  25532746.3524   25532746.5754
 02  9 12  5 11  0.0130000  0  7G 9G 5G24G 4G26G28G 7
  -8320093.16747  -6367494.68647  25268245.2204   25268244.9854
   -893242.37145   -616456.11345  27771185.0564   27771187.0014
  -1188676.50845   -782068.13344  27624679.1104   27624683.0134
  -8015441.85647  -6032250.65946  25451491.5634   25451491.0244
    143307.71244                  29009204.2674
  30995675.74945  24153838.34945  27512522.0714   27512521.4034
   5780021.85447   4603244.60547  25549476.7904   25549476.8134
 02  9 12  5 11 30.0130000  0  7G 9G 5G24G 4G26G28G 7
  -8327159.24747  -6373000.70847  25266900.5794   25266900.3214
   -949790.36245   -660519.39245  27760424.2354   27760426.6264
  -1263530.93445   -840396.15945  27610434.4774   27610437.0564
  -8046006.06447  -6056066.88046  25445675.0404   25445674.8524
    266086.67644     31882.61452  29032568.2824   29032570.0174
  31102774.29945  24237291.71245  27532900.5564   27532900.2044
   5868115.97747   4671889.36647  25566240.2354   25566239.9774
 02  9 12  5 12  0.0130000  0  7G 9G 5G24G 4G26G28G 7
  -8333713.92847  -6378108.22147  25265653.2124   25265652.8134
  -1006320.82045   -704569.01645  27749666.7124   27749668.5994
  -1338285.35245   -898646.26944  27596210.2124   27596212.2634
  -8076099.80547  -6079516.49846  25439948.6264   25439948.1224
    388809.45143    127510.71042  29055921.5634   29055926.6964
  31210002.52345  24320846.13845  27553305.3684   27553306.9154
   5956387.93347   4740672.69647  25583038.2984   25583038.6494
 02  9 12  5 12 30.0130000  0  7G 9G 5G24G 4G26G28G 7
  -8339758.30047  -6382818.10447  25264503.1264   25264503.0094
  -1062835.76745   -748606.55845  27738912.6964   27738914.3134
  -1412940.05645   -956818.69844  27582002.3374   27582004.5054
  -8105723.46047  -6102599.81346  25434311.1814   25434311.1454
    511470.24643    223090.39842  29079262.6884   29079264.0134
  31317357.37445  24404499.24045  27573734.8844   27573734.3804
   6044833.62647   4809591.41547  25599869.3764   25599869.3764
 02  9 12  5 13  0.0130000  0  7G 9G 5G24G 4G26G28G 7
  -8345289.59247  -6387128.17747  25263450.8374   25263450.5204
  -1119332.51845   -792629.92345  27728162.2204   27728163.5444
  -1487490.10845  -1014909.54244  27567816.8294   27567820.0054
  -8134873.31047  -6125313.93246  25428764.6184   25428764.1144
    634068.07743    318621.16942  29102591.5404   29102595.0324
  31424840.09945  24488251.94544  27594188.4624   27594187.1614
   6133453.27347   4878645.68147  25616732.4854   25616732.9194
 02  9 12  5 13 30.0130000  0  7G 9G 5G24G 4G26G28G 7
  -8350306.14747  -6391037.16047  25262495.9624   25262495.2594
  -1175810.21544   -836638.40844  27717411.8604   27717414.6844
  -1561932.77745  -1072916.75745  27553650.7984   27553652.2044
  -8163546.93547  -6147656.96446  25423307.3994   25423307.3174
    756600.16143    414100.59042  29125907.2274   29125909.1964
  31532450.55345  24572104.22345  27614666.5324   27614667.0594
   6222245.34047   4947834.29647  25633628.8214   25633628.8804
 02  9 12  5 14  0.0130000  0  7G 9G 5G24G 4G26G28G 7
  -8354805.22047  -6394542.90747  25261639.7824   25261639.4664
  -1232266.98445   -880630.62545  27706670.6104   27706671.4544
  -1636264.42345  -1130837.41145  27539505.9464   27539508.0444
  -8191741.22147  -6169626.46146  25417942.6104   25417942.6344
    879064.67642    509527.36542  29149213.4854   29149219.7314
  31640190.07045  24656057.01544  27635167.8924   27635167.8214
   6311209.30047   5017156.86147  25650558.4624   25650558.2634
 02  9 12  5 14 30.0130000  0  7G 9G 5G24G 4G26G28G 7
  -8358787.30947  -6397645.81647  25260882.5404   25260881.9194
  -1288703.48845   -924607.05345  27695931.0484   27695932.7354
  -1710483.48145  -1188670.34945  27525383.2594   27525385.6494
  -8219455.50847  -6191221.97746  25412668.8994   25412668.0324
   1001457.32042    604898.14742  29172502.4624   29172506.9504
  31748056.33045  24740108.61245  27655695.6574   27655695.0834
   6400341.93147   5086610.85047  25667519.8214   25667520.1494
 02  9 12  5 15  0.0140000  0  7G 9G 5G24G 4G26G28G 7
  -8362252.37347  -6400345.84947  25260222.6004   25260221.9674
  -1345121.91245   -968569.38245  27685194.3654   27685195.8074
  -1784591.48245  -1246416.75345  27511279.7484   27511282.5144
  -8246689.77447  -6212443.42646  25407485.5374   25407485.2674
   1123777.80743    700212.68242  29195780.4594   29195782.5924
  31856051.27345  24824260.48445  27676245.1934   27676244.5254
   6489643.60047   5156196.56447  25684513.6074   25684513.6784
 02  9 12  5 15 30.0140000  0  7G 9G 5G24G 4G26G28G 7
  -8365198.99847  -6402641.89547  25259661.9044   25259661.5294
  -1401517.86545  -1012514.20445  27674463.4754   27674464.2714
  -1858580.62745  -1304070.51545  27497199.9984   27497201.3464
  -8273440.36847  -6233288.01046  25402396.0534   25402395.5844
   1246015.14043    795462.45842  29219041.9674   29219045.6704
  31964167.32545  24908506.69045  27696818.8184   27696819.4634
   6579106.59647   5225907.98747  25701537.1934   25701537.7914
 02  9 12  5 16  0.0140000  0  7G 9G 5G24G 4G26G28G 7
  -8367623.88147  -6404531.39247  25259200.5294   25259199.6744
  -1457890.25145  -1056440.62345  27663735.8734   27663737.5964
  -1932448.29845  -1361629.66045  27483143.6704   27483146.7174
  -8299703.78247  -6253752.96246  25397397.5764   25397396.8264
   1368172.67143    890650.06542  29242288.0924   29242289.0884
  32072409.72345  24992851.38345  27717416.9754   27717415.6974
   6668734.48647   5295747.88947  25718593.7254   25718593.7604
 02  9 12  5 16 30.0140000  0  6G 9G 5G24G 4G28G 7
  -8369524.62847  -6406012.47847  25258838.8034   25258838.0064
  -1514237.19645  -1100347.29645  27653013.5374   27653013.9124
  -2006190.69445  -1419091.22445  27469111.4674   27469113.3774
  -8325477.19047  -6273836.09646  25392493.2014   25392492.6504
  32180779.12645  25077295.01744  27738039.5144   27738040.2524
   6758526.47247   5365715.66147  25735679.8964   25735679.8854
 02  9 12  5 17  0.0140000  0  6G 9G 5G24G 4G28G 7
  -8370898.96747  -6407083.36847  25258577.4284   25258576.8894
  -1570556.73645  -1144232.62845  27642295.2954   27642295.4004
  -2079804.26545  -1476452.34945  27455102.4044   27455103.8574
  -8350757.63347  -6293535.09746  25387682.9434   25387682.4754
  32289275.96145  25161837.97444  27758684.4354   27758685.4434
   6848482.15447   5435810.97747  25752797.8104   25752797.7524
 02  9 12  5 17 30.0140000  0  6G 9G 5G24G 4G28G 7
  -8371745.85347  -6407743.26547  25258415.8654   25258415.1974
  -1626848.29045  -1188096.11245  27631583.2644   27631583.3104
  -2153286.63545  -1533711.25045  27441118.8574   27441121.0144
  -8375543.18347  -6312848.48146  25382966.1234   25382965.3384
  32397899.97345  25246480.01044  27779356.7094   27779354.9634
   6938599.76447   5506032.49047  25769946.4594   25769946.6934
 02  9 12  5 18  0.0140000  0  6G 9G 5G24G 4G28G 7
  -8372068.76847  -6407994.87247  25258354.8964   25258353.9714
  -1683115.63245  -1231940.70345  27620876.3574   27620877.1194
  -2226639.63045  -1590869.33845  27427160.7174   27427162.7794
  -8399836.36847  -6331778.19547  25378343.6934   25378342.8264
  32506645.94345  25331217.08244  27800048.6394   27800048.2524
   7028873.09647   5576375.33547  25787125.3344   25787125.3694
 02  9 12  5 18 30.0140000  0  6G 9G 5G24G 4G28G 7
  -8371861.87147  -6407833.64247  25258393.9984   25258392.8964
  -1739353.12746  -1275762.07345  27610175.1934   27610175.3814
  -2299855.60545  -1647920.64345  27413227.6934   27413230.5064
  -8423630.78147  -6350319.27747  25373815.2254   25373814.8734
  32615518.36745  25416052.70144  27820767.0454   27820767.7834
   7119305.32247   5646842.00547  25804333.7794   25804334.0724
 02  9 12  5 19  0.0140000  0  6G 9G 5G24G 4G28G 7
  -8371123.95347  -6407258.62347  25258533.9904   25258533.2644
  -1795560.01546  -1319559.57145  27599479.0764   27599479.0644
  -2372931.92945  -1704863.16245  27399322.0144   27399324.1584
  -8446924.34547  -6368470.08347  25369382.7954   25369382.3264
  32724516.89245  25500986.56244  27841510.1394   27841510.7254
   7209894.94847   5717431.31546  25821572.5454   25821573.0844
 02  9 12  5 19 30.0140000  0  6G 9G 5G24G 4G28G 7
  -8369851.33447  -6406266.96747  25258776.5374   25258775.7994
  -1851732.96845  -1363330.64545  27588788.3424   27588789.5604
  -2445863.57545  -1761692.94145  27385443.2874   27385444.8814
  -8469712.62847  -6386227.16947  25365045.9284   25365044.9784
  32833643.41045  25586020.15644  27862275.9354   27862275.5604
   7300642.65747   5788143.81446  25838840.8184   25838840.9474
 02  9 12  5 20  0.0140000  0  6G 9G 5G24G 4G28G 7
  -8368048.73047  -6404862.31847  25259120.2014   25259119.3104
  -1907876.71946  -1407078.95845  27578105.5064   27578106.0104
  -2518653.25445  -1818412.08745  27371591.8894   27371594.0574
  -8491999.67047  -6403593.67547  25360804.4354   25360804.2014
  32942891.91445  25671148.81244  27883064.0764   27883063.5374
   7391541.30647   5858973.91546  25856138.7254   25856138.8654
 02  9 12  5 20 30.0140000  0  6G 9G 5G24G 4G28G 7
  -8365715.95947  -6403044.57447  25259563.3264   25259562.5174
  -1963991.41745  -1450804.64545  27567426.5764   27567427.9594
  -2591299.26145  -1875019.26245  27357767.7644   27357770.4594
  -8513784.20447  -6420568.59747  25356659.6464   25356659.0494
  33052260.89945  25756371.37044  27903877.0294   27903877.5684
   7482588.48847   5929919.76046  25873464.5924   25873464.5684
 02  9 12  5 21  0.0140000  0  6G 9G 5G24G 4G28G 7
  -8362846.72347  -6400808.79747  25260109.3894   25260108.6504
  -2020071.01845  -1494502.92045  27556755.4124   27556757.3344
  -2663793.75845  -1931508.39745  27343972.3654   27343974.9434
  -8535059.61447  -6437146.82047  25352610.5604   25352609.9514
  33161755.35845  25841691.64143  27924711.8104   27924711.4244
   7573787.81547   6000984.16946  25890819.3424   25890819.4004
 02  9 12  5 21 30.0140000  0  6G 9G 5G24G 4G28G 7
  -8359442.89247  -6398156.45547  25260757.5604   25260756.5294
  -2076117.47345  -1538175.42545  27546089.8504   27546090.1074
  -2736136.59845  -1987879.37445  27330205.8264   27330208.2874
  -8555826.68847  -6453328.91347  25348658.8574   25348658.4354
  33271371.57245  25927106.86344  27945572.6234   27945571.9784
   7665134.73847   6072163.57946  25908201.5294   25908201.9754
 02  9 12  5 22  0.0140000  0  6G 9G 5G24G 4G28G 7
  -8355499.82247  -6395083.92147  25261507.6704   25261507.0604
  -2132126.21945  -1581818.54645  27535431.6544   27535432.5454
  -2808321.93445  -2044127.64545  27316470.1234   27316471.6584
  -8576079.98247  -6469110.69047  25344804.8504   25344804.2644
  33381113.18145  26012619.73444  27966456.3654   27966453.8694
   7756631.55247   6143459.79346  25925612.8504   25925613.1664
 02  9 12  5 22 30.0140000  0  6G 9G 5G24G 4G28G 7
  -8351020.51247  -6391593.54447  25262359.9354   25262359.2794
  -2188100.44145  -1625434.72245  27524780.5604   27524781.8034
  -2880351.40645  -2100254.41645  27302762.4984   27302765.1584
  -8595822.12047  -6484494.15347  25341048.3264   25341047.8104
  33490975.38145  26098226.58644  27987361.1234   27987362.7754
   7848272.40647   6214868.24646  25943051.5604   25943052.0174
 02  9 12  5 23  0.0140000  0  6G 9G 5G24G 4G28G 7
  -8346002.31847  -6387683.25447  25263315.1074   25263314.0534
  -2244037.48345  -1669021.96945  27514135.6074   27514137.0724
  -2952220.26545  -2156256.05445  27289085.1854   27289087.7404
  -8615049.54147  -6499476.52947  25337389.2954   25337388.7674
  33600959.48745  26183928.44944  28008291.2174   28008291.2874
   7940057.35047   6286388.98046  25960517.8814   25960517.8694
 02  9 12  5 23 30.0140000  0  6G 9G 5G24G 4G28G 7
  -8340447.26647  -6383354.63247  25264372.0374   25264370.9354
  -2299939.56345  -1712581.93345  27503497.0144   27503498.1504
  -3023928.93145  -2212132.84445  27275440.1234   27275442.7364
  -8633763.46647  -6514058.76147  25333827.6784   25333827.3734
  33711061.97245  26269722.56543  28029243.0604   28029242.0534
   8031982.00747   6358018.56646  25978010.2794   25978010.6074
 02  9 12  5 24  0.0140000  0  6G 9G 5G24G 4G28G 7
  -8334355.97047  -6378608.15947  25265530.9594   25265530.1854
  -2355806.89145  -1756114.85145  27492866.8184   27492867.2754
  -3095475.82845  -2267883.61545  27261826.1704   27261827.9864
  -8651963.51047  -6528240.59447  25330364.7714   25330364.0924
  33821281.18445  26355607.58643  28050216.2174   28050217.7524
   8124043.59047   6429754.86046  25995529.4284   25995529.3574
 02  9 12  5 24 30.0140000  0  6G 9G 5G24G 4G28G 7
  -8327723.27147  -6373439.81947  25266792.8504   25266792.2754
  -2411634.78146  -1799617.02745  27482242.7714   27482243.6034
  -3166854.37145  -2323503.17445  27248241.4354   27248243.9904
  -8669644.06047  -6542017.62147  25327000.4434   25326999.6704
  33931620.70145  26441586.37444  28071214.4284   28071214.3814
   8216244.49947   6501599.72046  26013074.9674   26013075.5414
 02  9 12  5 25  0.0140000  0  6G 9G 5G24G 4G28G 7
  -8320550.50947  -6367850.64847  25268158.1624   25268157.6004
  -2467424.51946  -1843089.50845  27471626.0144   27471627.0104
  -3238064.19545  -2378991.25345  27234692.1074   27234694.2994
  -8686805.74247  -6555390.33047  25323734.5534   25323734.2254
  34042077.66645  26527656.67243  28092233.1074   28092231.5844
   8308580.80847   6573550.09146  26030645.1784   26030645.7994
 02  9 12  5 25 30.0140000  0  6G 9G 5G24G 4G28G 7
  -8312841.17747  -6361843.36847  25269624.9284   25269624.3654
  -2523179.11346  -1886534.61045  27461016.5844   27461016.9474
  -3309106.74645  -2434349.03145  27221172.6784   27221174.2484
  -8703450.89147  -6568360.54547  25320566.8654   25320566.0574
  34152647.59045  26613815.00843  28113272.8184   28113274.0374
   8401047.02247   6645601.67646  26048241.8734   26048242.1424
 02  9 12  5 26  0.0140000  0  6G 9G 5G24G 4G28G 7
  -8304591.58947  -6355415.10347  25271194.8104   25271194.1194
  -2578895.30146  -1929949.73045  27450414.2094   27450414.7604
  -3379976.72745  -2489572.31045  27207686.2014   27207688.5454
  -8719575.44647  -6580925.11647  25317498.0534   25317497.4904
  34263332.34245  26700062.75244  28134337.4284   28134337.2994
   8493644.27447   6717755.37546  26065861.9514   26065862.3854
 02  9 12  5 26 30.0140000  0  6G 9G 5G24G 4G28G 7
  -8295801.69147  -6348565.83847  25272867.3574   25272866.5374
  -2634572.70846  -1973334.68845  27439818.3184   27439818.0964
  -3450672.07145  -2544659.51545  27194233.4204   27194235.5534
  -8735178.51447  -6593083.31347  25314529.4824   25314529.3184
  34374130.98745  26786399.32643  28155421.1234   28155420.5964
   8586370.33847   6790009.43646  26083506.7564   26083506.7444
 02  9 12  5 27  0.0140000  0  6G 9G 5G24G 4G28G 7
  -8286469.29347  -6341293.82947  25274643.3344   25274642.8654
  -2690208.89046  -2016687.52245  27429231.6784   27429231.7954
  -3521189.02546  -2599607.71145  27180815.1314   27180816.1624
  -8750257.20247  -6604832.92547  25311659.8814   25311659.0494
  34485044.41445  26872825.29143  28176526.6074   28176527.4984
   8679224.90347   6862363.63146  26101176.8184   26101176.7834
 02  9 12  5 27 30.0140000  0  6G 9G 5G24G 4G28G 7
  -8276597.49547  -6333601.51747  25276522.4904   25276521.9284
  -2745806.89146  -2060010.56745  27418651.8104   27418652.7254
  -3591528.74145  -2654417.77645  27167429.2644   27167430.7284
  -8764813.89247  -6616175.77147  25308889.0604   25308888.5104
  34596068.08144  26959337.18843  28197653.5844   28197654.8614
   8772202.68647   6934813.84946  26118869.5684   26118870.2484
 02  9 12  5 28  0.0140000  0  6G 9G 5G24G 4G28G 7
  -8266183.78447  -6325486.93047  25278504.1624   25278503.2604
  -2801363.85346  -2103301.66345  27408080.2014   27408079.7674
  -3661686.49346  -2709086.09245  27154079.3344   27154081.7014
  -8778844.98447  -6627109.06647  25306220.2644   25306219.7014
  34707203.49545  27045936.07243  28218803.0144   28218802.2174
   8865304.07447   7007360.37246  26136586.8814   26136587.3034
 02  9 12  5 28 30.0140000  0  6G 9G 5G24G 4G28G 7
  -8255225.73947  -6316948.18947  25280588.7484   25280588.1854
  -2856877.21345  -2146558.74645  27397515.6624   27397516.1194
  -3731658.03546  -2763609.32445  27140763.3894   27140764.7254
  -8792347.53347  -6637630.49847  25303650.1464   25303649.7254
  34818451.95545  27132623.17743  28239972.5924   28239971.1744
   8958529.20747   7080003.32446  26154326.4904   26154327.3344
 02  9 12  5 29  0.0140000  0  6G 9G 5G24G 4G28G 7
  -8243720.38547  -6307982.97847  25282778.4354   25282777.6744
  -2912343.56446  -2189779.17945  27386960.6784   27386960.9474
  -3801438.44846  -2817983.60745  27127484.5924   27127486.1854
  -8805317.86847  -6647737.21347  25301182.1464   25301181.5374
  34929815.02045  27219399.48443  28261164.6624   28261164.2284
   9051878.87947   7152743.30846  26172090.6234   26172091.1854
 02  9 12  5 29 30.0140000  0  6G 9G 5G24G 4G28G 7
  -8231670.16947  -6298593.19747  25285071.5294   25285071.1314
  -2967765.16346  -2232964.81845  27376414.7174   27376415.0104
  -3871028.36346  -2872209.44045  27114242.6704   27114244.5684
  -8817757.72847  -6657430.60347  25298814.5604   25298813.8924
  35041288.79444  27306262.13943  28282375.9124   28282378.2444
   9145348.41847   7225576.71146  26189877.1464   26189877.4754
 02  9 12  5 30  0.0140000  0  6G 9G 5G24G 4G28G 7
  -8219073.62047  -6288777.69947  25287468.7484   25287468.1854
  -3023140.23845  -2276114.16745  27365876.5534   27365876.6114
  -3940424.31546  -2926284.12745  27101037.0604   27101039.4044
  -8829664.95247  -6666708.92947  25296548.5844   25296548.1974
  35152873.68944  27393211.34643  28303611.3654   28303611.6354
   9238937.05547   7298502.90746  26207686.4354   26207686.6354
 02  9 12  5 30 30.0140000  0  6G 9G 5G24G 4G28G 7
  -8205932.10947  -6278537.55847  25289968.7714   25289968.0804
  -3078469.72346  -2319227.96745  27355348.2254   27355349.0804
  -4009625.57046  -2980207.13445  27087868.1394   27087869.6394
  -8841039.94747  -6675572.52547  25294384.7254   25294383.7284
  35264567.31445  27480245.22343  28324865.4984   28324866.7174
   9332641.31647   7371519.19946  26225517.7644   26225518.2324
 02  9 12  5 31  0.0140000  0  6G 9G 5G24G 4G28G 7
  -8192245.07147  -6267872.33147  25292573.4824   25292572.9554
  -3133752.60245  -2362305.46745  27344827.0214   27344827.5024
  -4078629.61346  -3033976.45845  27074737.7874   27074739.1004
  -8851881.41747  -6684020.41847  25292321.3894   25292320.5214
  35376369.26645  27567363.56043  28346141.1234   28346143.3504
   9426460.02047   7444624.67646  26243370.8964   26243371.3534
 02  9 12  5 31 30.0140000  0  6G 9G 5G24G 4G28G 7
  -8178006.86447  -6256777.62047  25295283.5294   25295282.9204
  -3188982.73345  -2405341.87345  27334316.8034   27334317.5764
  -4147428.52946  -3087585.96445  27061645.4674   27061646.7914
  -8862182.99747  -6692047.61147  25290361.0374   25290360.5214
  35488284.00345  27654569.75542  28367437.9754   28367437.0964
   9520396.55647   7517821.95346  26261246.9434   26261247.7754
 02  9 12  5 32  0.0140000  0  6G 9G 5G24G 4G28G 7
  -8163218.15447  -6245253.94447  25298097.2324   25298096.7994
  -3244160.36646  -2448337.35545  27323817.6074   27323818.9434
  -4216021.11546  -3141034.66245  27048592.3504   27048593.9204
  -8871944.54247  -6699653.98847  25288503.4284   25288502.3964
  35600309.66244  27741862.44243  28388754.7014   28388753.0374
   9614448.26447   7591108.99446  26279144.2954   26279144.9164
 02  9 12  5 32 30.0140000  0  6G 9G 5G24G 4G28G 7
  -8147883.01247  -6233304.48247  25301015.1074   25301014.3814
  -3299289.10446  -2491294.78045  27313327.0534   27313327.0534
  -4284409.33046  -3194324.10845  27035578.7174   27035580.0414
  -8881169.46947  -6706842.21747  25286747.8654   25286747.1624
  35712441.10644  27829237.47242  28410092.6314   28410091.9984
   9708609.06646   7664481.03746  26297061.6464   26297062.1744
 02  9 12  5 33  0.0140000  0  6G 9G 5G24G 4G28G 7
  -8131996.31847  -6220925.23547  25304038.4354   25304037.9554
  -3354363.60246  -2534209.89545  27302846.1394   27302848.0024
  -4352586.04946  -3247448.76945  27022605.0534   27022606.3304
  -8889851.95047  -6713607.75747  25285095.9044   25285095.2254
  35824682.40744  27916698.17642  28431452.5844   28431452.9824
   9802881.99246   7737940.44046  26315001.2174   26315001.9784
 02  9 12  5 33 30.0140000  0  6G 9G 5G24G 4G28G 7
  -8115555.09047  -6208113.88247  25307167.2484   25307166.7674
  -3409380.19346  -2577079.88445  27292377.4824   27292377.8694
  -4420546.30446  -3300404.75045  27009672.3034   27009673.5804
  -8897988.30647  -6719947.75147  25283547.6154   25283546.6314
  35937035.55444  28004245.95843  28452831.1934   28452833.0574
   9897268.16647   7811488.08846  26332962.8894   26332962.8774
 02  9 12  5 34  0.0140000  0  6G 9G 5G24G 4G28G 7
  -8098558.63047  -6194869.88947  25310401.7014   25310401.2444
  -3464337.66246  -2619903.82145  27281918.3034   27281920.2254
  -4488286.93246  -3353189.60545  26996781.2324   26996782.9674
  -8905577.05447  -6725861.04747  25282104.1624   25282102.9784
  36049500.11445  28091880.66443  28474234.9674   28474233.2564
   9991766.41947   7885123.08446  26350945.4754   26350945.9674
 02  9 12  5 34 30.0140000  0  6G 9G 5G24G 4G28G 7
  -8081008.18447  -6181194.21547  25313741.2714   25313740.8614
  -3519236.49046  -2662682.08445  27271471.9044   27271472.0574
  -4555807.14146  -3405802.69645  26983932.7014   26983934.2834
  -8912618.63147  -6731347.95947  25280763.3964   25280762.4594
  36162073.94744  28179600.43743  28495655.3504   28495654.1784
  10086373.59447   7958842.94246  26368948.2254   26368948.9394
 02  9 12  5 35  0.0140000  0  6G 9G 5G24G 4G28G 7
  -8062906.01147  -6167088.61647  25317186.1624   25317185.6234
  -3574078.16246  -2705415.79145  27261036.1544   27261037.3964
  -4623106.83646  -3458243.95045  26971125.9674   26971127.7484
  -8919114.71647  -6736409.81147  25279526.7794   25279526.2524
  36274753.75845  28267402.83343  28517099.1784   28517098.9434
  10181085.59947   8032644.47846  26386971.5064   26386972.2444
 02  9 12  5 35 30.0140000  0  6G 9G 5G24G 4G28G 7
  -8044250.81747  -6152552.09847  25320735.4594   25320735.0024
  -3628860.99446  -2748103.67545  27250610.8344   27250611.6784
  -4690182.61846  -3510510.72145  26958362.2564   26958363.6744
  -8925063.06547  -6741044.86947  25278395.2324   25278394.0844
  36387539.90443  28355288.12242  28538559.2954   28538559.6584
  10275901.94947   8106527.34046  26405014.5374   26405014.8184
 02  9 12  5 36  0.0140000  0  6G 9G 5G24G 4G28G 7
  -8025041.58947  -6137583.86047  25324391.5294   25324391.0254
  -3683582.99146  -2790744.12045  27240197.1784   27240198.3144
  -4757031.65746  -3562600.82245  26945640.8104   26945641.9474
  -8930462.00447  -6745251.81447  25277367.1624   25277366.1664
  36500432.77844  28443256.52442  28560045.2254   28560045.7644
  10370821.90947   8180490.94446  26423077.0684   26423077.4204
